<?xml version="1.0" encoding="UTF-8" standalone="no" ?>
<gpx xmlns="http://www.topografix.com/GPX/1/1" xmlns:xsi="http://www.w3.org/2001/XMLSchema-instance" xsi:schemaLocation="http://www.topografix.com/GPX/1/1 http://www.topografix.com/GPX/1/1/gpx.xsd" version="1.1" creator="VisuGPX - https://www.visugpx.com">
  <metadata>
    <name>Erquy 40kms</name>
  </metadata>
  <trk>
    <name><![CDATA[la bouillie VTT]]></name>
    <extensions>
      <line xmlns="http://www.topografix.com/GPX/gpx_style/0/2">
        <color>ff2600</color>
        <width>4</width>
      </line>
    </extensions>
    <trkseg>
      <trkpt lat="48.58217" lon="-2.43757">
        <ele>79.3</ele>
        <time>2018-06-03T06:36:34Z</time>
      </trkpt>
      <trkpt lat="48.58206" lon="-2.43767">
        <ele>80</ele>
        <time>2018-06-03T06:36:38Z</time>
      </trkpt>
      <trkpt lat="48.5819" lon="-2.4378">
        <ele>80</ele>
        <time>2018-06-03T06:36:42Z</time>
      </trkpt>
      <trkpt lat="48.58174" lon="-2.43794">
        <ele>80</ele>
        <time>2018-06-03T06:36:46Z</time>
      </trkpt>
      <trkpt lat="48.58161" lon="-2.43809">
        <ele>81</ele>
        <time>2018-06-03T06:36:50Z</time>
      </trkpt>
      <trkpt lat="48.58146" lon="-2.43823">
        <ele>81</ele>
        <time>2018-06-03T06:36:54Z</time>
      </trkpt>
      <trkpt lat="48.58134" lon="-2.43835">
        <ele>81</ele>
        <time>2018-06-03T06:36:58Z</time>
      </trkpt>
      <trkpt lat="48.58118" lon="-2.43855">
        <ele>81</ele>
        <time>2018-06-03T06:37:02Z</time>
      </trkpt>
      <trkpt lat="48.58104" lon="-2.43868">
        <ele>81</ele>
        <time>2018-06-03T06:37:06Z</time>
      </trkpt>
      <trkpt lat="48.58084" lon="-2.43881">
        <ele>81</ele>
        <time>2018-06-03T06:37:10Z</time>
      </trkpt>
      <trkpt lat="48.58068" lon="-2.43894">
        <ele>81</ele>
        <time>2018-06-03T06:37:14Z</time>
      </trkpt>
      <trkpt lat="48.58052" lon="-2.43903">
        <ele>82</ele>
        <time>2018-06-03T06:37:18Z</time>
      </trkpt>
      <trkpt lat="48.58038" lon="-2.43914">
        <ele>82</ele>
        <time>2018-06-03T06:37:22Z</time>
      </trkpt>
      <trkpt lat="48.5802" lon="-2.43923">
        <ele>82</ele>
        <time>2018-06-03T06:37:26Z</time>
      </trkpt>
      <trkpt lat="48.58001" lon="-2.4393">
        <ele>82</ele>
        <time>2018-06-03T06:37:30Z</time>
      </trkpt>
      <trkpt lat="48.57984" lon="-2.43941">
        <ele>82</ele>
        <time>2018-06-03T06:37:34Z</time>
      </trkpt>
      <trkpt lat="48.57971" lon="-2.43949">
        <ele>82</ele>
        <time>2018-06-03T06:37:38Z</time>
      </trkpt>
      <trkpt lat="48.57954" lon="-2.43957">
        <ele>82</ele>
        <time>2018-06-03T06:37:42Z</time>
      </trkpt>
      <trkpt lat="48.57938" lon="-2.43965">
        <ele>82</ele>
        <time>2018-06-03T06:37:46Z</time>
      </trkpt>
      <trkpt lat="48.57926" lon="-2.43975">
        <ele>83</ele>
        <time>2018-06-03T06:37:50Z</time>
      </trkpt>
      <trkpt lat="48.5793" lon="-2.43991">
        <ele>83</ele>
        <time>2018-06-03T06:37:54Z</time>
      </trkpt>
      <trkpt lat="48.57948" lon="-2.43999">
        <ele>82</ele>
        <time>2018-06-03T06:37:58Z</time>
      </trkpt>
      <trkpt lat="48.5797" lon="-2.44005">
        <ele>82</ele>
        <time>2018-06-03T06:38:02Z</time>
      </trkpt>
      <trkpt lat="48.57995" lon="-2.44013">
        <ele>82</ele>
        <time>2018-06-03T06:38:06Z</time>
      </trkpt>
      <trkpt lat="48.58018" lon="-2.44024">
        <ele>81</ele>
        <time>2018-06-03T06:38:10Z</time>
      </trkpt>
      <trkpt lat="48.58042" lon="-2.44039">
        <ele>81</ele>
        <time>2018-06-03T06:38:14Z</time>
      </trkpt>
      <trkpt lat="48.58067" lon="-2.44056">
        <ele>82</ele>
        <time>2018-06-03T06:38:18Z</time>
      </trkpt>
      <trkpt lat="48.58089" lon="-2.44076">
        <ele>82</ele>
        <time>2018-06-03T06:38:22Z</time>
      </trkpt>
      <trkpt lat="48.58098" lon="-2.44099">
        <ele>82</ele>
        <time>2018-06-03T06:38:26Z</time>
      </trkpt>
      <trkpt lat="48.58089" lon="-2.4413">
        <ele>82</ele>
        <time>2018-06-03T06:38:30Z</time>
      </trkpt>
      <trkpt lat="48.58082" lon="-2.44163">
        <ele>82</ele>
        <time>2018-06-03T06:38:34Z</time>
      </trkpt>
      <trkpt lat="48.58076" lon="-2.44197">
        <ele>82</ele>
        <time>2018-06-03T06:38:38Z</time>
      </trkpt>
      <trkpt lat="48.58068" lon="-2.44229">
        <ele>82</ele>
        <time>2018-06-03T06:38:42Z</time>
      </trkpt>
      <trkpt lat="48.58061" lon="-2.44263">
        <ele>82</ele>
        <time>2018-06-03T06:38:46Z</time>
      </trkpt>
      <trkpt lat="48.58055" lon="-2.44298">
        <ele>82</ele>
        <time>2018-06-03T06:38:50Z</time>
      </trkpt>
      <trkpt lat="48.58051" lon="-2.44333">
        <ele>82</ele>
        <time>2018-06-03T06:38:54Z</time>
      </trkpt>
      <trkpt lat="48.58056" lon="-2.44371">
        <ele>82</ele>
        <time>2018-06-03T06:38:58Z</time>
      </trkpt>
      <trkpt lat="48.58064" lon="-2.44409">
        <ele>81</ele>
        <time>2018-06-03T06:39:02Z</time>
      </trkpt>
      <trkpt lat="48.5807" lon="-2.44444">
        <ele>81</ele>
        <time>2018-06-03T06:39:06Z</time>
      </trkpt>
      <trkpt lat="48.58077" lon="-2.44481">
        <ele>81</ele>
        <time>2018-06-03T06:39:10Z</time>
      </trkpt>
      <trkpt lat="48.58083" lon="-2.44517">
        <ele>81</ele>
        <time>2018-06-03T06:39:14Z</time>
      </trkpt>
      <trkpt lat="48.5809" lon="-2.44554">
        <ele>79</ele>
        <time>2018-06-03T06:39:18Z</time>
      </trkpt>
      <trkpt lat="48.58097" lon="-2.44591">
        <ele>79</ele>
        <time>2018-06-03T06:39:22Z</time>
      </trkpt>
      <trkpt lat="48.58103" lon="-2.44627">
        <ele>78</ele>
        <time>2018-06-03T06:39:26Z</time>
      </trkpt>
      <trkpt lat="48.58107" lon="-2.44666">
        <ele>78</ele>
        <time>2018-06-03T06:39:30Z</time>
      </trkpt>
      <trkpt lat="48.58105" lon="-2.44702">
        <ele>79</ele>
        <time>2018-06-03T06:39:34Z</time>
      </trkpt>
      <trkpt lat="48.58097" lon="-2.44736">
        <ele>79</ele>
        <time>2018-06-03T06:39:38Z</time>
      </trkpt>
      <trkpt lat="48.5809" lon="-2.44769">
        <ele>79</ele>
        <time>2018-06-03T06:39:42Z</time>
      </trkpt>
      <trkpt lat="48.58087" lon="-2.44804">
        <ele>79</ele>
        <time>2018-06-03T06:39:46Z</time>
      </trkpt>
      <trkpt lat="48.58083" lon="-2.44834">
        <ele>79</ele>
        <time>2018-06-03T06:39:50Z</time>
      </trkpt>
      <trkpt lat="48.58077" lon="-2.44863">
        <ele>79</ele>
        <time>2018-06-03T06:39:54Z</time>
      </trkpt>
      <trkpt lat="48.58072" lon="-2.44893">
        <ele>79</ele>
        <time>2018-06-03T06:39:58Z</time>
      </trkpt>
      <trkpt lat="48.58067" lon="-2.44926">
        <ele>79</ele>
        <time>2018-06-03T06:40:02Z</time>
      </trkpt>
      <trkpt lat="48.58065" lon="-2.44959">
        <ele>79</ele>
        <time>2018-06-03T06:40:06Z</time>
      </trkpt>
      <trkpt lat="48.58065" lon="-2.44993">
        <ele>79</ele>
        <time>2018-06-03T06:40:10Z</time>
      </trkpt>
      <trkpt lat="48.58064" lon="-2.45025">
        <ele>80</ele>
        <time>2018-06-03T06:40:14Z</time>
      </trkpt>
      <trkpt lat="48.5806" lon="-2.45054">
        <ele>80</ele>
        <time>2018-06-03T06:40:18Z</time>
      </trkpt>
      <trkpt lat="48.58054" lon="-2.45084">
        <ele>82</ele>
        <time>2018-06-03T06:40:22Z</time>
      </trkpt>
      <trkpt lat="48.58054" lon="-2.45112">
        <ele>82</ele>
        <time>2018-06-03T06:40:26Z</time>
      </trkpt>
      <trkpt lat="48.58059" lon="-2.45137">
        <ele>82</ele>
        <time>2018-06-03T06:40:30Z</time>
      </trkpt>
      <trkpt lat="48.5806" lon="-2.45169">
        <ele>82</ele>
        <time>2018-06-03T06:40:34Z</time>
      </trkpt>
      <trkpt lat="48.58064" lon="-2.45199">
        <ele>82</ele>
        <time>2018-06-03T06:40:38Z</time>
      </trkpt>
      <trkpt lat="48.58076" lon="-2.45221">
        <ele>82</ele>
        <time>2018-06-03T06:40:42Z</time>
      </trkpt>
      <trkpt lat="48.58093" lon="-2.45242">
        <ele>81</ele>
        <time>2018-06-03T06:40:46Z</time>
      </trkpt>
      <trkpt lat="48.58113" lon="-2.45252">
        <ele>79</ele>
        <time>2018-06-03T06:40:50Z</time>
      </trkpt>
      <trkpt lat="48.5814" lon="-2.45252">
        <ele>79</ele>
        <time>2018-06-03T06:40:54Z</time>
      </trkpt>
      <trkpt lat="48.58165" lon="-2.4525">
        <ele>78</ele>
        <time>2018-06-03T06:40:58Z</time>
      </trkpt>
      <trkpt lat="48.58192" lon="-2.45235">
        <ele>77</ele>
        <time>2018-06-03T06:41:02Z</time>
      </trkpt>
      <trkpt lat="48.58215" lon="-2.45224">
        <ele>77</ele>
        <time>2018-06-03T06:41:06Z</time>
      </trkpt>
      <trkpt lat="48.58244" lon="-2.45227">
        <ele>77</ele>
        <time>2018-06-03T06:41:10Z</time>
      </trkpt>
      <trkpt lat="48.58272" lon="-2.4523">
        <ele>76</ele>
        <time>2018-06-03T06:41:14Z</time>
      </trkpt>
      <trkpt lat="48.583" lon="-2.4523">
        <ele>75</ele>
        <time>2018-06-03T06:41:18Z</time>
      </trkpt>
      <trkpt lat="48.58326" lon="-2.45234">
        <ele>75</ele>
        <time>2018-06-03T06:41:22Z</time>
      </trkpt>
      <trkpt lat="48.58355" lon="-2.45244">
        <ele>75</ele>
        <time>2018-06-03T06:41:26Z</time>
      </trkpt>
      <trkpt lat="48.58383" lon="-2.45252">
        <ele>74</ele>
        <time>2018-06-03T06:41:30Z</time>
      </trkpt>
      <trkpt lat="48.5841" lon="-2.45258">
        <ele>74</ele>
        <time>2018-06-03T06:41:34Z</time>
      </trkpt>
      <trkpt lat="48.58433" lon="-2.45258">
        <ele>74</ele>
        <time>2018-06-03T06:41:38Z</time>
      </trkpt>
      <trkpt lat="48.58456" lon="-2.45254">
        <ele>74</ele>
        <time>2018-06-03T06:41:42Z</time>
      </trkpt>
      <trkpt lat="48.58476" lon="-2.45244">
        <ele>74</ele>
        <time>2018-06-03T06:41:46Z</time>
      </trkpt>
      <trkpt lat="48.58483" lon="-2.45251">
        <ele>74</ele>
        <time>2018-06-03T06:41:50Z</time>
      </trkpt>
      <trkpt lat="48.58482" lon="-2.45286">
        <ele>74</ele>
        <time>2018-06-03T06:41:54Z</time>
      </trkpt>
      <trkpt lat="48.58473" lon="-2.45329">
        <ele>73</ele>
        <time>2018-06-03T06:41:58Z</time>
      </trkpt>
      <trkpt lat="48.58454" lon="-2.45376">
        <ele>71</ele>
        <time>2018-06-03T06:42:02Z</time>
      </trkpt>
      <trkpt lat="48.58441" lon="-2.45433">
        <ele>69</ele>
        <time>2018-06-03T06:42:06Z</time>
      </trkpt>
      <trkpt lat="48.58426" lon="-2.45479">
        <ele>70</ele>
        <time>2018-06-03T06:42:10Z</time>
      </trkpt>
      <trkpt lat="48.58412" lon="-2.45519">
        <ele>72</ele>
        <time>2018-06-03T06:42:14Z</time>
      </trkpt>
      <trkpt lat="48.5841" lon="-2.45558">
        <ele>73</ele>
        <time>2018-06-03T06:42:18Z</time>
      </trkpt>
      <trkpt lat="48.58413" lon="-2.45593">
        <ele>74</ele>
        <time>2018-06-03T06:42:22Z</time>
      </trkpt>
      <trkpt lat="48.5842" lon="-2.45631">
        <ele>73</ele>
        <time>2018-06-03T06:42:26Z</time>
      </trkpt>
      <trkpt lat="48.58435" lon="-2.45663">
        <ele>73</ele>
        <time>2018-06-03T06:42:30Z</time>
      </trkpt>
      <trkpt lat="48.58451" lon="-2.45688">
        <ele>73</ele>
        <time>2018-06-03T06:42:34Z</time>
      </trkpt>
      <trkpt lat="48.58467" lon="-2.45712">
        <ele>73</ele>
        <time>2018-06-03T06:42:38Z</time>
      </trkpt>
      <trkpt lat="48.58485" lon="-2.45734">
        <ele>74</ele>
        <time>2018-06-03T06:42:42Z</time>
      </trkpt>
      <trkpt lat="48.58497" lon="-2.45755">
        <ele>74</ele>
        <time>2018-06-03T06:42:46Z</time>
      </trkpt>
      <trkpt lat="48.58506" lon="-2.45779">
        <ele>75</ele>
        <time>2018-06-03T06:42:50Z</time>
      </trkpt>
      <trkpt lat="48.5852" lon="-2.45803">
        <ele>76</ele>
        <time>2018-06-03T06:42:54Z</time>
      </trkpt>
      <trkpt lat="48.58535" lon="-2.45824">
        <ele>76</ele>
        <time>2018-06-03T06:42:58Z</time>
      </trkpt>
      <trkpt lat="48.58553" lon="-2.4584">
        <ele>77</ele>
        <time>2018-06-03T06:43:02Z</time>
      </trkpt>
      <trkpt lat="48.58575" lon="-2.4585">
        <ele>77</ele>
        <time>2018-06-03T06:43:06Z</time>
      </trkpt>
      <trkpt lat="48.58597" lon="-2.4586">
        <ele>76</ele>
        <time>2018-06-03T06:43:10Z</time>
      </trkpt>
      <trkpt lat="48.58622" lon="-2.45868">
        <ele>75</ele>
        <time>2018-06-03T06:43:14Z</time>
      </trkpt>
      <trkpt lat="48.58647" lon="-2.45877">
        <ele>75</ele>
        <time>2018-06-03T06:43:18Z</time>
      </trkpt>
      <trkpt lat="48.58671" lon="-2.45885">
        <ele>73</ele>
        <time>2018-06-03T06:43:22Z</time>
      </trkpt>
      <trkpt lat="48.58698" lon="-2.45895">
        <ele>73</ele>
        <time>2018-06-03T06:43:26Z</time>
      </trkpt>
      <trkpt lat="48.58727" lon="-2.459">
        <ele>72</ele>
        <time>2018-06-03T06:43:30Z</time>
      </trkpt>
      <trkpt lat="48.58756" lon="-2.45906">
        <ele>71</ele>
        <time>2018-06-03T06:43:34Z</time>
      </trkpt>
      <trkpt lat="48.58783" lon="-2.45918">
        <ele>70</ele>
        <time>2018-06-03T06:43:38Z</time>
      </trkpt>
      <trkpt lat="48.58811" lon="-2.45926">
        <ele>70</ele>
        <time>2018-06-03T06:43:42Z</time>
      </trkpt>
      <trkpt lat="48.58841" lon="-2.45937">
        <ele>68</ele>
        <time>2018-06-03T06:43:46Z</time>
      </trkpt>
      <trkpt lat="48.58871" lon="-2.45945">
        <ele>68</ele>
        <time>2018-06-03T06:43:50Z</time>
      </trkpt>
      <trkpt lat="48.58898" lon="-2.45961">
        <ele>67</ele>
        <time>2018-06-03T06:43:54Z</time>
      </trkpt>
      <trkpt lat="48.58911" lon="-2.45991">
        <ele>67</ele>
        <time>2018-06-03T06:43:58Z</time>
      </trkpt>
      <trkpt lat="48.58907" lon="-2.46027">
        <ele>67</ele>
        <time>2018-06-03T06:44:02Z</time>
      </trkpt>
      <trkpt lat="48.58903" lon="-2.46063">
        <ele>67</ele>
        <time>2018-06-03T06:44:06Z</time>
      </trkpt>
      <trkpt lat="48.58903" lon="-2.46101">
        <ele>66</ele>
        <time>2018-06-03T06:44:10Z</time>
      </trkpt>
      <trkpt lat="48.58909" lon="-2.46127">
        <ele>66</ele>
        <time>2018-06-03T06:44:14Z</time>
      </trkpt>
      <trkpt lat="48.58932" lon="-2.46134">
        <ele>65</ele>
        <time>2018-06-03T06:44:18Z</time>
      </trkpt>
      <trkpt lat="48.58956" lon="-2.46141">
        <ele>65</ele>
        <time>2018-06-03T06:44:22Z</time>
      </trkpt>
      <trkpt lat="48.58971" lon="-2.46156">
        <ele>65</ele>
        <time>2018-06-03T06:44:26Z</time>
      </trkpt>
      <trkpt lat="48.58992" lon="-2.4618">
        <ele>65</ele>
        <time>2018-06-03T06:44:30Z</time>
      </trkpt>
      <trkpt lat="48.58998" lon="-2.46202">
        <ele>64</ele>
        <time>2018-06-03T06:44:34Z</time>
      </trkpt>
      <trkpt lat="48.58986" lon="-2.46217">
        <ele>64</ele>
        <time>2018-06-03T06:44:38Z</time>
      </trkpt>
      <trkpt lat="48.58967" lon="-2.46228">
        <ele>64</ele>
        <time>2018-06-03T06:44:42Z</time>
      </trkpt>
      <trkpt lat="48.58941" lon="-2.46248">
        <ele>64</ele>
        <time>2018-06-03T06:44:46Z</time>
      </trkpt>
      <trkpt lat="48.58941" lon="-2.46284">
        <ele>65</ele>
        <time>2018-06-03T06:44:50Z</time>
      </trkpt>
      <trkpt lat="48.58944" lon="-2.46315">
        <ele>65</ele>
        <time>2018-06-03T06:44:54Z</time>
      </trkpt>
      <trkpt lat="48.58945" lon="-2.46349">
        <ele>66</ele>
        <time>2018-06-03T06:44:58Z</time>
      </trkpt>
      <trkpt lat="48.58943" lon="-2.46381">
        <ele>66</ele>
        <time>2018-06-03T06:45:02Z</time>
      </trkpt>
      <trkpt lat="48.58938" lon="-2.46412">
        <ele>67</ele>
        <time>2018-06-03T06:45:06Z</time>
      </trkpt>
      <trkpt lat="48.58931" lon="-2.46444">
        <ele>67</ele>
        <time>2018-06-03T06:45:10Z</time>
      </trkpt>
      <trkpt lat="48.58918" lon="-2.46468">
        <ele>68</ele>
        <time>2018-06-03T06:45:14Z</time>
      </trkpt>
      <trkpt lat="48.58898" lon="-2.46485">
        <ele>68</ele>
        <time>2018-06-03T06:45:18Z</time>
      </trkpt>
      <trkpt lat="48.58874" lon="-2.46493">
        <ele>68</ele>
        <time>2018-06-03T06:45:22Z</time>
      </trkpt>
      <trkpt lat="48.58849" lon="-2.46501">
        <ele>68</ele>
        <time>2018-06-03T06:45:26Z</time>
      </trkpt>
      <trkpt lat="48.58827" lon="-2.46508">
        <ele>68</ele>
        <time>2018-06-03T06:45:30Z</time>
      </trkpt>
      <trkpt lat="48.58801" lon="-2.4652">
        <ele>69</ele>
        <time>2018-06-03T06:45:34Z</time>
      </trkpt>
      <trkpt lat="48.58778" lon="-2.46534">
        <ele>69</ele>
        <time>2018-06-03T06:45:38Z</time>
      </trkpt>
      <trkpt lat="48.58753" lon="-2.46551">
        <ele>69</ele>
        <time>2018-06-03T06:45:42Z</time>
      </trkpt>
      <trkpt lat="48.58734" lon="-2.46568">
        <ele>69</ele>
        <time>2018-06-03T06:45:46Z</time>
      </trkpt>
      <trkpt lat="48.58721" lon="-2.46595">
        <ele>70</ele>
        <time>2018-06-03T06:45:50Z</time>
      </trkpt>
      <trkpt lat="48.58705" lon="-2.46623">
        <ele>70</ele>
        <time>2018-06-03T06:45:54Z</time>
      </trkpt>
      <trkpt lat="48.58691" lon="-2.46651">
        <ele>70</ele>
        <time>2018-06-03T06:45:58Z</time>
      </trkpt>
      <trkpt lat="48.58674" lon="-2.46674">
        <ele>71</ele>
        <time>2018-06-03T06:46:02Z</time>
      </trkpt>
      <trkpt lat="48.58656" lon="-2.467">
        <ele>72</ele>
        <time>2018-06-03T06:46:06Z</time>
      </trkpt>
      <trkpt lat="48.5864" lon="-2.46722">
        <ele>72</ele>
        <time>2018-06-03T06:46:10Z</time>
      </trkpt>
      <trkpt lat="48.58634" lon="-2.46756">
        <ele>72</ele>
        <time>2018-06-03T06:46:14Z</time>
      </trkpt>
      <trkpt lat="48.58626" lon="-2.46783">
        <ele>73</ele>
        <time>2018-06-03T06:46:18Z</time>
      </trkpt>
      <trkpt lat="48.58617" lon="-2.46818">
        <ele>73</ele>
        <time>2018-06-03T06:46:22Z</time>
      </trkpt>
      <trkpt lat="48.58606" lon="-2.46844">
        <ele>75</ele>
        <time>2018-06-03T06:46:26Z</time>
      </trkpt>
      <trkpt lat="48.58587" lon="-2.46859">
        <ele>75</ele>
        <time>2018-06-03T06:46:30Z</time>
      </trkpt>
      <trkpt lat="48.58566" lon="-2.46864">
        <ele>75</ele>
        <time>2018-06-03T06:46:34Z</time>
      </trkpt>
      <trkpt lat="48.58546" lon="-2.46869">
        <ele>76</ele>
        <time>2018-06-03T06:46:38Z</time>
      </trkpt>
      <trkpt lat="48.58525" lon="-2.46877">
        <ele>76</ele>
        <time>2018-06-03T06:46:42Z</time>
      </trkpt>
      <trkpt lat="48.58505" lon="-2.46892">
        <ele>76</ele>
        <time>2018-06-03T06:46:46Z</time>
      </trkpt>
      <trkpt lat="48.58482" lon="-2.46907">
        <ele>76</ele>
        <time>2018-06-03T06:46:50Z</time>
      </trkpt>
      <trkpt lat="48.58463" lon="-2.4692">
        <ele>77</ele>
        <time>2018-06-03T06:46:54Z</time>
      </trkpt>
      <trkpt lat="48.58442" lon="-2.4693">
        <ele>77</ele>
        <time>2018-06-03T06:46:58Z</time>
      </trkpt>
      <trkpt lat="48.58422" lon="-2.46944">
        <ele>77</ele>
        <time>2018-06-03T06:47:02Z</time>
      </trkpt>
      <trkpt lat="48.58402" lon="-2.46954">
        <ele>76</ele>
        <time>2018-06-03T06:47:06Z</time>
      </trkpt>
      <trkpt lat="48.5838" lon="-2.46957">
        <ele>76</ele>
        <time>2018-06-03T06:47:10Z</time>
      </trkpt>
      <trkpt lat="48.58366" lon="-2.46975">
        <ele>77</ele>
        <time>2018-06-03T06:47:14Z</time>
      </trkpt>
      <trkpt lat="48.58369" lon="-2.47008">
        <ele>77</ele>
        <time>2018-06-03T06:47:18Z</time>
      </trkpt>
      <trkpt lat="48.58371" lon="-2.4704">
        <ele>77</ele>
        <time>2018-06-03T06:47:22Z</time>
      </trkpt>
      <trkpt lat="48.58377" lon="-2.47068">
        <ele>77</ele>
        <time>2018-06-03T06:47:26Z</time>
      </trkpt>
      <trkpt lat="48.58382" lon="-2.47105">
        <ele>77</ele>
        <time>2018-06-03T06:47:30Z</time>
      </trkpt>
      <trkpt lat="48.5839" lon="-2.47142">
        <ele>76</ele>
        <time>2018-06-03T06:47:34Z</time>
      </trkpt>
      <trkpt lat="48.584" lon="-2.47183">
        <ele>76</ele>
        <time>2018-06-03T06:47:38Z</time>
      </trkpt>
      <trkpt lat="48.58414" lon="-2.4721">
        <ele>77</ele>
        <time>2018-06-03T06:47:42Z</time>
      </trkpt>
      <trkpt lat="48.58417" lon="-2.47242">
        <ele>77</ele>
        <time>2018-06-03T06:47:46Z</time>
      </trkpt>
      <trkpt lat="48.58425" lon="-2.47269">
        <ele>78</ele>
        <time>2018-06-03T06:47:50Z</time>
      </trkpt>
      <trkpt lat="48.58422" lon="-2.47299">
        <ele>78</ele>
        <time>2018-06-03T06:47:54Z</time>
      </trkpt>
      <trkpt lat="48.58422" lon="-2.47326">
        <ele>79</ele>
        <time>2018-06-03T06:47:58Z</time>
      </trkpt>
      <trkpt lat="48.58436" lon="-2.47351">
        <ele>80</ele>
        <time>2018-06-03T06:48:02Z</time>
      </trkpt>
      <trkpt lat="48.58447" lon="-2.47371">
        <ele>81</ele>
        <time>2018-06-03T06:48:06Z</time>
      </trkpt>
      <trkpt lat="48.58462" lon="-2.4739">
        <ele>81</ele>
        <time>2018-06-03T06:48:10Z</time>
      </trkpt>
      <trkpt lat="48.58469" lon="-2.47414">
        <ele>82</ele>
        <time>2018-06-03T06:48:14Z</time>
      </trkpt>
      <trkpt lat="48.58476" lon="-2.47432">
        <ele>84</ele>
        <time>2018-06-03T06:48:18Z</time>
      </trkpt>
      <trkpt lat="48.58479" lon="-2.47461">
        <ele>84</ele>
        <time>2018-06-03T06:48:22Z</time>
      </trkpt>
      <trkpt lat="48.5848" lon="-2.47486">
        <ele>85</ele>
        <time>2018-06-03T06:48:26Z</time>
      </trkpt>
      <trkpt lat="48.58474" lon="-2.47492">
        <ele>85</ele>
        <time>2018-06-03T06:48:30Z</time>
      </trkpt>
      <trkpt lat="48.58453" lon="-2.47495">
        <ele>85</ele>
        <time>2018-06-03T06:48:34Z</time>
      </trkpt>
      <trkpt lat="48.58437" lon="-2.47498">
        <ele>85</ele>
        <time>2018-06-03T06:48:38Z</time>
      </trkpt>
      <trkpt lat="48.58416" lon="-2.47502">
        <ele>85</ele>
        <time>2018-06-03T06:48:42Z</time>
      </trkpt>
      <trkpt lat="48.58394" lon="-2.47503">
        <ele>85</ele>
        <time>2018-06-03T06:48:46Z</time>
      </trkpt>
      <trkpt lat="48.58371" lon="-2.47501">
        <ele>85</ele>
        <time>2018-06-03T06:48:50Z</time>
      </trkpt>
      <trkpt lat="48.58349" lon="-2.47498">
        <ele>84</ele>
        <time>2018-06-03T06:48:54Z</time>
      </trkpt>
      <trkpt lat="48.58326" lon="-2.47496">
        <ele>83</ele>
        <time>2018-06-03T06:48:58Z</time>
      </trkpt>
      <trkpt lat="48.58304" lon="-2.47491">
        <ele>82</ele>
        <time>2018-06-03T06:49:02Z</time>
      </trkpt>
      <trkpt lat="48.58277" lon="-2.47491">
        <ele>82</ele>
        <time>2018-06-03T06:49:06Z</time>
      </trkpt>
      <trkpt lat="48.58254" lon="-2.475">
        <ele>82</ele>
        <time>2018-06-03T06:49:10Z</time>
      </trkpt>
      <trkpt lat="48.58234" lon="-2.47517">
        <ele>83</ele>
        <time>2018-06-03T06:49:14Z</time>
      </trkpt>
      <trkpt lat="48.58216" lon="-2.4754">
        <ele>83</ele>
        <time>2018-06-03T06:49:18Z</time>
      </trkpt>
      <trkpt lat="48.58206" lon="-2.47562">
        <ele>84</ele>
        <time>2018-06-03T06:49:22Z</time>
      </trkpt>
      <trkpt lat="48.5819" lon="-2.47575">
        <ele>84</ele>
        <time>2018-06-03T06:49:26Z</time>
      </trkpt>
      <trkpt lat="48.58173" lon="-2.47584">
        <ele>85</ele>
        <time>2018-06-03T06:49:30Z</time>
      </trkpt>
      <trkpt lat="48.58149" lon="-2.476">
        <ele>86</ele>
        <time>2018-06-03T06:49:34Z</time>
      </trkpt>
      <trkpt lat="48.58127" lon="-2.47615">
        <ele>86</ele>
        <time>2018-06-03T06:49:38Z</time>
      </trkpt>
      <trkpt lat="48.58109" lon="-2.47631">
        <ele>86</ele>
        <time>2018-06-03T06:49:42Z</time>
      </trkpt>
      <trkpt lat="48.58091" lon="-2.47649">
        <ele>86</ele>
        <time>2018-06-03T06:49:46Z</time>
      </trkpt>
      <trkpt lat="48.58077" lon="-2.47676">
        <ele>87</ele>
        <time>2018-06-03T06:49:50Z</time>
      </trkpt>
      <trkpt lat="48.58069" lon="-2.47713">
        <ele>88</ele>
        <time>2018-06-03T06:49:54Z</time>
      </trkpt>
      <trkpt lat="48.58073" lon="-2.47748">
        <ele>88</ele>
        <time>2018-06-03T06:49:58Z</time>
      </trkpt>
      <trkpt lat="48.58081" lon="-2.47781">
        <ele>89</ele>
        <time>2018-06-03T06:50:02Z</time>
      </trkpt>
      <trkpt lat="48.58086" lon="-2.4781">
        <ele>89</ele>
        <time>2018-06-03T06:50:06Z</time>
      </trkpt>
      <trkpt lat="48.5809" lon="-2.47837">
        <ele>90</ele>
        <time>2018-06-03T06:50:10Z</time>
      </trkpt>
      <trkpt lat="48.58108" lon="-2.47853">
        <ele>91</ele>
        <time>2018-06-03T06:50:14Z</time>
      </trkpt>
      <trkpt lat="48.5813" lon="-2.47853">
        <ele>91</ele>
        <time>2018-06-03T06:50:18Z</time>
      </trkpt>
      <trkpt lat="48.58152" lon="-2.47847">
        <ele>91</ele>
        <time>2018-06-03T06:50:22Z</time>
      </trkpt>
      <trkpt lat="48.58171" lon="-2.4784">
        <ele>90</ele>
        <time>2018-06-03T06:50:26Z</time>
      </trkpt>
      <trkpt lat="48.58194" lon="-2.47832">
        <ele>90</ele>
        <time>2018-06-03T06:50:30Z</time>
      </trkpt>
      <trkpt lat="48.58215" lon="-2.47825">
        <ele>90</ele>
        <time>2018-06-03T06:50:34Z</time>
      </trkpt>
      <trkpt lat="48.58236" lon="-2.47825">
        <ele>90</ele>
        <time>2018-06-03T06:50:38Z</time>
      </trkpt>
      <trkpt lat="48.5826" lon="-2.47821">
        <ele>91</ele>
        <time>2018-06-03T06:50:42Z</time>
      </trkpt>
      <trkpt lat="48.58283" lon="-2.47823">
        <ele>91</ele>
        <time>2018-06-03T06:50:46Z</time>
      </trkpt>
      <trkpt lat="48.58301" lon="-2.47822">
        <ele>91</ele>
        <time>2018-06-03T06:50:50Z</time>
      </trkpt>
      <trkpt lat="48.5831" lon="-2.47835">
        <ele>92</ele>
        <time>2018-06-03T06:50:54Z</time>
      </trkpt>
      <trkpt lat="48.58299" lon="-2.47857">
        <ele>92</ele>
        <time>2018-06-03T06:50:58Z</time>
      </trkpt>
      <trkpt lat="48.58287" lon="-2.47879">
        <ele>92</ele>
        <time>2018-06-03T06:51:02Z</time>
      </trkpt>
      <trkpt lat="48.58277" lon="-2.47895">
        <ele>92</ele>
        <time>2018-06-03T06:51:06Z</time>
      </trkpt>
      <trkpt lat="48.58268" lon="-2.47907">
        <ele>92</ele>
        <time>2018-06-03T06:51:10Z</time>
      </trkpt>
      <trkpt lat="48.58259" lon="-2.47923">
        <ele>92</ele>
        <time>2018-06-03T06:51:14Z</time>
      </trkpt>
      <trkpt lat="48.58248" lon="-2.47939">
        <ele>92</ele>
        <time>2018-06-03T06:51:18Z</time>
      </trkpt>
      <trkpt lat="48.58234" lon="-2.47956">
        <ele>92</ele>
        <time>2018-06-03T06:51:22Z</time>
      </trkpt>
      <trkpt lat="48.5822" lon="-2.47973">
        <ele>93</ele>
        <time>2018-06-03T06:51:26Z</time>
      </trkpt>
      <trkpt lat="48.5821" lon="-2.47987">
        <ele>93</ele>
        <time>2018-06-03T06:51:30Z</time>
      </trkpt>
      <trkpt lat="48.58197" lon="-2.48002">
        <ele>93</ele>
        <time>2018-06-03T06:51:34Z</time>
      </trkpt>
      <trkpt lat="48.58178" lon="-2.48018">
        <ele>93</ele>
        <time>2018-06-03T06:51:38Z</time>
      </trkpt>
      <trkpt lat="48.58163" lon="-2.48031">
        <ele>93</ele>
        <time>2018-06-03T06:51:42Z</time>
      </trkpt>
      <trkpt lat="48.58149" lon="-2.48048">
        <ele>93</ele>
        <time>2018-06-03T06:51:46Z</time>
      </trkpt>
      <trkpt lat="48.58143" lon="-2.48068">
        <ele>93</ele>
        <time>2018-06-03T06:51:50Z</time>
      </trkpt>
      <trkpt lat="48.58133" lon="-2.48093">
        <ele>94</ele>
        <time>2018-06-03T06:51:54Z</time>
      </trkpt>
      <trkpt lat="48.58128" lon="-2.48114">
        <ele>94</ele>
        <time>2018-06-03T06:51:58Z</time>
      </trkpt>
      <trkpt lat="48.58124" lon="-2.48138">
        <ele>94</ele>
        <time>2018-06-03T06:52:02Z</time>
      </trkpt>
      <trkpt lat="48.58116" lon="-2.48158">
        <ele>95</ele>
        <time>2018-06-03T06:52:06Z</time>
      </trkpt>
      <trkpt lat="48.58106" lon="-2.48183">
        <ele>95</ele>
        <time>2018-06-03T06:52:10Z</time>
      </trkpt>
      <trkpt lat="48.58097" lon="-2.4821">
        <ele>95</ele>
        <time>2018-06-03T06:52:14Z</time>
      </trkpt>
      <trkpt lat="48.58092" lon="-2.48237">
        <ele>95</ele>
        <time>2018-06-03T06:52:18Z</time>
      </trkpt>
      <trkpt lat="48.58107" lon="-2.48257">
        <ele>95</ele>
        <time>2018-06-03T06:52:22Z</time>
      </trkpt>
      <trkpt lat="48.58121" lon="-2.48274">
        <ele>96</ele>
        <time>2018-06-03T06:52:26Z</time>
      </trkpt>
      <trkpt lat="48.58135" lon="-2.48295">
        <ele>96</ele>
        <time>2018-06-03T06:52:30Z</time>
      </trkpt>
      <trkpt lat="48.58153" lon="-2.48315">
        <ele>96</ele>
        <time>2018-06-03T06:52:34Z</time>
      </trkpt>
      <trkpt lat="48.58172" lon="-2.48339">
        <ele>97</ele>
        <time>2018-06-03T06:52:38Z</time>
      </trkpt>
      <trkpt lat="48.58191" lon="-2.48358">
        <ele>96</ele>
        <time>2018-06-03T06:52:42Z</time>
      </trkpt>
      <trkpt lat="48.58209" lon="-2.48375">
        <ele>96</ele>
        <time>2018-06-03T06:52:46Z</time>
      </trkpt>
      <trkpt lat="48.58227" lon="-2.48395">
        <ele>96</ele>
        <time>2018-06-03T06:52:50Z</time>
      </trkpt>
      <trkpt lat="48.58242" lon="-2.48417">
        <ele>95</ele>
        <time>2018-06-03T06:52:54Z</time>
      </trkpt>
      <trkpt lat="48.58251" lon="-2.4845">
        <ele>95</ele>
        <time>2018-06-03T06:52:58Z</time>
      </trkpt>
      <trkpt lat="48.58247" lon="-2.48486">
        <ele>95</ele>
        <time>2018-06-03T06:53:02Z</time>
      </trkpt>
      <trkpt lat="48.58247" lon="-2.48519">
        <ele>96</ele>
        <time>2018-06-03T06:53:06Z</time>
      </trkpt>
      <trkpt lat="48.58241" lon="-2.4855">
        <ele>96</ele>
        <time>2018-06-03T06:53:10Z</time>
      </trkpt>
      <trkpt lat="48.58225" lon="-2.48573">
        <ele>97</ele>
        <time>2018-06-03T06:53:14Z</time>
      </trkpt>
      <trkpt lat="48.58206" lon="-2.48593">
        <ele>98</ele>
        <time>2018-06-03T06:53:18Z</time>
      </trkpt>
      <trkpt lat="48.58187" lon="-2.48614">
        <ele>98</ele>
        <time>2018-06-03T06:53:22Z</time>
      </trkpt>
      <trkpt lat="48.58171" lon="-2.48635">
        <ele>98</ele>
        <time>2018-06-03T06:53:26Z</time>
      </trkpt>
      <trkpt lat="48.58158" lon="-2.48655">
        <ele>99</ele>
        <time>2018-06-03T06:53:30Z</time>
      </trkpt>
      <trkpt lat="48.58155" lon="-2.48685">
        <ele>99</ele>
        <time>2018-06-03T06:53:34Z</time>
      </trkpt>
      <trkpt lat="48.58165" lon="-2.48715">
        <ele>99</ele>
        <time>2018-06-03T06:53:38Z</time>
      </trkpt>
      <trkpt lat="48.58174" lon="-2.48743">
        <ele>99</ele>
        <time>2018-06-03T06:53:42Z</time>
      </trkpt>
      <trkpt lat="48.58184" lon="-2.48771">
        <ele>99</ele>
        <time>2018-06-03T06:53:46Z</time>
      </trkpt>
      <trkpt lat="48.58196" lon="-2.48796">
        <ele>99</ele>
        <time>2018-06-03T06:53:50Z</time>
      </trkpt>
      <trkpt lat="48.58209" lon="-2.48824">
        <ele>99</ele>
        <time>2018-06-03T06:53:54Z</time>
      </trkpt>
      <trkpt lat="48.58222" lon="-2.48857">
        <ele>99</ele>
        <time>2018-06-03T06:53:58Z</time>
      </trkpt>
      <trkpt lat="48.58231" lon="-2.48882">
        <ele>99</ele>
        <time>2018-06-03T06:54:02Z</time>
      </trkpt>
      <trkpt lat="48.58244" lon="-2.48873">
        <ele>99</ele>
        <time>2018-06-03T06:54:06Z</time>
      </trkpt>
      <trkpt lat="48.58263" lon="-2.48852">
        <ele>98</ele>
        <time>2018-06-03T06:54:10Z</time>
      </trkpt>
      <trkpt lat="48.58285" lon="-2.48834">
        <ele>98</ele>
        <time>2018-06-03T06:54:14Z</time>
      </trkpt>
      <trkpt lat="48.58306" lon="-2.48817">
        <ele>97</ele>
        <time>2018-06-03T06:54:18Z</time>
      </trkpt>
      <trkpt lat="48.58331" lon="-2.48802">
        <ele>97</ele>
        <time>2018-06-03T06:54:22Z</time>
      </trkpt>
      <trkpt lat="48.58354" lon="-2.48789">
        <ele>96</ele>
        <time>2018-06-03T06:54:26Z</time>
      </trkpt>
      <trkpt lat="48.58377" lon="-2.48784">
        <ele>96</ele>
        <time>2018-06-03T06:54:30Z</time>
      </trkpt>
      <trkpt lat="48.58399" lon="-2.48783">
        <ele>96</ele>
        <time>2018-06-03T06:54:34Z</time>
      </trkpt>
      <trkpt lat="48.58421" lon="-2.48783">
        <ele>97</ele>
        <time>2018-06-03T06:54:38Z</time>
      </trkpt>
      <trkpt lat="48.5844" lon="-2.4878">
        <ele>97</ele>
        <time>2018-06-03T06:54:42Z</time>
      </trkpt>
      <trkpt lat="48.58459" lon="-2.48785">
        <ele>97</ele>
        <time>2018-06-03T06:54:46Z</time>
      </trkpt>
      <trkpt lat="48.58478" lon="-2.48788">
        <ele>97</ele>
        <time>2018-06-03T06:54:50Z</time>
      </trkpt>
      <trkpt lat="48.58495" lon="-2.48794">
        <ele>97</ele>
        <time>2018-06-03T06:54:54Z</time>
      </trkpt>
      <trkpt lat="48.5851" lon="-2.4881">
        <ele>99</ele>
        <time>2018-06-03T06:54:58Z</time>
      </trkpt>
      <trkpt lat="48.58527" lon="-2.48828">
        <ele>99</ele>
        <time>2018-06-03T06:55:02Z</time>
      </trkpt>
      <trkpt lat="48.5854" lon="-2.48847">
        <ele>101</ele>
        <time>2018-06-03T06:55:06Z</time>
      </trkpt>
      <trkpt lat="48.58557" lon="-2.48867">
        <ele>101</ele>
        <time>2018-06-03T06:55:10Z</time>
      </trkpt>
      <trkpt lat="48.58569" lon="-2.48886">
        <ele>101</ele>
        <time>2018-06-03T06:55:14Z</time>
      </trkpt>
      <trkpt lat="48.58589" lon="-2.48906">
        <ele>103</ele>
        <time>2018-06-03T06:55:18Z</time>
      </trkpt>
      <trkpt lat="48.58599" lon="-2.48932">
        <ele>103</ele>
        <time>2018-06-03T06:55:22Z</time>
      </trkpt>
      <trkpt lat="48.58612" lon="-2.48948">
        <ele>103</ele>
        <time>2018-06-03T06:55:26Z</time>
      </trkpt>
      <trkpt lat="48.58625" lon="-2.48968">
        <ele>103</ele>
        <time>2018-06-03T06:55:30Z</time>
      </trkpt>
      <trkpt lat="48.58641" lon="-2.48984">
        <ele>103</ele>
        <time>2018-06-03T06:55:34Z</time>
      </trkpt>
      <trkpt lat="48.58652" lon="-2.49006">
        <ele>103</ele>
        <time>2018-06-03T06:55:38Z</time>
      </trkpt>
      <trkpt lat="48.58668" lon="-2.49027">
        <ele>103</ele>
        <time>2018-06-03T06:55:42Z</time>
      </trkpt>
      <trkpt lat="48.58667" lon="-2.49056">
        <ele>102</ele>
        <time>2018-06-03T06:55:46Z</time>
      </trkpt>
      <trkpt lat="48.58662" lon="-2.49082">
        <ele>101</ele>
        <time>2018-06-03T06:55:50Z</time>
      </trkpt>
      <trkpt lat="48.58658" lon="-2.49103">
        <ele>102</ele>
        <time>2018-06-03T06:55:54Z</time>
      </trkpt>
      <trkpt lat="48.5865" lon="-2.49127">
        <ele>103</ele>
        <time>2018-06-03T06:55:58Z</time>
      </trkpt>
      <trkpt lat="48.58644" lon="-2.49151">
        <ele>103</ele>
        <time>2018-06-03T06:56:02Z</time>
      </trkpt>
      <trkpt lat="48.5864" lon="-2.49172">
        <ele>104</ele>
        <time>2018-06-03T06:56:06Z</time>
      </trkpt>
      <trkpt lat="48.58634" lon="-2.49194">
        <ele>104</ele>
        <time>2018-06-03T06:56:10Z</time>
      </trkpt>
      <trkpt lat="48.58632" lon="-2.49217">
        <ele>105</ele>
        <time>2018-06-03T06:56:14Z</time>
      </trkpt>
      <trkpt lat="48.58622" lon="-2.49246">
        <ele>105</ele>
        <time>2018-06-03T06:56:18Z</time>
      </trkpt>
      <trkpt lat="48.58616" lon="-2.49272">
        <ele>106</ele>
        <time>2018-06-03T06:56:22Z</time>
      </trkpt>
      <trkpt lat="48.58608" lon="-2.49296">
        <ele>106</ele>
        <time>2018-06-03T06:56:26Z</time>
      </trkpt>
      <trkpt lat="48.58599" lon="-2.49322">
        <ele>106</ele>
        <time>2018-06-03T06:56:30Z</time>
      </trkpt>
      <trkpt lat="48.58591" lon="-2.49344">
        <ele>106</ele>
        <time>2018-06-03T06:56:34Z</time>
      </trkpt>
      <trkpt lat="48.58588" lon="-2.49368">
        <ele>107</ele>
        <time>2018-06-03T06:56:38Z</time>
      </trkpt>
      <trkpt lat="48.58583" lon="-2.49392">
        <ele>107</ele>
        <time>2018-06-03T06:56:42Z</time>
      </trkpt>
      <trkpt lat="48.58576" lon="-2.49413">
        <ele>107</ele>
        <time>2018-06-03T06:56:46Z</time>
      </trkpt>
      <trkpt lat="48.5857" lon="-2.49437">
        <ele>107</ele>
        <time>2018-06-03T06:56:50Z</time>
      </trkpt>
      <trkpt lat="48.58563" lon="-2.49461">
        <ele>108</ele>
        <time>2018-06-03T06:56:54Z</time>
      </trkpt>
      <trkpt lat="48.58553" lon="-2.49483">
        <ele>108</ele>
        <time>2018-06-03T06:56:58Z</time>
      </trkpt>
      <trkpt lat="48.58546" lon="-2.49503">
        <ele>109</ele>
        <time>2018-06-03T06:57:02Z</time>
      </trkpt>
      <trkpt lat="48.58543" lon="-2.49522">
        <ele>109</ele>
        <time>2018-06-03T06:57:06Z</time>
      </trkpt>
      <trkpt lat="48.5854" lon="-2.4954">
        <ele>109</ele>
        <time>2018-06-03T06:57:10Z</time>
      </trkpt>
      <trkpt lat="48.58534" lon="-2.49556">
        <ele>109</ele>
        <time>2018-06-03T06:57:14Z</time>
      </trkpt>
      <trkpt lat="48.58527" lon="-2.49574">
        <ele>109</ele>
        <time>2018-06-03T06:57:18Z</time>
      </trkpt>
      <trkpt lat="48.58515" lon="-2.49577">
        <ele>110</ele>
        <time>2018-06-03T06:57:22Z</time>
      </trkpt>
      <trkpt lat="48.58505" lon="-2.49568">
        <ele>110</ele>
        <time>2018-06-03T06:57:26Z</time>
      </trkpt>
      <trkpt lat="48.58494" lon="-2.49557">
        <ele>110</ele>
        <time>2018-06-03T06:57:30Z</time>
      </trkpt>
      <trkpt lat="48.58478" lon="-2.4954">
        <ele>110</ele>
        <time>2018-06-03T06:57:34Z</time>
      </trkpt>
      <trkpt lat="48.58463" lon="-2.49524">
        <ele>110</ele>
        <time>2018-06-03T06:57:38Z</time>
      </trkpt>
      <trkpt lat="48.58452" lon="-2.49504">
        <ele>110</ele>
        <time>2018-06-03T06:57:42Z</time>
      </trkpt>
      <trkpt lat="48.58438" lon="-2.49485">
        <ele>109</ele>
        <time>2018-06-03T06:57:46Z</time>
      </trkpt>
      <trkpt lat="48.58429" lon="-2.49472">
        <ele>109</ele>
        <time>2018-06-03T06:57:50Z</time>
      </trkpt>
      <trkpt lat="48.58416" lon="-2.49457">
        <ele>111</ele>
        <time>2018-06-03T06:57:54Z</time>
      </trkpt>
      <trkpt lat="48.58407" lon="-2.49447">
        <ele>111</ele>
        <time>2018-06-03T06:57:58Z</time>
      </trkpt>
      <trkpt lat="48.584" lon="-2.49457">
        <ele>111</ele>
        <time>2018-06-03T06:58:02Z</time>
      </trkpt>
      <trkpt lat="48.58402" lon="-2.4947">
        <ele>111</ele>
        <time>2018-06-03T06:58:06Z</time>
      </trkpt>
      <trkpt lat="48.58399" lon="-2.49489">
        <ele>111</ele>
        <time>2018-06-03T06:58:10Z</time>
      </trkpt>
      <trkpt lat="48.58399" lon="-2.49506">
        <ele>112</ele>
        <time>2018-06-03T06:58:14Z</time>
      </trkpt>
      <trkpt lat="48.58388" lon="-2.4953">
        <ele>113</ele>
        <time>2018-06-03T06:58:18Z</time>
      </trkpt>
      <trkpt lat="48.58383" lon="-2.49551">
        <ele>113</ele>
        <time>2018-06-03T06:58:22Z</time>
      </trkpt>
      <trkpt lat="48.58387" lon="-2.49571">
        <ele>113</ele>
        <time>2018-06-03T06:58:26Z</time>
      </trkpt>
      <trkpt lat="48.58385" lon="-2.49586">
        <ele>114</ele>
        <time>2018-06-03T06:58:30Z</time>
      </trkpt>
      <trkpt lat="48.58379" lon="-2.49607">
        <ele>114</ele>
        <time>2018-06-03T06:58:34Z</time>
      </trkpt>
      <trkpt lat="48.5836" lon="-2.4965">
        <ele>114</ele>
        <time>2018-06-03T06:58:42Z</time>
      </trkpt>
      <trkpt lat="48.58361" lon="-2.49665">
        <ele>114</ele>
        <time>2018-06-03T06:58:50Z</time>
      </trkpt>
      <trkpt lat="48.58354" lon="-2.49692">
        <ele>114</ele>
        <time>2018-06-03T06:58:54Z</time>
      </trkpt>
      <trkpt lat="48.58352" lon="-2.49715">
        <ele>114</ele>
        <time>2018-06-03T06:58:58Z</time>
      </trkpt>
      <trkpt lat="48.58345" lon="-2.49756">
        <ele>114</ele>
        <time>2018-06-03T06:59:02Z</time>
      </trkpt>
      <trkpt lat="48.58343" lon="-2.49773">
        <ele>114</ele>
        <time>2018-06-03T06:59:10Z</time>
      </trkpt>
      <trkpt lat="48.58342" lon="-2.49796">
        <ele>114</ele>
        <time>2018-06-03T06:59:14Z</time>
      </trkpt>
      <trkpt lat="48.58337" lon="-2.49816">
        <ele>114</ele>
        <time>2018-06-03T06:59:18Z</time>
      </trkpt>
      <trkpt lat="48.58334" lon="-2.49838">
        <ele>114</ele>
        <time>2018-06-03T06:59:22Z</time>
      </trkpt>
      <trkpt lat="48.58334" lon="-2.49864">
        <ele>115</ele>
        <time>2018-06-03T06:59:26Z</time>
      </trkpt>
      <trkpt lat="48.58324" lon="-2.49877">
        <ele>116</ele>
        <time>2018-06-03T06:59:30Z</time>
      </trkpt>
      <trkpt lat="48.5831" lon="-2.49876">
        <ele>116</ele>
        <time>2018-06-03T06:59:34Z</time>
      </trkpt>
      <trkpt lat="48.583" lon="-2.49878">
        <ele>116</ele>
        <time>2018-06-03T06:59:38Z</time>
      </trkpt>
      <trkpt lat="48.58289" lon="-2.49887">
        <ele>116</ele>
        <time>2018-06-03T06:59:42Z</time>
      </trkpt>
      <trkpt lat="48.5829" lon="-2.49906">
        <ele>117</ele>
        <time>2018-06-03T06:59:46Z</time>
      </trkpt>
      <trkpt lat="48.58293" lon="-2.49924">
        <ele>117</ele>
        <time>2018-06-03T06:59:50Z</time>
      </trkpt>
      <trkpt lat="48.58294" lon="-2.49948">
        <ele>117</ele>
        <time>2018-06-03T06:59:54Z</time>
      </trkpt>
      <trkpt lat="48.5829" lon="-2.49969">
        <ele>118</ele>
        <time>2018-06-03T06:59:58Z</time>
      </trkpt>
      <trkpt lat="48.58299" lon="-2.50016">
        <ele>117</ele>
        <time>2018-06-03T07:00:02Z</time>
      </trkpt>
      <trkpt lat="48.58304" lon="-2.50029">
        <ele>117</ele>
        <time>2018-06-03T07:00:06Z</time>
      </trkpt>
      <trkpt lat="48.58305" lon="-2.50037">
        <ele>117</ele>
        <time>2018-06-03T07:00:14Z</time>
      </trkpt>
      <trkpt lat="48.58307" lon="-2.5006">
        <ele>117</ele>
        <time>2018-06-03T07:00:22Z</time>
      </trkpt>
      <trkpt lat="48.5831" lon="-2.5009">
        <ele>116</ele>
        <time>2018-06-03T07:00:26Z</time>
      </trkpt>
      <trkpt lat="48.58314" lon="-2.50122">
        <ele>116</ele>
        <time>2018-06-03T07:00:30Z</time>
      </trkpt>
      <trkpt lat="48.58317" lon="-2.50153">
        <ele>115</ele>
        <time>2018-06-03T07:00:34Z</time>
      </trkpt>
      <trkpt lat="48.58319" lon="-2.50181">
        <ele>114</ele>
        <time>2018-06-03T07:00:38Z</time>
      </trkpt>
      <trkpt lat="48.58321" lon="-2.50212">
        <ele>114</ele>
        <time>2018-06-03T07:00:42Z</time>
      </trkpt>
      <trkpt lat="48.58315" lon="-2.5025">
        <ele>114</ele>
        <time>2018-06-03T07:00:46Z</time>
      </trkpt>
      <trkpt lat="48.58306" lon="-2.50283">
        <ele>113</ele>
        <time>2018-06-03T07:00:50Z</time>
      </trkpt>
      <trkpt lat="48.58298" lon="-2.50314">
        <ele>113</ele>
        <time>2018-06-03T07:00:54Z</time>
      </trkpt>
      <trkpt lat="48.58292" lon="-2.50345">
        <ele>112</ele>
        <time>2018-06-03T07:00:58Z</time>
      </trkpt>
      <trkpt lat="48.58284" lon="-2.50375">
        <ele>112</ele>
        <time>2018-06-03T07:01:02Z</time>
      </trkpt>
      <trkpt lat="48.5827" lon="-2.5037">
        <ele>112</ele>
        <time>2018-06-03T07:01:06Z</time>
      </trkpt>
      <trkpt lat="48.58255" lon="-2.50357">
        <ele>112</ele>
        <time>2018-06-03T07:01:10Z</time>
      </trkpt>
      <trkpt lat="48.58238" lon="-2.50345">
        <ele>112</ele>
        <time>2018-06-03T07:01:14Z</time>
      </trkpt>
      <trkpt lat="48.58219" lon="-2.50334">
        <ele>112</ele>
        <time>2018-06-03T07:01:18Z</time>
      </trkpt>
      <trkpt lat="48.58201" lon="-2.50327">
        <ele>112</ele>
        <time>2018-06-03T07:01:22Z</time>
      </trkpt>
      <trkpt lat="48.58183" lon="-2.50316">
        <ele>112</ele>
        <time>2018-06-03T07:01:26Z</time>
      </trkpt>
      <trkpt lat="48.5817" lon="-2.50302">
        <ele>112</ele>
        <time>2018-06-03T07:01:30Z</time>
      </trkpt>
      <trkpt lat="48.58154" lon="-2.50286">
        <ele>112</ele>
        <time>2018-06-03T07:01:34Z</time>
      </trkpt>
      <trkpt lat="48.58136" lon="-2.50286">
        <ele>112</ele>
        <time>2018-06-03T07:01:38Z</time>
      </trkpt>
      <trkpt lat="48.58116" lon="-2.50283">
        <ele>113</ele>
        <time>2018-06-03T07:01:42Z</time>
      </trkpt>
      <trkpt lat="48.581" lon="-2.50271">
        <ele>113</ele>
        <time>2018-06-03T07:01:46Z</time>
      </trkpt>
      <trkpt lat="48.58085" lon="-2.50262">
        <ele>113</ele>
        <time>2018-06-03T07:01:50Z</time>
      </trkpt>
      <trkpt lat="48.58072" lon="-2.50243">
        <ele>114</ele>
        <time>2018-06-03T07:01:54Z</time>
      </trkpt>
      <trkpt lat="48.58055" lon="-2.50232">
        <ele>114</ele>
        <time>2018-06-03T07:01:58Z</time>
      </trkpt>
      <trkpt lat="48.58043" lon="-2.50225">
        <ele>115</ele>
        <time>2018-06-03T07:02:02Z</time>
      </trkpt>
      <trkpt lat="48.58029" lon="-2.50236">
        <ele>115</ele>
        <time>2018-06-03T07:02:06Z</time>
      </trkpt>
      <trkpt lat="48.58021" lon="-2.50254">
        <ele>115</ele>
        <time>2018-06-03T07:02:10Z</time>
      </trkpt>
      <trkpt lat="48.58013" lon="-2.50282">
        <ele>115</ele>
        <time>2018-06-03T07:02:14Z</time>
      </trkpt>
      <trkpt lat="48.58004" lon="-2.50309">
        <ele>115</ele>
        <time>2018-06-03T07:02:18Z</time>
      </trkpt>
      <trkpt lat="48.57993" lon="-2.50335">
        <ele>115</ele>
        <time>2018-06-03T07:02:22Z</time>
      </trkpt>
      <trkpt lat="48.57983" lon="-2.50363">
        <ele>115</ele>
        <time>2018-06-03T07:02:26Z</time>
      </trkpt>
      <trkpt lat="48.57971" lon="-2.50394">
        <ele>115</ele>
        <time>2018-06-03T07:02:30Z</time>
      </trkpt>
      <trkpt lat="48.5796" lon="-2.50424">
        <ele>114</ele>
        <time>2018-06-03T07:02:34Z</time>
      </trkpt>
      <trkpt lat="48.57946" lon="-2.50449">
        <ele>114</ele>
        <time>2018-06-03T07:02:38Z</time>
      </trkpt>
      <trkpt lat="48.57933" lon="-2.50474">
        <ele>114</ele>
        <time>2018-06-03T07:02:42Z</time>
      </trkpt>
      <trkpt lat="48.5792" lon="-2.50506">
        <ele>114</ele>
        <time>2018-06-03T07:02:46Z</time>
      </trkpt>
      <trkpt lat="48.57912" lon="-2.50538">
        <ele>113</ele>
        <time>2018-06-03T07:02:50Z</time>
      </trkpt>
      <trkpt lat="48.57907" lon="-2.5057">
        <ele>113</ele>
        <time>2018-06-03T07:02:54Z</time>
      </trkpt>
      <trkpt lat="48.57903" lon="-2.50602">
        <ele>112</ele>
        <time>2018-06-03T07:02:58Z</time>
      </trkpt>
      <trkpt lat="48.57894" lon="-2.50635">
        <ele>112</ele>
        <time>2018-06-03T07:03:02Z</time>
      </trkpt>
      <trkpt lat="48.57887" lon="-2.50667">
        <ele>112</ele>
        <time>2018-06-03T07:03:06Z</time>
      </trkpt>
      <trkpt lat="48.57881" lon="-2.507">
        <ele>111</ele>
        <time>2018-06-03T07:03:10Z</time>
      </trkpt>
      <trkpt lat="48.57884" lon="-2.50736">
        <ele>111</ele>
        <time>2018-06-03T07:03:14Z</time>
      </trkpt>
      <trkpt lat="48.57888" lon="-2.50776">
        <ele>110</ele>
        <time>2018-06-03T07:03:18Z</time>
      </trkpt>
      <trkpt lat="48.57893" lon="-2.50816">
        <ele>110</ele>
        <time>2018-06-03T07:03:22Z</time>
      </trkpt>
      <trkpt lat="48.57899" lon="-2.50859">
        <ele>110</ele>
        <time>2018-06-03T07:03:26Z</time>
      </trkpt>
      <trkpt lat="48.57906" lon="-2.50896">
        <ele>110</ele>
        <time>2018-06-03T07:03:30Z</time>
      </trkpt>
      <trkpt lat="48.57912" lon="-2.50931">
        <ele>109</ele>
        <time>2018-06-03T07:03:34Z</time>
      </trkpt>
      <trkpt lat="48.57917" lon="-2.50966">
        <ele>108</ele>
        <time>2018-06-03T07:03:38Z</time>
      </trkpt>
      <trkpt lat="48.57916" lon="-2.51005">
        <ele>107</ele>
        <time>2018-06-03T07:03:42Z</time>
      </trkpt>
      <trkpt lat="48.57918" lon="-2.51041">
        <ele>106</ele>
        <time>2018-06-03T07:03:46Z</time>
      </trkpt>
      <trkpt lat="48.57917" lon="-2.5108">
        <ele>106</ele>
        <time>2018-06-03T07:03:50Z</time>
      </trkpt>
      <trkpt lat="48.57919" lon="-2.51113">
        <ele>106</ele>
        <time>2018-06-03T07:03:54Z</time>
      </trkpt>
      <trkpt lat="48.57926" lon="-2.5115">
        <ele>107</ele>
        <time>2018-06-03T07:03:58Z</time>
      </trkpt>
      <trkpt lat="48.57933" lon="-2.51185">
        <ele>107</ele>
        <time>2018-06-03T07:04:02Z</time>
      </trkpt>
      <trkpt lat="48.57938" lon="-2.51218">
        <ele>106</ele>
        <time>2018-06-03T07:04:06Z</time>
      </trkpt>
      <trkpt lat="48.57933" lon="-2.51237">
        <ele>107</ele>
        <time>2018-06-03T07:04:10Z</time>
      </trkpt>
      <trkpt lat="48.57917" lon="-2.51245">
        <ele>108</ele>
        <time>2018-06-03T07:04:14Z</time>
      </trkpt>
      <trkpt lat="48.57903" lon="-2.51259">
        <ele>109</ele>
        <time>2018-06-03T07:04:18Z</time>
      </trkpt>
      <trkpt lat="48.5791" lon="-2.51283">
        <ele>110</ele>
        <time>2018-06-03T07:04:22Z</time>
      </trkpt>
      <trkpt lat="48.57912" lon="-2.51288">
        <ele>110</ele>
        <time>2018-06-03T07:04:26Z</time>
      </trkpt>
      <trkpt lat="48.57903" lon="-2.51292">
        <ele>110</ele>
        <time>2018-06-03T07:04:30Z</time>
      </trkpt>
      <trkpt lat="48.57896" lon="-2.51293">
        <ele>110</ele>
        <time>2018-06-03T07:04:34Z</time>
      </trkpt>
      <trkpt lat="48.57896" lon="-2.51307">
        <ele>110</ele>
        <time>2018-06-03T07:04:38Z</time>
      </trkpt>
      <trkpt lat="48.57891" lon="-2.51317">
        <ele>110</ele>
        <time>2018-06-03T07:04:42Z</time>
      </trkpt>
      <trkpt lat="48.57886" lon="-2.51332">
        <ele>110</ele>
        <time>2018-06-03T07:04:46Z</time>
      </trkpt>
      <trkpt lat="48.57874" lon="-2.51338">
        <ele>111</ele>
        <time>2018-06-03T07:04:50Z</time>
      </trkpt>
      <trkpt lat="48.57863" lon="-2.5134">
        <ele>111</ele>
        <time>2018-06-03T07:04:54Z</time>
      </trkpt>
      <trkpt lat="48.57848" lon="-2.51346">
        <ele>112</ele>
        <time>2018-06-03T07:04:58Z</time>
      </trkpt>
      <trkpt lat="48.57844" lon="-2.51355">
        <ele>112</ele>
        <time>2018-06-03T07:05:02Z</time>
      </trkpt>
      <trkpt lat="48.57831" lon="-2.51365">
        <ele>113</ele>
        <time>2018-06-03T07:05:06Z</time>
      </trkpt>
      <trkpt lat="48.57835" lon="-2.51381">
        <ele>111</ele>
        <time>2018-06-03T07:05:10Z</time>
      </trkpt>
      <trkpt lat="48.57842" lon="-2.51392">
        <ele>110</ele>
        <time>2018-06-03T07:05:14Z</time>
      </trkpt>
      <trkpt lat="48.57856" lon="-2.51399">
        <ele>110</ele>
        <time>2018-06-03T07:05:18Z</time>
      </trkpt>
      <trkpt lat="48.57873" lon="-2.51406">
        <ele>110</ele>
        <time>2018-06-03T07:05:22Z</time>
      </trkpt>
      <trkpt lat="48.57887" lon="-2.51418">
        <ele>109</ele>
        <time>2018-06-03T07:05:26Z</time>
      </trkpt>
      <trkpt lat="48.57904" lon="-2.51428">
        <ele>109</ele>
        <time>2018-06-03T07:05:30Z</time>
      </trkpt>
      <trkpt lat="48.57921" lon="-2.5143">
        <ele>108</ele>
        <time>2018-06-03T07:05:34Z</time>
      </trkpt>
      <trkpt lat="48.57925" lon="-2.51413">
        <ele>108</ele>
        <time>2018-06-03T07:05:38Z</time>
      </trkpt>
      <trkpt lat="48.57919" lon="-2.51403">
        <ele>108</ele>
        <time>2018-06-03T07:05:42Z</time>
      </trkpt>
      <trkpt lat="48.57905" lon="-2.5139">
        <ele>110</ele>
        <time>2018-06-03T07:05:46Z</time>
      </trkpt>
      <trkpt lat="48.57897" lon="-2.51375">
        <ele>110</ele>
        <time>2018-06-03T07:05:50Z</time>
      </trkpt>
      <trkpt lat="48.57897" lon="-2.51363">
        <ele>110</ele>
        <time>2018-06-03T07:05:54Z</time>
      </trkpt>
      <trkpt lat="48.57905" lon="-2.51357">
        <ele>109</ele>
        <time>2018-06-03T07:05:58Z</time>
      </trkpt>
      <trkpt lat="48.579" lon="-2.51371">
        <ele>110</ele>
        <time>2018-06-03T07:06:02Z</time>
      </trkpt>
      <trkpt lat="48.57914" lon="-2.51389">
        <ele>110</ele>
        <time>2018-06-03T07:06:06Z</time>
      </trkpt>
      <trkpt lat="48.5792" lon="-2.51403">
        <ele>108</ele>
        <time>2018-06-03T07:06:10Z</time>
      </trkpt>
      <trkpt lat="48.57927" lon="-2.51421">
        <ele>108</ele>
        <time>2018-06-03T07:06:14Z</time>
      </trkpt>
      <trkpt lat="48.57943" lon="-2.51433">
        <ele>107</ele>
        <time>2018-06-03T07:06:18Z</time>
      </trkpt>
      <trkpt lat="48.57957" lon="-2.51444">
        <ele>107</ele>
        <time>2018-06-03T07:06:22Z</time>
      </trkpt>
      <trkpt lat="48.57964" lon="-2.5145">
        <ele>106</ele>
        <time>2018-06-03T07:06:26Z</time>
      </trkpt>
      <trkpt lat="48.57972" lon="-2.51468">
        <ele>106</ele>
        <time>2018-06-03T07:06:30Z</time>
      </trkpt>
      <trkpt lat="48.57991" lon="-2.51478">
        <ele>106</ele>
        <time>2018-06-03T07:06:34Z</time>
      </trkpt>
      <trkpt lat="48.58012" lon="-2.51489">
        <ele>104</ele>
        <time>2018-06-03T07:06:38Z</time>
      </trkpt>
      <trkpt lat="48.58038" lon="-2.51506">
        <ele>103</ele>
        <time>2018-06-03T07:06:42Z</time>
      </trkpt>
      <trkpt lat="48.58065" lon="-2.5152">
        <ele>102</ele>
        <time>2018-06-03T07:06:46Z</time>
      </trkpt>
      <trkpt lat="48.58089" lon="-2.51538">
        <ele>100</ele>
        <time>2018-06-03T07:06:50Z</time>
      </trkpt>
      <trkpt lat="48.58119" lon="-2.51555">
        <ele>100</ele>
        <time>2018-06-03T07:06:54Z</time>
      </trkpt>
      <trkpt lat="48.58147" lon="-2.51569">
        <ele>99</ele>
        <time>2018-06-03T07:06:58Z</time>
      </trkpt>
      <trkpt lat="48.58173" lon="-2.51582">
        <ele>99</ele>
        <time>2018-06-03T07:07:02Z</time>
      </trkpt>
      <trkpt lat="48.582" lon="-2.51599">
        <ele>98</ele>
        <time>2018-06-03T07:07:06Z</time>
      </trkpt>
      <trkpt lat="48.58226" lon="-2.51621">
        <ele>98</ele>
        <time>2018-06-03T07:07:10Z</time>
      </trkpt>
      <trkpt lat="48.58252" lon="-2.51639">
        <ele>96</ele>
        <time>2018-06-03T07:07:14Z</time>
      </trkpt>
      <trkpt lat="48.58273" lon="-2.5166">
        <ele>96</ele>
        <time>2018-06-03T07:07:18Z</time>
      </trkpt>
      <trkpt lat="48.5827" lon="-2.51687">
        <ele>96</ele>
        <time>2018-06-03T07:07:22Z</time>
      </trkpt>
      <trkpt lat="48.58276" lon="-2.51713">
        <ele>96</ele>
        <time>2018-06-03T07:07:26Z</time>
      </trkpt>
      <trkpt lat="48.58301" lon="-2.51719">
        <ele>96</ele>
        <time>2018-06-03T07:07:30Z</time>
      </trkpt>
      <trkpt lat="48.58329" lon="-2.51724">
        <ele>96</ele>
        <time>2018-06-03T07:07:34Z</time>
      </trkpt>
      <trkpt lat="48.58358" lon="-2.51729">
        <ele>96</ele>
        <time>2018-06-03T07:07:38Z</time>
      </trkpt>
      <trkpt lat="48.58383" lon="-2.51737">
        <ele>96</ele>
        <time>2018-06-03T07:07:42Z</time>
      </trkpt>
      <trkpt lat="48.58413" lon="-2.51744">
        <ele>96</ele>
        <time>2018-06-03T07:07:46Z</time>
      </trkpt>
      <trkpt lat="48.58442" lon="-2.5175">
        <ele>95</ele>
        <time>2018-06-03T07:07:50Z</time>
      </trkpt>
      <trkpt lat="48.58473" lon="-2.5175">
        <ele>95</ele>
        <time>2018-06-03T07:07:54Z</time>
      </trkpt>
      <trkpt lat="48.58502" lon="-2.51751">
        <ele>94</ele>
        <time>2018-06-03T07:07:58Z</time>
      </trkpt>
      <trkpt lat="48.58532" lon="-2.51751">
        <ele>93</ele>
        <time>2018-06-03T07:08:02Z</time>
      </trkpt>
      <trkpt lat="48.58547" lon="-2.51758">
        <ele>93</ele>
        <time>2018-06-03T07:08:06Z</time>
      </trkpt>
      <trkpt lat="48.58558" lon="-2.51755">
        <ele>93</ele>
        <time>2018-06-03T07:08:10Z</time>
      </trkpt>
      <trkpt lat="48.58563" lon="-2.51732">
        <ele>92</ele>
        <time>2018-06-03T07:10:06Z</time>
      </trkpt>
      <trkpt lat="48.58569" lon="-2.51706">
        <ele>92</ele>
        <time>2018-06-03T07:10:14Z</time>
      </trkpt>
      <trkpt lat="48.58573" lon="-2.51679">
        <ele>92</ele>
        <time>2018-06-03T07:10:18Z</time>
      </trkpt>
      <trkpt lat="48.58581" lon="-2.51646">
        <ele>91</ele>
        <time>2018-06-03T07:10:22Z</time>
      </trkpt>
      <trkpt lat="48.5859" lon="-2.51576">
        <ele>90</ele>
        <time>2018-06-03T07:10:26Z</time>
      </trkpt>
      <trkpt lat="48.58593" lon="-2.51535">
        <ele>88</ele>
        <time>2018-06-03T07:10:34Z</time>
      </trkpt>
      <trkpt lat="48.58599" lon="-2.51508">
        <ele>88</ele>
        <time>2018-06-03T07:10:38Z</time>
      </trkpt>
      <trkpt lat="48.58633" lon="-2.51535">
        <ele>88</ele>
        <time>2018-06-03T07:10:42Z</time>
      </trkpt>
      <trkpt lat="48.58667" lon="-2.51566">
        <ele>85</ele>
        <time>2018-06-03T07:10:50Z</time>
      </trkpt>
      <trkpt lat="48.58688" lon="-2.51584">
        <ele>85</ele>
        <time>2018-06-03T07:10:58Z</time>
      </trkpt>
      <trkpt lat="48.58747" lon="-2.516">
        <ele>82</ele>
        <time>2018-06-03T07:11:02Z</time>
      </trkpt>
      <trkpt lat="48.58768" lon="-2.51613">
        <ele>80</ele>
        <time>2018-06-03T07:11:10Z</time>
      </trkpt>
      <trkpt lat="48.58794" lon="-2.51621">
        <ele>79</ele>
        <time>2018-06-03T07:11:14Z</time>
      </trkpt>
      <trkpt lat="48.58816" lon="-2.5162">
        <ele>79</ele>
        <time>2018-06-03T07:11:18Z</time>
      </trkpt>
      <trkpt lat="48.58837" lon="-2.51623">
        <ele>76</ele>
        <time>2018-06-03T07:11:22Z</time>
      </trkpt>
      <trkpt lat="48.58858" lon="-2.51636">
        <ele>76</ele>
        <time>2018-06-03T07:11:26Z</time>
      </trkpt>
      <trkpt lat="48.58899" lon="-2.51671">
        <ele>75</ele>
        <time>2018-06-03T07:11:30Z</time>
      </trkpt>
      <trkpt lat="48.58911" lon="-2.51655">
        <ele>74</ele>
        <time>2018-06-03T07:11:38Z</time>
      </trkpt>
      <trkpt lat="48.58929" lon="-2.51641">
        <ele>72</ele>
        <time>2018-06-03T07:11:42Z</time>
      </trkpt>
      <trkpt lat="48.58955" lon="-2.51622">
        <ele>71</ele>
        <time>2018-06-03T07:11:46Z</time>
      </trkpt>
      <trkpt lat="48.58995" lon="-2.5161">
        <ele>69</ele>
        <time>2018-06-03T07:11:50Z</time>
      </trkpt>
      <trkpt lat="48.59015" lon="-2.51612">
        <ele>65</ele>
        <time>2018-06-03T07:11:58Z</time>
      </trkpt>
      <trkpt lat="48.59037" lon="-2.51623">
        <ele>65</ele>
        <time>2018-06-03T07:12:02Z</time>
      </trkpt>
      <trkpt lat="48.5908" lon="-2.51672">
        <ele>62</ele>
        <time>2018-06-03T07:12:06Z</time>
      </trkpt>
      <trkpt lat="48.59096" lon="-2.51696">
        <ele>56</ele>
        <time>2018-06-03T07:12:14Z</time>
      </trkpt>
      <trkpt lat="48.59121" lon="-2.51703">
        <ele>54</ele>
        <time>2018-06-03T07:12:18Z</time>
      </trkpt>
      <trkpt lat="48.59129" lon="-2.51695">
        <ele>54</ele>
        <time>2018-06-03T07:12:26Z</time>
      </trkpt>
      <trkpt lat="48.59133" lon="-2.51673">
        <ele>53</ele>
        <time>2018-06-03T07:12:30Z</time>
      </trkpt>
      <trkpt lat="48.59132" lon="-2.51656">
        <ele>54</ele>
        <time>2018-06-03T07:12:34Z</time>
      </trkpt>
      <trkpt lat="48.59144" lon="-2.51643">
        <ele>53</ele>
        <time>2018-06-03T07:12:38Z</time>
      </trkpt>
      <trkpt lat="48.59152" lon="-2.51626">
        <ele>54</ele>
        <time>2018-06-03T07:12:42Z</time>
      </trkpt>
      <trkpt lat="48.59161" lon="-2.51616">
        <ele>53</ele>
        <time>2018-06-03T07:12:46Z</time>
      </trkpt>
      <trkpt lat="48.59172" lon="-2.51596">
        <ele>49</ele>
        <time>2018-06-03T07:12:50Z</time>
      </trkpt>
      <trkpt lat="48.59187" lon="-2.51566">
        <ele>52</ele>
        <time>2018-06-03T07:12:54Z</time>
      </trkpt>
      <trkpt lat="48.59196" lon="-2.51541">
        <ele>52</ele>
        <time>2018-06-03T07:12:58Z</time>
      </trkpt>
      <trkpt lat="48.59201" lon="-2.51513">
        <ele>53</ele>
        <time>2018-06-03T07:13:02Z</time>
      </trkpt>
      <trkpt lat="48.59206" lon="-2.51492">
        <ele>57</ele>
        <time>2018-06-03T07:13:06Z</time>
      </trkpt>
      <trkpt lat="48.5921" lon="-2.5147">
        <ele>57</ele>
        <time>2018-06-03T07:13:10Z</time>
      </trkpt>
      <trkpt lat="48.59213" lon="-2.51449">
        <ele>58</ele>
        <time>2018-06-03T07:13:14Z</time>
      </trkpt>
      <trkpt lat="48.59226" lon="-2.5143">
        <ele>58</ele>
        <time>2018-06-03T07:13:18Z</time>
      </trkpt>
      <trkpt lat="48.59238" lon="-2.51412">
        <ele>61</ele>
        <time>2018-06-03T07:13:22Z</time>
      </trkpt>
      <trkpt lat="48.59249" lon="-2.51397">
        <ele>62</ele>
        <time>2018-06-03T07:13:26Z</time>
      </trkpt>
      <trkpt lat="48.5926" lon="-2.51382">
        <ele>59</ele>
        <time>2018-06-03T07:13:30Z</time>
      </trkpt>
      <trkpt lat="48.59266" lon="-2.51361">
        <ele>60</ele>
        <time>2018-06-03T07:13:34Z</time>
      </trkpt>
      <trkpt lat="48.59267" lon="-2.51339">
        <ele>62</ele>
        <time>2018-06-03T07:13:38Z</time>
      </trkpt>
      <trkpt lat="48.59272" lon="-2.5132">
        <ele>65</ele>
        <time>2018-06-03T07:13:42Z</time>
      </trkpt>
      <trkpt lat="48.59279" lon="-2.51296">
        <ele>65</ele>
        <time>2018-06-03T07:13:46Z</time>
      </trkpt>
      <trkpt lat="48.59281" lon="-2.51273">
        <ele>65</ele>
        <time>2018-06-03T07:13:50Z</time>
      </trkpt>
      <trkpt lat="48.59281" lon="-2.51248">
        <ele>68</ele>
        <time>2018-06-03T07:13:54Z</time>
      </trkpt>
      <trkpt lat="48.59281" lon="-2.51228">
        <ele>68</ele>
        <time>2018-06-03T07:13:58Z</time>
      </trkpt>
      <trkpt lat="48.59282" lon="-2.51209">
        <ele>69</ele>
        <time>2018-06-03T07:14:02Z</time>
      </trkpt>
      <trkpt lat="48.5928" lon="-2.5119">
        <ele>69</ele>
        <time>2018-06-03T07:14:06Z</time>
      </trkpt>
      <trkpt lat="48.59279" lon="-2.51171">
        <ele>70</ele>
        <time>2018-06-03T07:14:10Z</time>
      </trkpt>
      <trkpt lat="48.59281" lon="-2.5115">
        <ele>71</ele>
        <time>2018-06-03T07:14:14Z</time>
      </trkpt>
      <trkpt lat="48.59285" lon="-2.51126">
        <ele>71</ele>
        <time>2018-06-03T07:14:18Z</time>
      </trkpt>
      <trkpt lat="48.59288" lon="-2.51105">
        <ele>71</ele>
        <time>2018-06-03T07:14:22Z</time>
      </trkpt>
      <trkpt lat="48.59293" lon="-2.51088">
        <ele>71</ele>
        <time>2018-06-03T07:14:26Z</time>
      </trkpt>
      <trkpt lat="48.593" lon="-2.51068">
        <ele>73</ele>
        <time>2018-06-03T07:14:30Z</time>
      </trkpt>
      <trkpt lat="48.59309" lon="-2.51044">
        <ele>73</ele>
        <time>2018-06-03T07:14:34Z</time>
      </trkpt>
      <trkpt lat="48.59314" lon="-2.51019">
        <ele>74</ele>
        <time>2018-06-03T07:14:38Z</time>
      </trkpt>
      <trkpt lat="48.59322" lon="-2.50995">
        <ele>75</ele>
        <time>2018-06-03T07:14:42Z</time>
      </trkpt>
      <trkpt lat="48.59336" lon="-2.50976">
        <ele>74</ele>
        <time>2018-06-03T07:14:46Z</time>
      </trkpt>
      <trkpt lat="48.59342" lon="-2.50952">
        <ele>74</ele>
        <time>2018-06-03T07:14:50Z</time>
      </trkpt>
      <trkpt lat="48.59352" lon="-2.50931">
        <ele>74</ele>
        <time>2018-06-03T07:14:54Z</time>
      </trkpt>
      <trkpt lat="48.59358" lon="-2.50908">
        <ele>76</ele>
        <time>2018-06-03T07:14:58Z</time>
      </trkpt>
      <trkpt lat="48.59364" lon="-2.50884">
        <ele>76</ele>
        <time>2018-06-03T07:15:02Z</time>
      </trkpt>
      <trkpt lat="48.5937" lon="-2.50856">
        <ele>76</ele>
        <time>2018-06-03T07:15:06Z</time>
      </trkpt>
      <trkpt lat="48.59373" lon="-2.50832">
        <ele>77</ele>
        <time>2018-06-03T07:15:10Z</time>
      </trkpt>
      <trkpt lat="48.59376" lon="-2.50807">
        <ele>78</ele>
        <time>2018-06-03T07:15:14Z</time>
      </trkpt>
      <trkpt lat="48.59378" lon="-2.5078">
        <ele>78</ele>
        <time>2018-06-03T07:15:18Z</time>
      </trkpt>
      <trkpt lat="48.59378" lon="-2.50753">
        <ele>78</ele>
        <time>2018-06-03T07:15:22Z</time>
      </trkpt>
      <trkpt lat="48.59378" lon="-2.50728">
        <ele>80</ele>
        <time>2018-06-03T07:15:26Z</time>
      </trkpt>
      <trkpt lat="48.59377" lon="-2.50704">
        <ele>80</ele>
        <time>2018-06-03T07:15:30Z</time>
      </trkpt>
      <trkpt lat="48.59377" lon="-2.50685">
        <ele>80</ele>
        <time>2018-06-03T07:15:34Z</time>
      </trkpt>
      <trkpt lat="48.59374" lon="-2.50679">
        <ele>80</ele>
        <time>2018-06-03T07:15:38Z</time>
      </trkpt>
      <trkpt lat="48.59384" lon="-2.50675">
        <ele>80</ele>
        <time>2018-06-03T07:15:42Z</time>
      </trkpt>
      <trkpt lat="48.59402" lon="-2.50681">
        <ele>80</ele>
        <time>2018-06-03T07:15:46Z</time>
      </trkpt>
      <trkpt lat="48.59422" lon="-2.50692">
        <ele>77</ele>
        <time>2018-06-03T07:15:50Z</time>
      </trkpt>
      <trkpt lat="48.59444" lon="-2.50703">
        <ele>76</ele>
        <time>2018-06-03T07:15:54Z</time>
      </trkpt>
      <trkpt lat="48.59463" lon="-2.50721">
        <ele>76</ele>
        <time>2018-06-03T07:15:58Z</time>
      </trkpt>
      <trkpt lat="48.59484" lon="-2.50748">
        <ele>74</ele>
        <time>2018-06-03T07:16:02Z</time>
      </trkpt>
      <trkpt lat="48.59506" lon="-2.50781">
        <ele>72</ele>
        <time>2018-06-03T07:16:06Z</time>
      </trkpt>
      <trkpt lat="48.5953" lon="-2.50814">
        <ele>72</ele>
        <time>2018-06-03T07:16:10Z</time>
      </trkpt>
      <trkpt lat="48.59551" lon="-2.50842">
        <ele>71</ele>
        <time>2018-06-03T07:16:14Z</time>
      </trkpt>
      <trkpt lat="48.59565" lon="-2.50835">
        <ele>70</ele>
        <time>2018-06-03T07:16:18Z</time>
      </trkpt>
      <trkpt lat="48.59576" lon="-2.50812">
        <ele>71</ele>
        <time>2018-06-03T07:16:22Z</time>
      </trkpt>
      <trkpt lat="48.59587" lon="-2.50785">
        <ele>69</ele>
        <time>2018-06-03T07:16:26Z</time>
      </trkpt>
      <trkpt lat="48.59602" lon="-2.50763">
        <ele>69</ele>
        <time>2018-06-03T07:16:30Z</time>
      </trkpt>
      <trkpt lat="48.59617" lon="-2.50743">
        <ele>70</ele>
        <time>2018-06-03T07:16:34Z</time>
      </trkpt>
      <trkpt lat="48.59632" lon="-2.50721">
        <ele>70</ele>
        <time>2018-06-03T07:16:38Z</time>
      </trkpt>
      <trkpt lat="48.59645" lon="-2.50699">
        <ele>70</ele>
        <time>2018-06-03T07:16:42Z</time>
      </trkpt>
      <trkpt lat="48.59657" lon="-2.50674">
        <ele>69</ele>
        <time>2018-06-03T07:16:46Z</time>
      </trkpt>
      <trkpt lat="48.59666" lon="-2.50649">
        <ele>70</ele>
        <time>2018-06-03T07:16:50Z</time>
      </trkpt>
      <trkpt lat="48.59678" lon="-2.50624">
        <ele>68</ele>
        <time>2018-06-03T07:16:54Z</time>
      </trkpt>
      <trkpt lat="48.59689" lon="-2.50599">
        <ele>69</ele>
        <time>2018-06-03T07:16:58Z</time>
      </trkpt>
      <trkpt lat="48.59702" lon="-2.50575">
        <ele>69</ele>
        <time>2018-06-03T07:17:02Z</time>
      </trkpt>
      <trkpt lat="48.59717" lon="-2.50553">
        <ele>69</ele>
        <time>2018-06-03T07:17:06Z</time>
      </trkpt>
      <trkpt lat="48.5973" lon="-2.50528">
        <ele>69</ele>
        <time>2018-06-03T07:17:10Z</time>
      </trkpt>
      <trkpt lat="48.59747" lon="-2.505">
        <ele>69</ele>
        <time>2018-06-03T07:17:14Z</time>
      </trkpt>
      <trkpt lat="48.5976" lon="-2.50475">
        <ele>68</ele>
        <time>2018-06-03T07:17:18Z</time>
      </trkpt>
      <trkpt lat="48.59774" lon="-2.50448">
        <ele>69</ele>
        <time>2018-06-03T07:17:22Z</time>
      </trkpt>
      <trkpt lat="48.59789" lon="-2.50423">
        <ele>69</ele>
        <time>2018-06-03T07:17:26Z</time>
      </trkpt>
      <trkpt lat="48.59804" lon="-2.50394">
        <ele>69</ele>
        <time>2018-06-03T07:17:30Z</time>
      </trkpt>
      <trkpt lat="48.59814" lon="-2.50371">
        <ele>69</ele>
        <time>2018-06-03T07:17:34Z</time>
      </trkpt>
      <trkpt lat="48.5982" lon="-2.50351">
        <ele>69</ele>
        <time>2018-06-03T07:17:38Z</time>
      </trkpt>
      <trkpt lat="48.59826" lon="-2.50325">
        <ele>69</ele>
        <time>2018-06-03T07:17:42Z</time>
      </trkpt>
      <trkpt lat="48.5984" lon="-2.50311">
        <ele>68</ele>
        <time>2018-06-03T07:17:46Z</time>
      </trkpt>
      <trkpt lat="48.59856" lon="-2.50295">
        <ele>67</ele>
        <time>2018-06-03T07:17:50Z</time>
      </trkpt>
      <trkpt lat="48.59873" lon="-2.50289">
        <ele>67</ele>
        <time>2018-06-03T07:17:54Z</time>
      </trkpt>
      <trkpt lat="48.59891" lon="-2.5028">
        <ele>67</ele>
        <time>2018-06-03T07:17:58Z</time>
      </trkpt>
      <trkpt lat="48.5991" lon="-2.50275">
        <ele>67</ele>
        <time>2018-06-03T07:18:02Z</time>
      </trkpt>
      <trkpt lat="48.59928" lon="-2.50269">
        <ele>65</ele>
        <time>2018-06-03T07:18:06Z</time>
      </trkpt>
      <trkpt lat="48.59944" lon="-2.50261">
        <ele>65</ele>
        <time>2018-06-03T07:18:10Z</time>
      </trkpt>
      <trkpt lat="48.59967" lon="-2.5025">
        <ele>63</ele>
        <time>2018-06-03T07:18:14Z</time>
      </trkpt>
      <trkpt lat="48.59991" lon="-2.50235">
        <ele>62</ele>
        <time>2018-06-03T07:18:18Z</time>
      </trkpt>
      <trkpt lat="48.60026" lon="-2.50213">
        <ele>57</ele>
        <time>2018-06-03T07:18:22Z</time>
      </trkpt>
      <trkpt lat="48.60056" lon="-2.50166">
        <ele>53</ele>
        <time>2018-06-03T07:18:26Z</time>
      </trkpt>
      <trkpt lat="48.60081" lon="-2.5011">
        <ele>51</ele>
        <time>2018-06-03T07:18:30Z</time>
      </trkpt>
      <trkpt lat="48.60097" lon="-2.5008">
        <ele>46</ele>
        <time>2018-06-03T07:18:34Z</time>
      </trkpt>
      <trkpt lat="48.60121" lon="-2.50089">
        <ele>45</ele>
        <time>2018-06-03T07:18:38Z</time>
      </trkpt>
      <trkpt lat="48.60146" lon="-2.50115">
        <ele>43</ele>
        <time>2018-06-03T07:18:42Z</time>
      </trkpt>
      <trkpt lat="48.60168" lon="-2.50138">
        <ele>39</ele>
        <time>2018-06-03T07:18:46Z</time>
      </trkpt>
      <trkpt lat="48.60183" lon="-2.5014">
        <ele>38</ele>
        <time>2018-06-03T07:18:50Z</time>
      </trkpt>
      <trkpt lat="48.60195" lon="-2.50112">
        <ele>38</ele>
        <time>2018-06-03T07:18:54Z</time>
      </trkpt>
      <trkpt lat="48.60213" lon="-2.50078">
        <ele>35</ele>
        <time>2018-06-03T07:18:58Z</time>
      </trkpt>
      <trkpt lat="48.60231" lon="-2.5004">
        <ele>35</ele>
        <time>2018-06-03T07:19:02Z</time>
      </trkpt>
      <trkpt lat="48.60242" lon="-2.50002">
        <ele>32</ele>
        <time>2018-06-03T07:19:06Z</time>
      </trkpt>
      <trkpt lat="48.6024" lon="-2.49979">
        <ele>33</ele>
        <time>2018-06-03T07:19:10Z</time>
      </trkpt>
      <trkpt lat="48.60222" lon="-2.49969">
        <ele>33</ele>
        <time>2018-06-03T07:19:14Z</time>
      </trkpt>
      <trkpt lat="48.6021" lon="-2.49956">
        <ele>34</ele>
        <time>2018-06-03T07:19:18Z</time>
      </trkpt>
      <trkpt lat="48.60194" lon="-2.49945">
        <ele>34</ele>
        <time>2018-06-03T07:19:22Z</time>
      </trkpt>
      <trkpt lat="48.60174" lon="-2.49929">
        <ele>35</ele>
        <time>2018-06-03T07:19:26Z</time>
      </trkpt>
      <trkpt lat="48.60158" lon="-2.49915">
        <ele>37</ele>
        <time>2018-06-03T07:19:30Z</time>
      </trkpt>
      <trkpt lat="48.60141" lon="-2.49897">
        <ele>38</ele>
        <time>2018-06-03T07:19:34Z</time>
      </trkpt>
      <trkpt lat="48.60122" lon="-2.49875">
        <ele>39</ele>
        <time>2018-06-03T07:19:38Z</time>
      </trkpt>
      <trkpt lat="48.60123" lon="-2.49846">
        <ele>39</ele>
        <time>2018-06-03T07:19:42Z</time>
      </trkpt>
      <trkpt lat="48.6012" lon="-2.49831">
        <ele>41</ele>
        <time>2018-06-03T07:19:46Z</time>
      </trkpt>
      <trkpt lat="48.6011" lon="-2.49823">
        <ele>41</ele>
        <time>2018-06-03T07:19:50Z</time>
      </trkpt>
      <trkpt lat="48.60099" lon="-2.4982">
        <ele>41</ele>
        <time>2018-06-03T07:19:54Z</time>
      </trkpt>
      <trkpt lat="48.60085" lon="-2.4982">
        <ele>41</ele>
        <time>2018-06-03T07:19:58Z</time>
      </trkpt>
      <trkpt lat="48.60076" lon="-2.49819">
        <ele>43</ele>
        <time>2018-06-03T07:20:02Z</time>
      </trkpt>
      <trkpt lat="48.60067" lon="-2.4982">
        <ele>43</ele>
        <time>2018-06-03T07:20:06Z</time>
      </trkpt>
      <trkpt lat="48.60056" lon="-2.49821">
        <ele>44</ele>
        <time>2018-06-03T07:20:10Z</time>
      </trkpt>
      <trkpt lat="48.60046" lon="-2.4982">
        <ele>44</ele>
        <time>2018-06-03T07:20:14Z</time>
      </trkpt>
      <trkpt lat="48.60028" lon="-2.49825">
        <ele>44</ele>
        <time>2018-06-03T07:20:18Z</time>
      </trkpt>
      <trkpt lat="48.60023" lon="-2.49829">
        <ele>44</ele>
        <time>2018-06-03T07:20:22Z</time>
      </trkpt>
      <trkpt lat="48.60014" lon="-2.49822">
        <ele>44</ele>
        <time>2018-06-03T07:20:26Z</time>
      </trkpt>
      <trkpt lat="48.60002" lon="-2.49826">
        <ele>43</ele>
        <time>2018-06-03T07:20:30Z</time>
      </trkpt>
      <trkpt lat="48.59992" lon="-2.49828">
        <ele>44</ele>
        <time>2018-06-03T07:20:34Z</time>
      </trkpt>
      <trkpt lat="48.59986" lon="-2.49833">
        <ele>45</ele>
        <time>2018-06-03T07:20:38Z</time>
      </trkpt>
      <trkpt lat="48.59976" lon="-2.49834">
        <ele>44</ele>
        <time>2018-06-03T07:20:42Z</time>
      </trkpt>
      <trkpt lat="48.5997" lon="-2.49826">
        <ele>46</ele>
        <time>2018-06-03T07:20:46Z</time>
      </trkpt>
      <trkpt lat="48.5997" lon="-2.4982">
        <ele>46</ele>
        <time>2018-06-03T07:20:50Z</time>
      </trkpt>
      <trkpt lat="48.59957" lon="-2.49816">
        <ele>47</ele>
        <time>2018-06-03T07:20:54Z</time>
      </trkpt>
      <trkpt lat="48.59955" lon="-2.49808">
        <ele>47</ele>
        <time>2018-06-03T07:20:58Z</time>
      </trkpt>
      <trkpt lat="48.59946" lon="-2.49802">
        <ele>48</ele>
        <time>2018-06-03T07:21:02Z</time>
      </trkpt>
      <trkpt lat="48.59938" lon="-2.49793">
        <ele>48</ele>
        <time>2018-06-03T07:21:06Z</time>
      </trkpt>
      <trkpt lat="48.59931" lon="-2.49787">
        <ele>49</ele>
        <time>2018-06-03T07:21:10Z</time>
      </trkpt>
      <trkpt lat="48.59928" lon="-2.49784">
        <ele>49</ele>
        <time>2018-06-03T07:21:14Z</time>
      </trkpt>
      <trkpt lat="48.59919" lon="-2.49778">
        <ele>49</ele>
        <time>2018-06-03T07:21:18Z</time>
      </trkpt>
      <trkpt lat="48.59915" lon="-2.49772">
        <ele>53</ele>
        <time>2018-06-03T07:21:22Z</time>
      </trkpt>
      <trkpt lat="48.5991" lon="-2.49763">
        <ele>53</ele>
        <time>2018-06-03T07:21:26Z</time>
      </trkpt>
      <trkpt lat="48.59897" lon="-2.49761">
        <ele>53</ele>
        <time>2018-06-03T07:21:30Z</time>
      </trkpt>
      <trkpt lat="48.5989" lon="-2.49758">
        <ele>54</ele>
        <time>2018-06-03T07:21:34Z</time>
      </trkpt>
      <trkpt lat="48.59884" lon="-2.49755">
        <ele>54</ele>
        <time>2018-06-03T07:21:38Z</time>
      </trkpt>
      <trkpt lat="48.59878" lon="-2.49746">
        <ele>57</ele>
        <time>2018-06-03T07:21:42Z</time>
      </trkpt>
      <trkpt lat="48.59876" lon="-2.4974">
        <ele>58</ele>
        <time>2018-06-03T07:21:46Z</time>
      </trkpt>
      <trkpt lat="48.59876" lon="-2.49732">
        <ele>58</ele>
        <time>2018-06-03T07:21:50Z</time>
      </trkpt>
      <trkpt lat="48.59871" lon="-2.4972">
        <ele>58</ele>
        <time>2018-06-03T07:21:58Z</time>
      </trkpt>
      <trkpt lat="48.59867" lon="-2.49711">
        <ele>59</ele>
        <time>2018-06-03T07:22:02Z</time>
      </trkpt>
      <trkpt lat="48.59864" lon="-2.49706">
        <ele>59</ele>
        <time>2018-06-03T07:22:06Z</time>
      </trkpt>
      <trkpt lat="48.59854" lon="-2.49696">
        <ele>60</ele>
        <time>2018-06-03T07:22:10Z</time>
      </trkpt>
      <trkpt lat="48.59847" lon="-2.49686">
        <ele>61</ele>
        <time>2018-06-03T07:22:14Z</time>
      </trkpt>
      <trkpt lat="48.59841" lon="-2.4968">
        <ele>62</ele>
        <time>2018-06-03T07:22:18Z</time>
      </trkpt>
      <trkpt lat="48.59837" lon="-2.49673">
        <ele>63</ele>
        <time>2018-06-03T07:22:22Z</time>
      </trkpt>
      <trkpt lat="48.5983" lon="-2.49672">
        <ele>64</ele>
        <time>2018-06-03T07:22:26Z</time>
      </trkpt>
      <trkpt lat="48.59826" lon="-2.49664">
        <ele>65</ele>
        <time>2018-06-03T07:22:30Z</time>
      </trkpt>
      <trkpt lat="48.5982" lon="-2.49659">
        <ele>67</ele>
        <time>2018-06-03T07:22:34Z</time>
      </trkpt>
      <trkpt lat="48.59813" lon="-2.49654">
        <ele>67</ele>
        <time>2018-06-03T07:22:38Z</time>
      </trkpt>
      <trkpt lat="48.59806" lon="-2.4965">
        <ele>68</ele>
        <time>2018-06-03T07:22:42Z</time>
      </trkpt>
      <trkpt lat="48.59802" lon="-2.49643">
        <ele>68</ele>
        <time>2018-06-03T07:22:46Z</time>
      </trkpt>
      <trkpt lat="48.59801" lon="-2.49633">
        <ele>69</ele>
        <time>2018-06-03T07:22:50Z</time>
      </trkpt>
      <trkpt lat="48.59806" lon="-2.49618">
        <ele>69</ele>
        <time>2018-06-03T07:22:54Z</time>
      </trkpt>
      <trkpt lat="48.598" lon="-2.49607">
        <ele>70</ele>
        <time>2018-06-03T07:22:58Z</time>
      </trkpt>
      <trkpt lat="48.59798" lon="-2.49596">
        <ele>70</ele>
        <time>2018-06-03T07:23:02Z</time>
      </trkpt>
      <trkpt lat="48.59799" lon="-2.49588">
        <ele>70</ele>
        <time>2018-06-03T07:23:06Z</time>
      </trkpt>
      <trkpt lat="48.59804" lon="-2.4958">
        <ele>72</ele>
        <time>2018-06-03T07:23:10Z</time>
      </trkpt>
      <trkpt lat="48.59811" lon="-2.49565">
        <ele>72</ele>
        <time>2018-06-03T07:23:14Z</time>
      </trkpt>
      <trkpt lat="48.59819" lon="-2.49548">
        <ele>72</ele>
        <time>2018-06-03T07:23:18Z</time>
      </trkpt>
      <trkpt lat="48.59824" lon="-2.49535">
        <ele>72</ele>
        <time>2018-06-03T07:23:22Z</time>
      </trkpt>
      <trkpt lat="48.59831" lon="-2.49517">
        <ele>72</ele>
        <time>2018-06-03T07:23:26Z</time>
      </trkpt>
      <trkpt lat="48.59835" lon="-2.49497">
        <ele>71</ele>
        <time>2018-06-03T07:23:30Z</time>
      </trkpt>
      <trkpt lat="48.59838" lon="-2.49475">
        <ele>70</ele>
        <time>2018-06-03T07:23:34Z</time>
      </trkpt>
      <trkpt lat="48.59841" lon="-2.49452">
        <ele>70</ele>
        <time>2018-06-03T07:23:38Z</time>
      </trkpt>
      <trkpt lat="48.59849" lon="-2.49427">
        <ele>70</ele>
        <time>2018-06-03T07:23:42Z</time>
      </trkpt>
      <trkpt lat="48.59855" lon="-2.49405">
        <ele>70</ele>
        <time>2018-06-03T07:23:46Z</time>
      </trkpt>
      <trkpt lat="48.59867" lon="-2.49378">
        <ele>70</ele>
        <time>2018-06-03T07:23:50Z</time>
      </trkpt>
      <trkpt lat="48.5988" lon="-2.49353">
        <ele>69</ele>
        <time>2018-06-03T07:23:54Z</time>
      </trkpt>
      <trkpt lat="48.59894" lon="-2.49331">
        <ele>68</ele>
        <time>2018-06-03T07:23:58Z</time>
      </trkpt>
      <trkpt lat="48.59912" lon="-2.49307">
        <ele>68</ele>
        <time>2018-06-03T07:24:02Z</time>
      </trkpt>
      <trkpt lat="48.5993" lon="-2.49282">
        <ele>66</ele>
        <time>2018-06-03T07:24:06Z</time>
      </trkpt>
      <trkpt lat="48.59945" lon="-2.49252">
        <ele>65</ele>
        <time>2018-06-03T07:24:10Z</time>
      </trkpt>
      <trkpt lat="48.59962" lon="-2.49219">
        <ele>65</ele>
        <time>2018-06-03T07:24:14Z</time>
      </trkpt>
      <trkpt lat="48.59977" lon="-2.49194">
        <ele>65</ele>
        <time>2018-06-03T07:24:18Z</time>
      </trkpt>
      <trkpt lat="48.59987" lon="-2.49188">
        <ele>65</ele>
        <time>2018-06-03T07:24:22Z</time>
      </trkpt>
      <trkpt lat="48.59999" lon="-2.49185">
        <ele>65</ele>
        <time>2018-06-03T07:24:26Z</time>
      </trkpt>
      <trkpt lat="48.60011" lon="-2.49192">
        <ele>63</ele>
        <time>2018-06-03T07:24:30Z</time>
      </trkpt>
      <trkpt lat="48.60022" lon="-2.49194">
        <ele>63</ele>
        <time>2018-06-03T07:24:34Z</time>
      </trkpt>
      <trkpt lat="48.60039" lon="-2.49197">
        <ele>62</ele>
        <time>2018-06-03T07:24:38Z</time>
      </trkpt>
      <trkpt lat="48.60054" lon="-2.49199">
        <ele>62</ele>
        <time>2018-06-03T07:24:42Z</time>
      </trkpt>
      <trkpt lat="48.60071" lon="-2.49206">
        <ele>62</ele>
        <time>2018-06-03T07:24:46Z</time>
      </trkpt>
      <trkpt lat="48.60091" lon="-2.49216">
        <ele>60</ele>
        <time>2018-06-03T07:24:50Z</time>
      </trkpt>
      <trkpt lat="48.60113" lon="-2.4923">
        <ele>60</ele>
        <time>2018-06-03T07:24:54Z</time>
      </trkpt>
      <trkpt lat="48.60138" lon="-2.49244">
        <ele>59</ele>
        <time>2018-06-03T07:24:58Z</time>
      </trkpt>
      <trkpt lat="48.60155" lon="-2.49253">
        <ele>60</ele>
        <time>2018-06-03T07:25:02Z</time>
      </trkpt>
      <trkpt lat="48.60169" lon="-2.49246">
        <ele>59</ele>
        <time>2018-06-03T07:25:06Z</time>
      </trkpt>
      <trkpt lat="48.60182" lon="-2.49219">
        <ele>57</ele>
        <time>2018-06-03T07:25:10Z</time>
      </trkpt>
      <trkpt lat="48.60195" lon="-2.49197">
        <ele>56</ele>
        <time>2018-06-03T07:25:14Z</time>
      </trkpt>
      <trkpt lat="48.60205" lon="-2.4917">
        <ele>56</ele>
        <time>2018-06-03T07:25:18Z</time>
      </trkpt>
      <trkpt lat="48.60225" lon="-2.49145">
        <ele>53</ele>
        <time>2018-06-03T07:25:22Z</time>
      </trkpt>
      <trkpt lat="48.6025" lon="-2.49132">
        <ele>53</ele>
        <time>2018-06-03T07:25:26Z</time>
      </trkpt>
      <trkpt lat="48.6028" lon="-2.49122">
        <ele>50</ele>
        <time>2018-06-03T07:25:30Z</time>
      </trkpt>
      <trkpt lat="48.60304" lon="-2.49112">
        <ele>49</ele>
        <time>2018-06-03T07:25:34Z</time>
      </trkpt>
      <trkpt lat="48.60319" lon="-2.49098">
        <ele>48</ele>
        <time>2018-06-03T07:25:38Z</time>
      </trkpt>
      <trkpt lat="48.60339" lon="-2.49101">
        <ele>46</ele>
        <time>2018-06-03T07:25:42Z</time>
      </trkpt>
      <trkpt lat="48.60356" lon="-2.49107">
        <ele>45</ele>
        <time>2018-06-03T07:25:46Z</time>
      </trkpt>
      <trkpt lat="48.60376" lon="-2.4911">
        <ele>45</ele>
        <time>2018-06-03T07:25:50Z</time>
      </trkpt>
      <trkpt lat="48.60389" lon="-2.49093">
        <ele>44</ele>
        <time>2018-06-03T07:25:54Z</time>
      </trkpt>
      <trkpt lat="48.60398" lon="-2.49076">
        <ele>44</ele>
        <time>2018-06-03T07:25:58Z</time>
      </trkpt>
      <trkpt lat="48.60404" lon="-2.49054">
        <ele>45</ele>
        <time>2018-06-03T07:26:02Z</time>
      </trkpt>
      <trkpt lat="48.60409" lon="-2.49041">
        <ele>46</ele>
        <time>2018-06-03T07:26:06Z</time>
      </trkpt>
      <trkpt lat="48.60411" lon="-2.49035">
        <ele>46</ele>
        <time>2018-06-03T07:26:10Z</time>
      </trkpt>
      <trkpt lat="48.60416" lon="-2.49025">
        <ele>46</ele>
        <time>2018-06-03T07:26:14Z</time>
      </trkpt>
      <trkpt lat="48.60424" lon="-2.49018">
        <ele>47</ele>
        <time>2018-06-03T07:26:18Z</time>
      </trkpt>
      <trkpt lat="48.6043" lon="-2.49013">
        <ele>47</ele>
        <time>2018-06-03T07:26:22Z</time>
      </trkpt>
      <trkpt lat="48.60439" lon="-2.49009">
        <ele>48</ele>
        <time>2018-06-03T07:26:26Z</time>
      </trkpt>
      <trkpt lat="48.60442" lon="-2.49004">
        <ele>48</ele>
        <time>2018-06-03T07:26:30Z</time>
      </trkpt>
      <trkpt lat="48.60448" lon="-2.48998">
        <ele>50</ele>
        <time>2018-06-03T07:26:34Z</time>
      </trkpt>
      <trkpt lat="48.60457" lon="-2.48994">
        <ele>51</ele>
        <time>2018-06-03T07:26:38Z</time>
      </trkpt>
      <trkpt lat="48.60463" lon="-2.48985">
        <ele>51</ele>
        <time>2018-06-03T07:26:42Z</time>
      </trkpt>
      <trkpt lat="48.60469" lon="-2.48981">
        <ele>52</ele>
        <time>2018-06-03T07:26:46Z</time>
      </trkpt>
      <trkpt lat="48.60476" lon="-2.48978">
        <ele>52</ele>
        <time>2018-06-03T07:26:50Z</time>
      </trkpt>
      <trkpt lat="48.60483" lon="-2.48975">
        <ele>52</ele>
        <time>2018-06-03T07:26:54Z</time>
      </trkpt>
      <trkpt lat="48.60488" lon="-2.48969">
        <ele>52</ele>
        <time>2018-06-03T07:26:58Z</time>
      </trkpt>
      <trkpt lat="48.60497" lon="-2.48957">
        <ele>52</ele>
        <time>2018-06-03T07:27:02Z</time>
      </trkpt>
      <trkpt lat="48.60498" lon="-2.48948">
        <ele>53</ele>
        <time>2018-06-03T07:27:06Z</time>
      </trkpt>
      <trkpt lat="48.60506" lon="-2.4894">
        <ele>56</ele>
        <time>2018-06-03T07:27:10Z</time>
      </trkpt>
      <trkpt lat="48.60512" lon="-2.48931">
        <ele>56</ele>
        <time>2018-06-03T07:27:14Z</time>
      </trkpt>
      <trkpt lat="48.60522" lon="-2.48925">
        <ele>56</ele>
        <time>2018-06-03T07:27:18Z</time>
      </trkpt>
      <trkpt lat="48.60527" lon="-2.48918">
        <ele>57</ele>
        <time>2018-06-03T07:27:22Z</time>
      </trkpt>
      <trkpt lat="48.60534" lon="-2.48904">
        <ele>59</ele>
        <time>2018-06-03T07:27:26Z</time>
      </trkpt>
      <trkpt lat="48.60536" lon="-2.48892">
        <ele>59</ele>
        <time>2018-06-03T07:27:30Z</time>
      </trkpt>
      <trkpt lat="48.60538" lon="-2.48875">
        <ele>59</ele>
        <time>2018-06-03T07:27:34Z</time>
      </trkpt>
      <trkpt lat="48.60539" lon="-2.48865">
        <ele>59</ele>
        <time>2018-06-03T07:27:38Z</time>
      </trkpt>
      <trkpt lat="48.6054" lon="-2.48849">
        <ele>60</ele>
        <time>2018-06-03T07:27:42Z</time>
      </trkpt>
      <trkpt lat="48.60544" lon="-2.48831">
        <ele>61</ele>
        <time>2018-06-03T07:27:46Z</time>
      </trkpt>
      <trkpt lat="48.60547" lon="-2.48817">
        <ele>61</ele>
        <time>2018-06-03T07:27:50Z</time>
      </trkpt>
      <trkpt lat="48.60547" lon="-2.48801">
        <ele>61</ele>
        <time>2018-06-03T07:27:54Z</time>
      </trkpt>
      <trkpt lat="48.60549" lon="-2.48785">
        <ele>62</ele>
        <time>2018-06-03T07:27:58Z</time>
      </trkpt>
      <trkpt lat="48.60549" lon="-2.48768">
        <ele>62</ele>
        <time>2018-06-03T07:28:02Z</time>
      </trkpt>
      <trkpt lat="48.60547" lon="-2.48749">
        <ele>62</ele>
        <time>2018-06-03T07:28:06Z</time>
      </trkpt>
      <trkpt lat="48.60546" lon="-2.48728">
        <ele>62</ele>
        <time>2018-06-03T07:28:10Z</time>
      </trkpt>
      <trkpt lat="48.60545" lon="-2.48708">
        <ele>62</ele>
        <time>2018-06-03T07:28:14Z</time>
      </trkpt>
      <trkpt lat="48.60547" lon="-2.48689">
        <ele>62</ele>
        <time>2018-06-03T07:28:18Z</time>
      </trkpt>
      <trkpt lat="48.60554" lon="-2.48667">
        <ele>63</ele>
        <time>2018-06-03T07:28:22Z</time>
      </trkpt>
      <trkpt lat="48.60561" lon="-2.48648">
        <ele>62</ele>
        <time>2018-06-03T07:28:26Z</time>
      </trkpt>
      <trkpt lat="48.60572" lon="-2.48626">
        <ele>61</ele>
        <time>2018-06-03T07:28:30Z</time>
      </trkpt>
      <trkpt lat="48.60588" lon="-2.48599">
        <ele>62</ele>
        <time>2018-06-03T07:28:34Z</time>
      </trkpt>
      <trkpt lat="48.60607" lon="-2.48582">
        <ele>61</ele>
        <time>2018-06-03T07:28:38Z</time>
      </trkpt>
      <trkpt lat="48.60622" lon="-2.48574">
        <ele>61</ele>
        <time>2018-06-03T07:28:42Z</time>
      </trkpt>
      <trkpt lat="48.60633" lon="-2.48562">
        <ele>62</ele>
        <time>2018-06-03T07:28:46Z</time>
      </trkpt>
      <trkpt lat="48.60651" lon="-2.48534">
        <ele>61</ele>
        <time>2018-06-03T07:28:50Z</time>
      </trkpt>
      <trkpt lat="48.60664" lon="-2.48512">
        <ele>61</ele>
        <time>2018-06-03T07:28:54Z</time>
      </trkpt>
      <trkpt lat="48.60674" lon="-2.48482">
        <ele>61</ele>
        <time>2018-06-03T07:28:58Z</time>
      </trkpt>
      <trkpt lat="48.60688" lon="-2.48466">
        <ele>62</ele>
        <time>2018-06-03T07:29:02Z</time>
      </trkpt>
      <trkpt lat="48.60707" lon="-2.48464">
        <ele>62</ele>
        <time>2018-06-03T07:29:06Z</time>
      </trkpt>
      <trkpt lat="48.60726" lon="-2.48454">
        <ele>62</ele>
        <time>2018-06-03T07:29:10Z</time>
      </trkpt>
      <trkpt lat="48.60743" lon="-2.4845">
        <ele>62</ele>
        <time>2018-06-03T07:29:14Z</time>
      </trkpt>
      <trkpt lat="48.6077" lon="-2.48449">
        <ele>60</ele>
        <time>2018-06-03T07:29:18Z</time>
      </trkpt>
      <trkpt lat="48.60799" lon="-2.48456">
        <ele>59</ele>
        <time>2018-06-03T07:29:22Z</time>
      </trkpt>
      <trkpt lat="48.60828" lon="-2.48462">
        <ele>58</ele>
        <time>2018-06-03T07:29:26Z</time>
      </trkpt>
      <trkpt lat="48.60849" lon="-2.48441">
        <ele>55</ele>
        <time>2018-06-03T07:29:30Z</time>
      </trkpt>
      <trkpt lat="48.60862" lon="-2.48407">
        <ele>56</ele>
        <time>2018-06-03T07:29:34Z</time>
      </trkpt>
      <trkpt lat="48.60876" lon="-2.48373">
        <ele>57</ele>
        <time>2018-06-03T07:29:38Z</time>
      </trkpt>
      <trkpt lat="48.60892" lon="-2.48335">
        <ele>57</ele>
        <time>2018-06-03T07:29:42Z</time>
      </trkpt>
      <trkpt lat="48.60907" lon="-2.48302">
        <ele>58</ele>
        <time>2018-06-03T07:29:46Z</time>
      </trkpt>
      <trkpt lat="48.60922" lon="-2.48263">
        <ele>56</ele>
        <time>2018-06-03T07:29:50Z</time>
      </trkpt>
      <trkpt lat="48.60932" lon="-2.48233">
        <ele>56</ele>
        <time>2018-06-03T07:29:54Z</time>
      </trkpt>
      <trkpt lat="48.60941" lon="-2.48206">
        <ele>56</ele>
        <time>2018-06-03T07:29:58Z</time>
      </trkpt>
      <trkpt lat="48.60946" lon="-2.48174">
        <ele>56</ele>
        <time>2018-06-03T07:30:02Z</time>
      </trkpt>
      <trkpt lat="48.60954" lon="-2.48142">
        <ele>57</ele>
        <time>2018-06-03T07:30:06Z</time>
      </trkpt>
      <trkpt lat="48.60958" lon="-2.48119">
        <ele>58</ele>
        <time>2018-06-03T07:30:10Z</time>
      </trkpt>
      <trkpt lat="48.60974" lon="-2.48115">
        <ele>57</ele>
        <time>2018-06-03T07:30:14Z</time>
      </trkpt>
      <trkpt lat="48.60995" lon="-2.48108">
        <ele>57</ele>
        <time>2018-06-03T07:30:18Z</time>
      </trkpt>
      <trkpt lat="48.6101" lon="-2.48088">
        <ele>54</ele>
        <time>2018-06-03T07:30:22Z</time>
      </trkpt>
      <trkpt lat="48.61023" lon="-2.48058">
        <ele>55</ele>
        <time>2018-06-03T07:30:26Z</time>
      </trkpt>
      <trkpt lat="48.61033" lon="-2.48023">
        <ele>55</ele>
        <time>2018-06-03T07:30:30Z</time>
      </trkpt>
      <trkpt lat="48.61045" lon="-2.47993">
        <ele>55</ele>
        <time>2018-06-03T07:30:34Z</time>
      </trkpt>
      <trkpt lat="48.61063" lon="-2.47972">
        <ele>55</ele>
        <time>2018-06-03T07:30:38Z</time>
      </trkpt>
      <trkpt lat="48.61082" lon="-2.47948">
        <ele>54</ele>
        <time>2018-06-03T07:30:42Z</time>
      </trkpt>
      <trkpt lat="48.61105" lon="-2.47924">
        <ele>50</ele>
        <time>2018-06-03T07:30:46Z</time>
      </trkpt>
      <trkpt lat="48.61123" lon="-2.479">
        <ele>50</ele>
        <time>2018-06-03T07:30:50Z</time>
      </trkpt>
      <trkpt lat="48.61144" lon="-2.47878">
        <ele>50</ele>
        <time>2018-06-03T07:30:54Z</time>
      </trkpt>
      <trkpt lat="48.61168" lon="-2.47849">
        <ele>46</ele>
        <time>2018-06-03T07:30:58Z</time>
      </trkpt>
      <trkpt lat="48.61192" lon="-2.47823">
        <ele>47</ele>
        <time>2018-06-03T07:31:02Z</time>
      </trkpt>
      <trkpt lat="48.61206" lon="-2.478">
        <ele>47</ele>
        <time>2018-06-03T07:31:06Z</time>
      </trkpt>
      <trkpt lat="48.61226" lon="-2.47772">
        <ele>46</ele>
        <time>2018-06-03T07:31:10Z</time>
      </trkpt>
      <trkpt lat="48.61245" lon="-2.47747">
        <ele>46</ele>
        <time>2018-06-03T07:31:14Z</time>
      </trkpt>
      <trkpt lat="48.61263" lon="-2.47722">
        <ele>44</ele>
        <time>2018-06-03T07:31:18Z</time>
      </trkpt>
      <trkpt lat="48.61287" lon="-2.47698">
        <ele>43</ele>
        <time>2018-06-03T07:31:22Z</time>
      </trkpt>
      <trkpt lat="48.61311" lon="-2.47672">
        <ele>42</ele>
        <time>2018-06-03T07:31:26Z</time>
      </trkpt>
      <trkpt lat="48.61337" lon="-2.47645">
        <ele>41</ele>
        <time>2018-06-03T07:31:30Z</time>
      </trkpt>
      <trkpt lat="48.61362" lon="-2.47615">
        <ele>41</ele>
        <time>2018-06-03T07:31:34Z</time>
      </trkpt>
      <trkpt lat="48.6138" lon="-2.4758">
        <ele>42</ele>
        <time>2018-06-03T07:31:38Z</time>
      </trkpt>
      <trkpt lat="48.61394" lon="-2.47541">
        <ele>42</ele>
        <time>2018-06-03T07:31:42Z</time>
      </trkpt>
      <trkpt lat="48.61411" lon="-2.47509">
        <ele>42</ele>
        <time>2018-06-03T07:31:46Z</time>
      </trkpt>
      <trkpt lat="48.61428" lon="-2.47475">
        <ele>42</ele>
        <time>2018-06-03T07:31:50Z</time>
      </trkpt>
      <trkpt lat="48.61444" lon="-2.47441">
        <ele>42</ele>
        <time>2018-06-03T07:31:54Z</time>
      </trkpt>
      <trkpt lat="48.61461" lon="-2.47407">
        <ele>41</ele>
        <time>2018-06-03T07:31:58Z</time>
      </trkpt>
      <trkpt lat="48.61475" lon="-2.47377">
        <ele>40</ele>
        <time>2018-06-03T07:32:02Z</time>
      </trkpt>
      <trkpt lat="48.6149" lon="-2.47344">
        <ele>39</ele>
        <time>2018-06-03T07:32:06Z</time>
      </trkpt>
      <trkpt lat="48.61504" lon="-2.47323">
        <ele>38</ele>
        <time>2018-06-03T07:32:10Z</time>
      </trkpt>
      <trkpt lat="48.61507" lon="-2.47312">
        <ele>38</ele>
        <time>2018-06-03T07:32:14Z</time>
      </trkpt>
      <trkpt lat="48.61504" lon="-2.47302">
        <ele>38</ele>
        <time>2018-06-03T07:32:18Z</time>
      </trkpt>
      <trkpt lat="48.61496" lon="-2.47286">
        <ele>39</ele>
        <time>2018-06-03T07:32:22Z</time>
      </trkpt>
      <trkpt lat="48.61482" lon="-2.47261">
        <ele>39</ele>
        <time>2018-06-03T07:32:26Z</time>
      </trkpt>
      <trkpt lat="48.61471" lon="-2.47236">
        <ele>40</ele>
        <time>2018-06-03T07:32:30Z</time>
      </trkpt>
      <trkpt lat="48.61462" lon="-2.47208">
        <ele>40</ele>
        <time>2018-06-03T07:32:34Z</time>
      </trkpt>
      <trkpt lat="48.61456" lon="-2.4718">
        <ele>41</ele>
        <time>2018-06-03T07:32:38Z</time>
      </trkpt>
      <trkpt lat="48.61451" lon="-2.47149">
        <ele>43</ele>
        <time>2018-06-03T07:32:42Z</time>
      </trkpt>
      <trkpt lat="48.6145" lon="-2.47119">
        <ele>43</ele>
        <time>2018-06-03T07:32:46Z</time>
      </trkpt>
      <trkpt lat="48.61454" lon="-2.47095">
        <ele>43</ele>
        <time>2018-06-03T07:32:50Z</time>
      </trkpt>
      <trkpt lat="48.61471" lon="-2.47096">
        <ele>43</ele>
        <time>2018-06-03T07:32:54Z</time>
      </trkpt>
      <trkpt lat="48.61492" lon="-2.47103">
        <ele>43</ele>
        <time>2018-06-03T07:32:58Z</time>
      </trkpt>
      <trkpt lat="48.6151" lon="-2.47112">
        <ele>43</ele>
        <time>2018-06-03T07:33:02Z</time>
      </trkpt>
      <trkpt lat="48.61525" lon="-2.47131">
        <ele>43</ele>
        <time>2018-06-03T07:33:06Z</time>
      </trkpt>
      <trkpt lat="48.61544" lon="-2.47151">
        <ele>43</ele>
        <time>2018-06-03T07:33:10Z</time>
      </trkpt>
      <trkpt lat="48.61562" lon="-2.47157">
        <ele>43</ele>
        <time>2018-06-03T07:33:14Z</time>
      </trkpt>
      <trkpt lat="48.61575" lon="-2.47155">
        <ele>42</ele>
        <time>2018-06-03T07:33:18Z</time>
      </trkpt>
      <trkpt lat="48.6159" lon="-2.47149">
        <ele>42</ele>
        <time>2018-06-03T07:33:22Z</time>
      </trkpt>
      <trkpt lat="48.61606" lon="-2.47142">
        <ele>42</ele>
        <time>2018-06-03T07:33:26Z</time>
      </trkpt>
      <trkpt lat="48.61623" lon="-2.47135">
        <ele>42</ele>
        <time>2018-06-03T07:33:30Z</time>
      </trkpt>
      <trkpt lat="48.61645" lon="-2.47118">
        <ele>42</ele>
        <time>2018-06-03T07:33:34Z</time>
      </trkpt>
      <trkpt lat="48.61663" lon="-2.47093">
        <ele>42</ele>
        <time>2018-06-03T07:33:38Z</time>
      </trkpt>
      <trkpt lat="48.61681" lon="-2.47062">
        <ele>41</ele>
        <time>2018-06-03T07:33:42Z</time>
      </trkpt>
      <trkpt lat="48.61699" lon="-2.47034">
        <ele>40</ele>
        <time>2018-06-03T07:33:46Z</time>
      </trkpt>
      <trkpt lat="48.61715" lon="-2.47003">
        <ele>40</ele>
        <time>2018-06-03T07:33:50Z</time>
      </trkpt>
      <trkpt lat="48.61731" lon="-2.46977">
        <ele>40</ele>
        <time>2018-06-03T07:33:54Z</time>
      </trkpt>
      <trkpt lat="48.61749" lon="-2.4695">
        <ele>40</ele>
        <time>2018-06-03T07:33:58Z</time>
      </trkpt>
      <trkpt lat="48.61769" lon="-2.46926">
        <ele>38</ele>
        <time>2018-06-03T07:34:02Z</time>
      </trkpt>
      <trkpt lat="48.61787" lon="-2.46904">
        <ele>38</ele>
        <time>2018-06-03T07:34:06Z</time>
      </trkpt>
      <trkpt lat="48.61805" lon="-2.4688">
        <ele>38</ele>
        <time>2018-06-03T07:34:10Z</time>
      </trkpt>
      <trkpt lat="48.61822" lon="-2.46856">
        <ele>38</ele>
        <time>2018-06-03T07:34:14Z</time>
      </trkpt>
      <trkpt lat="48.61843" lon="-2.46834">
        <ele>36</ele>
        <time>2018-06-03T07:34:18Z</time>
      </trkpt>
      <trkpt lat="48.61864" lon="-2.46809">
        <ele>36</ele>
        <time>2018-06-03T07:34:22Z</time>
      </trkpt>
      <trkpt lat="48.6188" lon="-2.46785">
        <ele>35</ele>
        <time>2018-06-03T07:34:26Z</time>
      </trkpt>
      <trkpt lat="48.61896" lon="-2.46757">
        <ele>35</ele>
        <time>2018-06-03T07:34:30Z</time>
      </trkpt>
      <trkpt lat="48.61908" lon="-2.46727">
        <ele>35</ele>
        <time>2018-06-03T07:34:34Z</time>
      </trkpt>
      <trkpt lat="48.6192" lon="-2.46702">
        <ele>31</ele>
        <time>2018-06-03T07:34:38Z</time>
      </trkpt>
      <trkpt lat="48.61933" lon="-2.46677">
        <ele>31</ele>
        <time>2018-06-03T07:34:42Z</time>
      </trkpt>
      <trkpt lat="48.61942" lon="-2.4665">
        <ele>30</ele>
        <time>2018-06-03T07:34:46Z</time>
      </trkpt>
      <trkpt lat="48.6195" lon="-2.46622">
        <ele>30</ele>
        <time>2018-06-03T07:34:50Z</time>
      </trkpt>
      <trkpt lat="48.61957" lon="-2.46607">
        <ele>30</ele>
        <time>2018-06-03T07:34:54Z</time>
      </trkpt>
      <trkpt lat="48.61976" lon="-2.46603">
        <ele>29</ele>
        <time>2018-06-03T07:34:58Z</time>
      </trkpt>
      <trkpt lat="48.62003" lon="-2.46601">
        <ele>26</ele>
        <time>2018-06-03T07:35:02Z</time>
      </trkpt>
      <trkpt lat="48.62033" lon="-2.46591">
        <ele>25</ele>
        <time>2018-06-03T07:35:06Z</time>
      </trkpt>
      <trkpt lat="48.62062" lon="-2.46576">
        <ele>23</ele>
        <time>2018-06-03T07:35:10Z</time>
      </trkpt>
      <trkpt lat="48.62103" lon="-2.46569">
        <ele>21</ele>
        <time>2018-06-03T07:35:14Z</time>
      </trkpt>
      <trkpt lat="48.62142" lon="-2.46567">
        <ele>20</ele>
        <time>2018-06-03T07:35:18Z</time>
      </trkpt>
      <trkpt lat="48.6218" lon="-2.46552">
        <ele>23</ele>
        <time>2018-06-03T07:35:22Z</time>
      </trkpt>
      <trkpt lat="48.62207" lon="-2.46559">
        <ele>24</ele>
        <time>2018-06-03T07:35:26Z</time>
      </trkpt>
      <trkpt lat="48.62221" lon="-2.46571">
        <ele>25</ele>
        <time>2018-06-03T07:35:30Z</time>
      </trkpt>
      <trkpt lat="48.62229" lon="-2.46579">
        <ele>25</ele>
        <time>2018-06-03T07:35:34Z</time>
      </trkpt>
      <trkpt lat="48.62232" lon="-2.466">
        <ele>24</ele>
        <time>2018-06-03T07:35:38Z</time>
      </trkpt>
      <trkpt lat="48.6224" lon="-2.46624">
        <ele>24</ele>
        <time>2018-06-03T07:35:42Z</time>
      </trkpt>
      <trkpt lat="48.6225" lon="-2.46662">
        <ele>25</ele>
        <time>2018-06-03T07:35:46Z</time>
      </trkpt>
      <trkpt lat="48.62256" lon="-2.46687">
        <ele>31</ele>
        <time>2018-06-03T07:35:50Z</time>
      </trkpt>
      <trkpt lat="48.62258" lon="-2.46709">
        <ele>33</ele>
        <time>2018-06-03T07:35:54Z</time>
      </trkpt>
      <trkpt lat="48.62255" lon="-2.46721">
        <ele>33</ele>
        <time>2018-06-03T07:35:58Z</time>
      </trkpt>
      <trkpt lat="48.62243" lon="-2.46736">
        <ele>27</ele>
        <time>2018-06-03T07:36:02Z</time>
      </trkpt>
      <trkpt lat="48.62238" lon="-2.4676">
        <ele>30</ele>
        <time>2018-06-03T07:36:06Z</time>
      </trkpt>
      <trkpt lat="48.62228" lon="-2.46767">
        <ele>30</ele>
        <time>2018-06-03T07:36:10Z</time>
      </trkpt>
      <trkpt lat="48.62223" lon="-2.46776">
        <ele>30</ele>
        <time>2018-06-03T07:36:14Z</time>
      </trkpt>
      <trkpt lat="48.62214" lon="-2.46797">
        <ele>31</ele>
        <time>2018-06-03T07:36:18Z</time>
      </trkpt>
      <trkpt lat="48.62209" lon="-2.46812">
        <ele>31</ele>
        <time>2018-06-03T07:36:22Z</time>
      </trkpt>
      <trkpt lat="48.62194" lon="-2.4682">
        <ele>31</ele>
        <time>2018-06-03T07:36:26Z</time>
      </trkpt>
      <trkpt lat="48.62187" lon="-2.46828">
        <ele>31</ele>
        <time>2018-06-03T07:36:30Z</time>
      </trkpt>
      <trkpt lat="48.6218" lon="-2.46842">
        <ele>34</ele>
        <time>2018-06-03T07:36:34Z</time>
      </trkpt>
      <trkpt lat="48.62175" lon="-2.46858">
        <ele>36</ele>
        <time>2018-06-03T07:36:38Z</time>
      </trkpt>
      <trkpt lat="48.62171" lon="-2.46868">
        <ele>36</ele>
        <time>2018-06-03T07:36:42Z</time>
      </trkpt>
      <trkpt lat="48.62166" lon="-2.46877">
        <ele>32</ele>
        <time>2018-06-03T07:36:46Z</time>
      </trkpt>
      <trkpt lat="48.62162" lon="-2.46888">
        <ele>33</ele>
        <time>2018-06-03T07:36:50Z</time>
      </trkpt>
      <trkpt lat="48.62168" lon="-2.4689">
        <ele>37</ele>
        <time>2018-06-03T07:36:54Z</time>
      </trkpt>
      <trkpt lat="48.62176" lon="-2.46894">
        <ele>38</ele>
        <time>2018-06-03T07:36:58Z</time>
      </trkpt>
      <trkpt lat="48.62188" lon="-2.46891">
        <ele>38</ele>
        <time>2018-06-03T07:37:02Z</time>
      </trkpt>
      <trkpt lat="48.62193" lon="-2.46884">
        <ele>38</ele>
        <time>2018-06-03T07:37:06Z</time>
      </trkpt>
      <trkpt lat="48.62205" lon="-2.46875">
        <ele>38</ele>
        <time>2018-06-03T07:37:10Z</time>
      </trkpt>
      <trkpt lat="48.62218" lon="-2.46865">
        <ele>38</ele>
        <time>2018-06-03T07:37:14Z</time>
      </trkpt>
      <trkpt lat="48.62227" lon="-2.46861">
        <ele>38</ele>
        <time>2018-06-03T07:37:18Z</time>
      </trkpt>
      <trkpt lat="48.62236" lon="-2.4685">
        <ele>38</ele>
        <time>2018-06-03T07:37:22Z</time>
      </trkpt>
      <trkpt lat="48.62246" lon="-2.46842">
        <ele>38</ele>
        <time>2018-06-03T07:37:26Z</time>
      </trkpt>
      <trkpt lat="48.62259" lon="-2.46827">
        <ele>39</ele>
        <time>2018-06-03T07:37:30Z</time>
      </trkpt>
      <trkpt lat="48.62269" lon="-2.46812">
        <ele>39</ele>
        <time>2018-06-03T07:37:34Z</time>
      </trkpt>
      <trkpt lat="48.62279" lon="-2.46794">
        <ele>39</ele>
        <time>2018-06-03T07:37:38Z</time>
      </trkpt>
      <trkpt lat="48.62288" lon="-2.4678">
        <ele>39</ele>
        <time>2018-06-03T07:37:42Z</time>
      </trkpt>
      <trkpt lat="48.62299" lon="-2.4676">
        <ele>40</ele>
        <time>2018-06-03T07:37:46Z</time>
      </trkpt>
      <trkpt lat="48.62307" lon="-2.46747">
        <ele>38</ele>
        <time>2018-06-03T07:37:50Z</time>
      </trkpt>
      <trkpt lat="48.62317" lon="-2.46727">
        <ele>39</ele>
        <time>2018-06-03T07:37:54Z</time>
      </trkpt>
      <trkpt lat="48.62324" lon="-2.46714">
        <ele>38</ele>
        <time>2018-06-03T07:37:58Z</time>
      </trkpt>
      <trkpt lat="48.62337" lon="-2.46698">
        <ele>45</ele>
        <time>2018-06-03T07:38:02Z</time>
      </trkpt>
      <trkpt lat="48.62346" lon="-2.46682">
        <ele>44</ele>
        <time>2018-06-03T07:38:06Z</time>
      </trkpt>
      <trkpt lat="48.62354" lon="-2.46669">
        <ele>44</ele>
        <time>2018-06-03T07:38:10Z</time>
      </trkpt>
      <trkpt lat="48.62362" lon="-2.46649">
        <ele>43</ele>
        <time>2018-06-03T07:38:14Z</time>
      </trkpt>
      <trkpt lat="48.62373" lon="-2.46632">
        <ele>43</ele>
        <time>2018-06-03T07:38:18Z</time>
      </trkpt>
      <trkpt lat="48.62382" lon="-2.46615">
        <ele>43</ele>
        <time>2018-06-03T07:38:22Z</time>
      </trkpt>
      <trkpt lat="48.62393" lon="-2.46599">
        <ele>43</ele>
        <time>2018-06-03T07:38:26Z</time>
      </trkpt>
      <trkpt lat="48.62404" lon="-2.46586">
        <ele>44</ele>
        <time>2018-06-03T07:38:30Z</time>
      </trkpt>
      <trkpt lat="48.62413" lon="-2.46576">
        <ele>43</ele>
        <time>2018-06-03T07:38:34Z</time>
      </trkpt>
      <trkpt lat="48.62405" lon="-2.4657">
        <ele>42</ele>
        <time>2018-06-03T07:38:38Z</time>
      </trkpt>
      <trkpt lat="48.62385" lon="-2.46574">
        <ele>41</ele>
        <time>2018-06-03T07:38:42Z</time>
      </trkpt>
      <trkpt lat="48.62356" lon="-2.46585">
        <ele>41</ele>
        <time>2018-06-03T07:38:46Z</time>
      </trkpt>
      <trkpt lat="48.62324" lon="-2.46598">
        <ele>36</ele>
        <time>2018-06-03T07:38:50Z</time>
      </trkpt>
      <trkpt lat="48.62296" lon="-2.46612">
        <ele>33</ele>
        <time>2018-06-03T07:38:54Z</time>
      </trkpt>
      <trkpt lat="48.62265" lon="-2.46611">
        <ele>31</ele>
        <time>2018-06-03T07:38:58Z</time>
      </trkpt>
      <trkpt lat="48.62242" lon="-2.46594">
        <ele>25</ele>
        <time>2018-06-03T07:39:02Z</time>
      </trkpt>
      <trkpt lat="48.62234" lon="-2.46573">
        <ele>26</ele>
        <time>2018-06-03T07:39:06Z</time>
      </trkpt>
      <trkpt lat="48.62231" lon="-2.46561">
        <ele>26</ele>
        <time>2018-06-03T07:39:10Z</time>
      </trkpt>
      <trkpt lat="48.62232" lon="-2.46554">
        <ele>26</ele>
        <time>2018-06-03T07:39:14Z</time>
      </trkpt>
      <trkpt lat="48.62235" lon="-2.46547">
        <ele>26</ele>
        <time>2018-06-03T07:39:18Z</time>
      </trkpt>
      <trkpt lat="48.62238" lon="-2.46538">
        <ele>27</ele>
        <time>2018-06-03T07:39:22Z</time>
      </trkpt>
      <trkpt lat="48.62245" lon="-2.46531">
        <ele>27</ele>
        <time>2018-06-03T07:39:26Z</time>
      </trkpt>
      <trkpt lat="48.62245" lon="-2.46519">
        <ele>29</ele>
        <time>2018-06-03T07:39:30Z</time>
      </trkpt>
      <trkpt lat="48.62246" lon="-2.46499">
        <ele>32</ele>
        <time>2018-06-03T07:39:34Z</time>
      </trkpt>
      <trkpt lat="48.62244" lon="-2.46479">
        <ele>30</ele>
        <time>2018-06-03T07:39:38Z</time>
      </trkpt>
      <trkpt lat="48.62246" lon="-2.46476">
        <ele>30</ele>
        <time>2018-06-03T07:39:42Z</time>
      </trkpt>
      <trkpt lat="48.6225" lon="-2.46468">
        <ele>34</ele>
        <time>2018-06-03T07:39:46Z</time>
      </trkpt>
      <trkpt lat="48.6225" lon="-2.46475">
        <ele>34</ele>
        <time>2018-06-03T07:39:50Z</time>
      </trkpt>
      <trkpt lat="48.62245" lon="-2.46489">
        <ele>31</ele>
        <time>2018-06-03T07:39:54Z</time>
      </trkpt>
      <trkpt lat="48.62244" lon="-2.46503">
        <ele>31</ele>
        <time>2018-06-03T07:39:58Z</time>
      </trkpt>
      <trkpt lat="48.62241" lon="-2.46521">
        <ele>28</ele>
        <time>2018-06-03T07:40:02Z</time>
      </trkpt>
      <trkpt lat="48.62239" lon="-2.46538">
        <ele>27</ele>
        <time>2018-06-03T07:40:06Z</time>
      </trkpt>
      <trkpt lat="48.62243" lon="-2.46555">
        <ele>26</ele>
        <time>2018-06-03T07:40:10Z</time>
      </trkpt>
      <trkpt lat="48.62252" lon="-2.46566">
        <ele>30</ele>
        <time>2018-06-03T07:40:14Z</time>
      </trkpt>
      <trkpt lat="48.62261" lon="-2.46578">
        <ele>30</ele>
        <time>2018-06-03T07:40:18Z</time>
      </trkpt>
      <trkpt lat="48.62271" lon="-2.46587">
        <ele>31</ele>
        <time>2018-06-03T07:40:22Z</time>
      </trkpt>
      <trkpt lat="48.62283" lon="-2.4659">
        <ele>32</ele>
        <time>2018-06-03T07:40:26Z</time>
      </trkpt>
      <trkpt lat="48.62294" lon="-2.46591">
        <ele>33</ele>
        <time>2018-06-03T07:40:30Z</time>
      </trkpt>
      <trkpt lat="48.62307" lon="-2.4659">
        <ele>34</ele>
        <time>2018-06-03T07:40:34Z</time>
      </trkpt>
      <trkpt lat="48.62317" lon="-2.46583">
        <ele>36</ele>
        <time>2018-06-03T07:40:38Z</time>
      </trkpt>
      <trkpt lat="48.62327" lon="-2.46581">
        <ele>37</ele>
        <time>2018-06-03T07:40:42Z</time>
      </trkpt>
      <trkpt lat="48.62341" lon="-2.46578">
        <ele>39</ele>
        <time>2018-06-03T07:40:46Z</time>
      </trkpt>
      <trkpt lat="48.62349" lon="-2.46577">
        <ele>39</ele>
        <time>2018-06-03T07:40:50Z</time>
      </trkpt>
      <trkpt lat="48.62363" lon="-2.46571">
        <ele>40</ele>
        <time>2018-06-03T07:40:54Z</time>
      </trkpt>
      <trkpt lat="48.62375" lon="-2.46577">
        <ele>41</ele>
        <time>2018-06-03T07:40:58Z</time>
      </trkpt>
      <trkpt lat="48.62387" lon="-2.46573">
        <ele>41</ele>
        <time>2018-06-03T07:41:02Z</time>
      </trkpt>
      <trkpt lat="48.62397" lon="-2.4657">
        <ele>42</ele>
        <time>2018-06-03T07:41:06Z</time>
      </trkpt>
      <trkpt lat="48.62406" lon="-2.46566">
        <ele>42</ele>
        <time>2018-06-03T07:41:10Z</time>
      </trkpt>
      <trkpt lat="48.62416" lon="-2.46564">
        <ele>42</ele>
        <time>2018-06-03T07:41:14Z</time>
      </trkpt>
      <trkpt lat="48.62429" lon="-2.46553">
        <ele>45</ele>
        <time>2018-06-03T07:41:18Z</time>
      </trkpt>
      <trkpt lat="48.62435" lon="-2.46543">
        <ele>45</ele>
        <time>2018-06-03T07:41:22Z</time>
      </trkpt>
      <trkpt lat="48.62446" lon="-2.46536">
        <ele>45</ele>
        <time>2018-06-03T07:41:26Z</time>
      </trkpt>
      <trkpt lat="48.62454" lon="-2.46527">
        <ele>46</ele>
        <time>2018-06-03T07:41:30Z</time>
      </trkpt>
      <trkpt lat="48.62458" lon="-2.46519">
        <ele>46</ele>
        <time>2018-06-03T07:41:34Z</time>
      </trkpt>
      <trkpt lat="48.62469" lon="-2.46512">
        <ele>46</ele>
        <time>2018-06-03T07:41:38Z</time>
      </trkpt>
      <trkpt lat="48.6248" lon="-2.46507">
        <ele>47</ele>
        <time>2018-06-03T07:41:42Z</time>
      </trkpt>
      <trkpt lat="48.62493" lon="-2.46499">
        <ele>48</ele>
        <time>2018-06-03T07:41:46Z</time>
      </trkpt>
      <trkpt lat="48.62504" lon="-2.46493">
        <ele>49</ele>
        <time>2018-06-03T07:41:50Z</time>
      </trkpt>
      <trkpt lat="48.62512" lon="-2.4648">
        <ele>48</ele>
        <time>2018-06-03T07:41:54Z</time>
      </trkpt>
      <trkpt lat="48.62525" lon="-2.46471">
        <ele>48</ele>
        <time>2018-06-03T07:41:58Z</time>
      </trkpt>
      <trkpt lat="48.62537" lon="-2.4646">
        <ele>48</ele>
        <time>2018-06-03T07:42:02Z</time>
      </trkpt>
      <trkpt lat="48.62548" lon="-2.4645">
        <ele>48</ele>
        <time>2018-06-03T07:42:06Z</time>
      </trkpt>
      <trkpt lat="48.62555" lon="-2.46445">
        <ele>48</ele>
        <time>2018-06-03T07:42:10Z</time>
      </trkpt>
      <trkpt lat="48.62566" lon="-2.46438">
        <ele>48</ele>
        <time>2018-06-03T07:42:14Z</time>
      </trkpt>
      <trkpt lat="48.62577" lon="-2.46429">
        <ele>48</ele>
        <time>2018-06-03T07:42:18Z</time>
      </trkpt>
      <trkpt lat="48.62594" lon="-2.46415">
        <ele>48</ele>
        <time>2018-06-03T07:42:22Z</time>
      </trkpt>
      <trkpt lat="48.62609" lon="-2.46402">
        <ele>47</ele>
        <time>2018-06-03T07:42:26Z</time>
      </trkpt>
      <trkpt lat="48.62624" lon="-2.46386">
        <ele>47</ele>
        <time>2018-06-03T07:42:30Z</time>
      </trkpt>
      <trkpt lat="48.62638" lon="-2.4637">
        <ele>47</ele>
        <time>2018-06-03T07:42:34Z</time>
      </trkpt>
      <trkpt lat="48.62652" lon="-2.46348">
        <ele>47</ele>
        <time>2018-06-03T07:42:38Z</time>
      </trkpt>
      <trkpt lat="48.62664" lon="-2.46326">
        <ele>47</ele>
        <time>2018-06-03T07:42:42Z</time>
      </trkpt>
      <trkpt lat="48.62677" lon="-2.463">
        <ele>42</ele>
        <time>2018-06-03T07:42:46Z</time>
      </trkpt>
      <trkpt lat="48.6269" lon="-2.46271">
        <ele>41</ele>
        <time>2018-06-03T07:42:50Z</time>
      </trkpt>
      <trkpt lat="48.62702" lon="-2.46243">
        <ele>41</ele>
        <time>2018-06-03T07:42:54Z</time>
      </trkpt>
      <trkpt lat="48.62713" lon="-2.46213">
        <ele>40</ele>
        <time>2018-06-03T07:42:58Z</time>
      </trkpt>
      <trkpt lat="48.62725" lon="-2.4618">
        <ele>39</ele>
        <time>2018-06-03T07:43:02Z</time>
      </trkpt>
      <trkpt lat="48.62736" lon="-2.46149">
        <ele>39</ele>
        <time>2018-06-03T07:43:06Z</time>
      </trkpt>
      <trkpt lat="48.6275" lon="-2.46111">
        <ele>39</ele>
        <time>2018-06-03T07:43:10Z</time>
      </trkpt>
      <trkpt lat="48.62762" lon="-2.46072">
        <ele>35</ele>
        <time>2018-06-03T07:43:14Z</time>
      </trkpt>
      <trkpt lat="48.62774" lon="-2.46036">
        <ele>34</ele>
        <time>2018-06-03T07:43:18Z</time>
      </trkpt>
      <trkpt lat="48.62787" lon="-2.46">
        <ele>34</ele>
        <time>2018-06-03T07:43:22Z</time>
      </trkpt>
      <trkpt lat="48.62797" lon="-2.45967">
        <ele>35</ele>
        <time>2018-06-03T07:43:26Z</time>
      </trkpt>
      <trkpt lat="48.62813" lon="-2.45942">
        <ele>35</ele>
        <time>2018-06-03T07:43:30Z</time>
      </trkpt>
      <trkpt lat="48.62824" lon="-2.45923">
        <ele>34</ele>
        <time>2018-06-03T07:43:34Z</time>
      </trkpt>
      <trkpt lat="48.62836" lon="-2.45902">
        <ele>32</ele>
        <time>2018-06-03T07:43:38Z</time>
      </trkpt>
      <trkpt lat="48.6285" lon="-2.45884">
        <ele>31</ele>
        <time>2018-06-03T07:43:42Z</time>
      </trkpt>
      <trkpt lat="48.6286" lon="-2.45863">
        <ele>31</ele>
        <time>2018-06-03T07:43:46Z</time>
      </trkpt>
      <trkpt lat="48.62865" lon="-2.45838">
        <ele>32</ele>
        <time>2018-06-03T07:43:50Z</time>
      </trkpt>
      <trkpt lat="48.62881" lon="-2.45815">
        <ele>33</ele>
        <time>2018-06-03T07:43:54Z</time>
      </trkpt>
      <trkpt lat="48.62892" lon="-2.45794">
        <ele>33</ele>
        <time>2018-06-03T07:43:58Z</time>
      </trkpt>
      <trkpt lat="48.62902" lon="-2.45764">
        <ele>33</ele>
        <time>2018-06-03T07:44:02Z</time>
      </trkpt>
      <trkpt lat="48.6291" lon="-2.45736">
        <ele>35</ele>
        <time>2018-06-03T07:44:06Z</time>
      </trkpt>
      <trkpt lat="48.62919" lon="-2.45713">
        <ele>32</ele>
        <time>2018-06-03T07:44:10Z</time>
      </trkpt>
      <trkpt lat="48.62931" lon="-2.45689">
        <ele>33</ele>
        <time>2018-06-03T07:44:14Z</time>
      </trkpt>
      <trkpt lat="48.62935" lon="-2.45663">
        <ele>35</ele>
        <time>2018-06-03T07:44:18Z</time>
      </trkpt>
      <trkpt lat="48.6294" lon="-2.45635">
        <ele>35</ele>
        <time>2018-06-03T07:44:22Z</time>
      </trkpt>
      <trkpt lat="48.62942" lon="-2.45607">
        <ele>35</ele>
        <time>2018-06-03T07:44:26Z</time>
      </trkpt>
      <trkpt lat="48.62946" lon="-2.45582">
        <ele>37</ele>
        <time>2018-06-03T07:44:30Z</time>
      </trkpt>
      <trkpt lat="48.6295" lon="-2.45551">
        <ele>36</ele>
        <time>2018-06-03T07:44:34Z</time>
      </trkpt>
      <trkpt lat="48.62954" lon="-2.45525">
        <ele>36</ele>
        <time>2018-06-03T07:44:38Z</time>
      </trkpt>
      <trkpt lat="48.62955" lon="-2.45499">
        <ele>36</ele>
        <time>2018-06-03T07:44:42Z</time>
      </trkpt>
      <trkpt lat="48.62957" lon="-2.45469">
        <ele>36</ele>
        <time>2018-06-03T07:44:46Z</time>
      </trkpt>
      <trkpt lat="48.6296" lon="-2.4544">
        <ele>36</ele>
        <time>2018-06-03T07:44:50Z</time>
      </trkpt>
      <trkpt lat="48.62961" lon="-2.45411">
        <ele>37</ele>
        <time>2018-06-03T07:44:54Z</time>
      </trkpt>
      <trkpt lat="48.62964" lon="-2.4538">
        <ele>37</ele>
        <time>2018-06-03T07:44:58Z</time>
      </trkpt>
      <trkpt lat="48.62967" lon="-2.4535">
        <ele>37</ele>
        <time>2018-06-03T07:45:02Z</time>
      </trkpt>
      <trkpt lat="48.6297" lon="-2.45324">
        <ele>38</ele>
        <time>2018-06-03T07:45:06Z</time>
      </trkpt>
      <trkpt lat="48.62969" lon="-2.45294">
        <ele>38</ele>
        <time>2018-06-03T07:45:10Z</time>
      </trkpt>
      <trkpt lat="48.62974" lon="-2.45264">
        <ele>38</ele>
        <time>2018-06-03T07:45:14Z</time>
      </trkpt>
      <trkpt lat="48.62976" lon="-2.45233">
        <ele>38</ele>
        <time>2018-06-03T07:45:18Z</time>
      </trkpt>
      <trkpt lat="48.62983" lon="-2.45201">
        <ele>38</ele>
        <time>2018-06-03T07:45:22Z</time>
      </trkpt>
      <trkpt lat="48.62989" lon="-2.45169">
        <ele>37</ele>
        <time>2018-06-03T07:45:26Z</time>
      </trkpt>
      <trkpt lat="48.62992" lon="-2.4514">
        <ele>38</ele>
        <time>2018-06-03T07:45:30Z</time>
      </trkpt>
      <trkpt lat="48.62996" lon="-2.45107">
        <ele>37</ele>
        <time>2018-06-03T07:45:34Z</time>
      </trkpt>
      <trkpt lat="48.62997" lon="-2.45075">
        <ele>37</ele>
        <time>2018-06-03T07:45:38Z</time>
      </trkpt>
      <trkpt lat="48.63004" lon="-2.45045">
        <ele>35</ele>
        <time>2018-06-03T07:45:42Z</time>
      </trkpt>
      <trkpt lat="48.63009" lon="-2.45013">
        <ele>36</ele>
        <time>2018-06-03T07:45:46Z</time>
      </trkpt>
      <trkpt lat="48.63013" lon="-2.44985">
        <ele>37</ele>
        <time>2018-06-03T07:45:50Z</time>
      </trkpt>
      <trkpt lat="48.63016" lon="-2.44964">
        <ele>38</ele>
        <time>2018-06-03T07:45:54Z</time>
      </trkpt>
      <trkpt lat="48.63024" lon="-2.44939">
        <ele>39</ele>
        <time>2018-06-03T07:45:58Z</time>
      </trkpt>
      <trkpt lat="48.63035" lon="-2.44918">
        <ele>39</ele>
        <time>2018-06-03T07:46:02Z</time>
      </trkpt>
      <trkpt lat="48.63045" lon="-2.44891">
        <ele>40</ele>
        <time>2018-06-03T07:46:06Z</time>
      </trkpt>
      <trkpt lat="48.63054" lon="-2.44864">
        <ele>40</ele>
        <time>2018-06-03T07:46:10Z</time>
      </trkpt>
      <trkpt lat="48.6306" lon="-2.44835">
        <ele>40</ele>
        <time>2018-06-03T07:46:14Z</time>
      </trkpt>
      <trkpt lat="48.63068" lon="-2.44803">
        <ele>41</ele>
        <time>2018-06-03T07:46:18Z</time>
      </trkpt>
      <trkpt lat="48.63075" lon="-2.44776">
        <ele>41</ele>
        <time>2018-06-03T07:46:22Z</time>
      </trkpt>
      <trkpt lat="48.63076" lon="-2.44745">
        <ele>42</ele>
        <time>2018-06-03T07:46:26Z</time>
      </trkpt>
      <trkpt lat="48.6308" lon="-2.44712">
        <ele>42</ele>
        <time>2018-06-03T07:46:30Z</time>
      </trkpt>
      <trkpt lat="48.63082" lon="-2.44682">
        <ele>42</ele>
        <time>2018-06-03T07:46:34Z</time>
      </trkpt>
      <trkpt lat="48.63086" lon="-2.4465">
        <ele>42</ele>
        <time>2018-06-03T07:46:38Z</time>
      </trkpt>
      <trkpt lat="48.63089" lon="-2.44621">
        <ele>43</ele>
        <time>2018-06-03T07:46:42Z</time>
      </trkpt>
      <trkpt lat="48.63092" lon="-2.44594">
        <ele>43</ele>
        <time>2018-06-03T07:46:46Z</time>
      </trkpt>
      <trkpt lat="48.63098" lon="-2.44565">
        <ele>45</ele>
        <time>2018-06-03T07:46:50Z</time>
      </trkpt>
      <trkpt lat="48.63101" lon="-2.44538">
        <ele>45</ele>
        <time>2018-06-03T07:46:54Z</time>
      </trkpt>
      <trkpt lat="48.63109" lon="-2.44524">
        <ele>45</ele>
        <time>2018-06-03T07:46:58Z</time>
      </trkpt>
      <trkpt lat="48.63127" lon="-2.44523">
        <ele>46</ele>
        <time>2018-06-03T07:47:02Z</time>
      </trkpt>
      <trkpt lat="48.63143" lon="-2.44521">
        <ele>46</ele>
        <time>2018-06-03T07:47:06Z</time>
      </trkpt>
      <trkpt lat="48.63157" lon="-2.44509">
        <ele>46</ele>
        <time>2018-06-03T07:47:10Z</time>
      </trkpt>
      <trkpt lat="48.63174" lon="-2.445">
        <ele>47</ele>
        <time>2018-06-03T07:47:14Z</time>
      </trkpt>
      <trkpt lat="48.63189" lon="-2.44491">
        <ele>47</ele>
        <time>2018-06-03T07:47:18Z</time>
      </trkpt>
      <trkpt lat="48.63205" lon="-2.44481">
        <ele>47</ele>
        <time>2018-06-03T07:47:22Z</time>
      </trkpt>
      <trkpt lat="48.63222" lon="-2.44475">
        <ele>47</ele>
        <time>2018-06-03T07:47:26Z</time>
      </trkpt>
      <trkpt lat="48.63242" lon="-2.44485">
        <ele>46</ele>
        <time>2018-06-03T07:47:30Z</time>
      </trkpt>
      <trkpt lat="48.63264" lon="-2.44489">
        <ele>46</ele>
        <time>2018-06-03T07:47:34Z</time>
      </trkpt>
      <trkpt lat="48.63276" lon="-2.44464">
        <ele>47</ele>
        <time>2018-06-03T07:47:38Z</time>
      </trkpt>
      <trkpt lat="48.63285" lon="-2.44446">
        <ele>47</ele>
        <time>2018-06-03T07:47:42Z</time>
      </trkpt>
      <trkpt lat="48.63283" lon="-2.44446">
        <ele>47</ele>
        <time>2018-06-03T07:47:46Z</time>
      </trkpt>
      <trkpt lat="48.63281" lon="-2.44455">
        <ele>47</ele>
        <time>2018-06-03T07:47:50Z</time>
      </trkpt>
      <trkpt lat="48.63292" lon="-2.44469">
        <ele>46</ele>
        <time>2018-06-03T07:47:54Z</time>
      </trkpt>
      <trkpt lat="48.63309" lon="-2.44479">
        <ele>46</ele>
        <time>2018-06-03T07:47:58Z</time>
      </trkpt>
      <trkpt lat="48.63328" lon="-2.4448">
        <ele>46</ele>
        <time>2018-06-03T07:48:02Z</time>
      </trkpt>
      <trkpt lat="48.63348" lon="-2.44485">
        <ele>45</ele>
        <time>2018-06-03T07:48:06Z</time>
      </trkpt>
      <trkpt lat="48.63358" lon="-2.44496">
        <ele>44</ele>
        <time>2018-06-03T07:48:10Z</time>
      </trkpt>
      <trkpt lat="48.63359" lon="-2.44505">
        <ele>43</ele>
        <time>2018-06-03T07:48:14Z</time>
      </trkpt>
      <trkpt lat="48.63358" lon="-2.44516">
        <ele>43</ele>
        <time>2018-06-03T07:48:18Z</time>
      </trkpt>
      <trkpt lat="48.63351" lon="-2.44532">
        <ele>43</ele>
        <time>2018-06-03T07:48:22Z</time>
      </trkpt>
      <trkpt lat="48.63346" lon="-2.44552">
        <ele>42</ele>
        <time>2018-06-03T07:48:26Z</time>
      </trkpt>
      <trkpt lat="48.63352" lon="-2.4457">
        <ele>41</ele>
        <time>2018-06-03T07:48:30Z</time>
      </trkpt>
      <trkpt lat="48.63361" lon="-2.44587">
        <ele>40</ele>
        <time>2018-06-03T07:48:34Z</time>
      </trkpt>
      <trkpt lat="48.63373" lon="-2.44603">
        <ele>40</ele>
        <time>2018-06-03T07:48:38Z</time>
      </trkpt>
      <trkpt lat="48.63393" lon="-2.44621">
        <ele>40</ele>
        <time>2018-06-03T07:48:42Z</time>
      </trkpt>
      <trkpt lat="48.63408" lon="-2.44641">
        <ele>41</ele>
        <time>2018-06-03T07:48:46Z</time>
      </trkpt>
      <trkpt lat="48.63423" lon="-2.44645">
        <ele>42</ele>
        <time>2018-06-03T07:48:50Z</time>
      </trkpt>
      <trkpt lat="48.63444" lon="-2.44651">
        <ele>42</ele>
        <time>2018-06-03T07:48:54Z</time>
      </trkpt>
      <trkpt lat="48.63461" lon="-2.44652">
        <ele>42</ele>
        <time>2018-06-03T07:48:58Z</time>
      </trkpt>
      <trkpt lat="48.63475" lon="-2.44656">
        <ele>43</ele>
        <time>2018-06-03T07:49:02Z</time>
      </trkpt>
      <trkpt lat="48.63491" lon="-2.44654">
        <ele>43</ele>
        <time>2018-06-03T07:49:06Z</time>
      </trkpt>
      <trkpt lat="48.63504" lon="-2.44654">
        <ele>44</ele>
        <time>2018-06-03T07:49:10Z</time>
      </trkpt>
      <trkpt lat="48.63516" lon="-2.44649">
        <ele>44</ele>
        <time>2018-06-03T07:49:14Z</time>
      </trkpt>
      <trkpt lat="48.63529" lon="-2.44638">
        <ele>45</ele>
        <time>2018-06-03T07:49:18Z</time>
      </trkpt>
      <trkpt lat="48.63535" lon="-2.44615">
        <ele>45</ele>
        <time>2018-06-03T07:49:22Z</time>
      </trkpt>
      <trkpt lat="48.6354" lon="-2.44594">
        <ele>45</ele>
        <time>2018-06-03T07:49:26Z</time>
      </trkpt>
      <trkpt lat="48.63545" lon="-2.44574">
        <ele>45</ele>
        <time>2018-06-03T07:49:30Z</time>
      </trkpt>
      <trkpt lat="48.63549" lon="-2.44555">
        <ele>46</ele>
        <time>2018-06-03T07:49:34Z</time>
      </trkpt>
      <trkpt lat="48.63561" lon="-2.44544">
        <ele>46</ele>
        <time>2018-06-03T07:49:38Z</time>
      </trkpt>
      <trkpt lat="48.63576" lon="-2.44544">
        <ele>46</ele>
        <time>2018-06-03T07:49:42Z</time>
      </trkpt>
      <trkpt lat="48.63589" lon="-2.44549">
        <ele>49</ele>
        <time>2018-06-03T07:49:46Z</time>
      </trkpt>
      <trkpt lat="48.63604" lon="-2.44554">
        <ele>49</ele>
        <time>2018-06-03T07:49:50Z</time>
      </trkpt>
      <trkpt lat="48.63615" lon="-2.44557">
        <ele>50</ele>
        <time>2018-06-03T07:49:54Z</time>
      </trkpt>
      <trkpt lat="48.63623" lon="-2.44557">
        <ele>50</ele>
        <time>2018-06-03T07:49:58Z</time>
      </trkpt>
      <trkpt lat="48.6363" lon="-2.44557">
        <ele>50</ele>
        <time>2018-06-03T07:50:02Z</time>
      </trkpt>
      <trkpt lat="48.63642" lon="-2.44568">
        <ele>51</ele>
        <time>2018-06-03T07:50:06Z</time>
      </trkpt>
      <trkpt lat="48.63649" lon="-2.44574">
        <ele>51</ele>
        <time>2018-06-03T07:50:10Z</time>
      </trkpt>
      <trkpt lat="48.63659" lon="-2.44579">
        <ele>52</ele>
        <time>2018-06-03T07:50:14Z</time>
      </trkpt>
      <trkpt lat="48.63667" lon="-2.44583">
        <ele>53</ele>
        <time>2018-06-03T07:50:18Z</time>
      </trkpt>
      <trkpt lat="48.63678" lon="-2.44588">
        <ele>55</ele>
        <time>2018-06-03T07:50:22Z</time>
      </trkpt>
      <trkpt lat="48.63688" lon="-2.44592">
        <ele>56</ele>
        <time>2018-06-03T07:50:26Z</time>
      </trkpt>
      <trkpt lat="48.63697" lon="-2.44594">
        <ele>57</ele>
        <time>2018-06-03T07:50:30Z</time>
      </trkpt>
      <trkpt lat="48.63706" lon="-2.44595">
        <ele>57</ele>
        <time>2018-06-03T07:50:34Z</time>
      </trkpt>
      <trkpt lat="48.63711" lon="-2.44599">
        <ele>58</ele>
        <time>2018-06-03T07:50:38Z</time>
      </trkpt>
      <trkpt lat="48.63715" lon="-2.44601">
        <ele>58</ele>
        <time>2018-06-03T07:50:42Z</time>
      </trkpt>
      <trkpt lat="48.63725" lon="-2.44598">
        <ele>59</ele>
        <time>2018-06-03T07:50:46Z</time>
      </trkpt>
      <trkpt lat="48.63739" lon="-2.44602">
        <ele>59</ele>
        <time>2018-06-03T07:50:50Z</time>
      </trkpt>
      <trkpt lat="48.63744" lon="-2.44604">
        <ele>59</ele>
        <time>2018-06-03T07:50:54Z</time>
      </trkpt>
      <trkpt lat="48.63748" lon="-2.44606">
        <ele>59</ele>
        <time>2018-06-03T07:50:58Z</time>
      </trkpt>
      <trkpt lat="48.63754" lon="-2.44605">
        <ele>63</ele>
        <time>2018-06-03T07:51:02Z</time>
      </trkpt>
      <trkpt lat="48.63759" lon="-2.44608">
        <ele>63</ele>
        <time>2018-06-03T07:51:06Z</time>
      </trkpt>
      <trkpt lat="48.63771" lon="-2.44609">
        <ele>63</ele>
        <time>2018-06-03T07:51:10Z</time>
      </trkpt>
      <trkpt lat="48.63778" lon="-2.44609">
        <ele>63</ele>
        <time>2018-06-03T07:51:14Z</time>
      </trkpt>
      <trkpt lat="48.63786" lon="-2.44612">
        <ele>63</ele>
        <time>2018-06-03T07:51:18Z</time>
      </trkpt>
      <trkpt lat="48.63792" lon="-2.44616">
        <ele>64</ele>
        <time>2018-06-03T07:51:22Z</time>
      </trkpt>
      <trkpt lat="48.63801" lon="-2.44617">
        <ele>64</ele>
        <time>2018-06-03T07:51:26Z</time>
      </trkpt>
      <trkpt lat="48.63813" lon="-2.44615">
        <ele>64</ele>
        <time>2018-06-03T07:51:30Z</time>
      </trkpt>
      <trkpt lat="48.63819" lon="-2.44613">
        <ele>64</ele>
        <time>2018-06-03T07:51:34Z</time>
      </trkpt>
      <trkpt lat="48.63825" lon="-2.44605">
        <ele>64</ele>
        <time>2018-06-03T07:51:38Z</time>
      </trkpt>
      <trkpt lat="48.63826" lon="-2.44594">
        <ele>65</ele>
        <time>2018-06-03T07:51:42Z</time>
      </trkpt>
      <trkpt lat="48.63824" lon="-2.44576">
        <ele>64</ele>
        <time>2018-06-03T07:51:46Z</time>
      </trkpt>
      <trkpt lat="48.6382" lon="-2.44562">
        <ele>64</ele>
        <time>2018-06-03T07:51:50Z</time>
      </trkpt>
      <trkpt lat="48.6382" lon="-2.44544">
        <ele>63</ele>
        <time>2018-06-03T07:51:54Z</time>
      </trkpt>
      <trkpt lat="48.63825" lon="-2.44532">
        <ele>63</ele>
        <time>2018-06-03T07:51:58Z</time>
      </trkpt>
      <trkpt lat="48.63827" lon="-2.44524">
        <ele>63</ele>
        <time>2018-06-03T07:52:02Z</time>
      </trkpt>
      <trkpt lat="48.63828" lon="-2.4452">
        <ele>63</ele>
        <time>2018-06-03T07:52:06Z</time>
      </trkpt>
      <trkpt lat="48.63828" lon="-2.44526">
        <ele>63</ele>
        <time>2018-06-03T07:52:10Z</time>
      </trkpt>
      <trkpt lat="48.63825" lon="-2.44535">
        <ele>63</ele>
        <time>2018-06-03T07:52:14Z</time>
      </trkpt>
      <trkpt lat="48.63823" lon="-2.44545">
        <ele>63</ele>
        <time>2018-06-03T07:52:18Z</time>
      </trkpt>
      <trkpt lat="48.63821" lon="-2.44558">
        <ele>64</ele>
        <time>2018-06-03T07:52:22Z</time>
      </trkpt>
      <trkpt lat="48.63819" lon="-2.44569">
        <ele>64</ele>
        <time>2018-06-03T07:52:26Z</time>
      </trkpt>
      <trkpt lat="48.63818" lon="-2.44574">
        <ele>64</ele>
        <time>2018-06-03T07:52:30Z</time>
      </trkpt>
      <trkpt lat="48.6382" lon="-2.44563">
        <ele>64</ele>
        <time>2018-06-03T07:52:34Z</time>
      </trkpt>
      <trkpt lat="48.6382" lon="-2.44545">
        <ele>63</ele>
        <time>2018-06-03T07:52:38Z</time>
      </trkpt>
      <trkpt lat="48.63821" lon="-2.44529">
        <ele>63</ele>
        <time>2018-06-03T07:52:42Z</time>
      </trkpt>
      <trkpt lat="48.6383" lon="-2.44523">
        <ele>63</ele>
        <time>2018-06-03T07:52:46Z</time>
      </trkpt>
      <trkpt lat="48.63853" lon="-2.44526">
        <ele>64</ele>
        <time>2018-06-03T07:52:50Z</time>
      </trkpt>
      <trkpt lat="48.63879" lon="-2.44524">
        <ele>63</ele>
        <time>2018-06-03T07:52:54Z</time>
      </trkpt>
      <trkpt lat="48.63898" lon="-2.44527">
        <ele>63</ele>
        <time>2018-06-03T07:52:58Z</time>
      </trkpt>
      <trkpt lat="48.63921" lon="-2.4453">
        <ele>62</ele>
        <time>2018-06-03T07:53:02Z</time>
      </trkpt>
      <trkpt lat="48.63945" lon="-2.44532">
        <ele>62</ele>
        <time>2018-06-03T07:53:06Z</time>
      </trkpt>
      <trkpt lat="48.6397" lon="-2.4453">
        <ele>61</ele>
        <time>2018-06-03T07:53:10Z</time>
      </trkpt>
      <trkpt lat="48.63992" lon="-2.4453">
        <ele>61</ele>
        <time>2018-06-03T07:53:14Z</time>
      </trkpt>
      <trkpt lat="48.64014" lon="-2.44528">
        <ele>60</ele>
        <time>2018-06-03T07:53:18Z</time>
      </trkpt>
      <trkpt lat="48.64036" lon="-2.44536">
        <ele>59</ele>
        <time>2018-06-03T07:53:22Z</time>
      </trkpt>
      <trkpt lat="48.64056" lon="-2.44534">
        <ele>59</ele>
        <time>2018-06-03T07:53:26Z</time>
      </trkpt>
      <trkpt lat="48.64082" lon="-2.44536">
        <ele>59</ele>
        <time>2018-06-03T07:53:30Z</time>
      </trkpt>
      <trkpt lat="48.64111" lon="-2.44543">
        <ele>57</ele>
        <time>2018-06-03T07:53:34Z</time>
      </trkpt>
      <trkpt lat="48.64144" lon="-2.44545">
        <ele>56</ele>
        <time>2018-06-03T07:53:38Z</time>
      </trkpt>
      <trkpt lat="48.64174" lon="-2.44544">
        <ele>53</ele>
        <time>2018-06-03T07:53:42Z</time>
      </trkpt>
      <trkpt lat="48.64208" lon="-2.4455">
        <ele>53</ele>
        <time>2018-06-03T07:53:46Z</time>
      </trkpt>
      <trkpt lat="48.64229" lon="-2.44549">
        <ele>52</ele>
        <time>2018-06-03T07:53:50Z</time>
      </trkpt>
      <trkpt lat="48.64231" lon="-2.44567">
        <ele>52</ele>
        <time>2018-06-03T07:53:54Z</time>
      </trkpt>
      <trkpt lat="48.64353" lon="-2.44523">
        <ele>44.3</ele>
      </trkpt>
      <trkpt lat="48.64585" lon="-2.44483">
        <ele>42</ele>
        <time>2018-06-03T08:25:27Z</time>
      </trkpt>
      <trkpt lat="48.64586" lon="-2.44475">
        <ele>43</ele>
        <time>2018-06-03T08:25:31Z</time>
      </trkpt>
      <trkpt lat="48.64596" lon="-2.44474">
        <ele>43</ele>
        <time>2018-06-03T08:25:39Z</time>
      </trkpt>
      <trkpt lat="48.64612" lon="-2.4447">
        <ele>44</ele>
        <time>2018-06-03T08:25:43Z</time>
      </trkpt>
      <trkpt lat="48.6462" lon="-2.44461">
        <ele>45</ele>
        <time>2018-06-03T08:25:47Z</time>
      </trkpt>
      <trkpt lat="48.64618" lon="-2.44448">
        <ele>45</ele>
        <time>2018-06-03T08:25:51Z</time>
      </trkpt>
      <trkpt lat="48.64614" lon="-2.44436">
        <ele>45</ele>
        <time>2018-06-03T08:25:55Z</time>
      </trkpt>
      <trkpt lat="48.64611" lon="-2.44425">
        <ele>45</ele>
        <time>2018-06-03T08:25:59Z</time>
      </trkpt>
      <trkpt lat="48.64607" lon="-2.44419">
        <ele>44</ele>
        <time>2018-06-03T08:26:03Z</time>
      </trkpt>
      <trkpt lat="48.64603" lon="-2.44408">
        <ele>46</ele>
        <time>2018-06-03T08:26:07Z</time>
      </trkpt>
      <trkpt lat="48.64597" lon="-2.44396">
        <ele>47</ele>
        <time>2018-06-03T08:26:11Z</time>
      </trkpt>
      <trkpt lat="48.64595" lon="-2.44393">
        <ele>47</ele>
        <time>2018-06-03T08:26:15Z</time>
      </trkpt>
      <trkpt lat="48.6459" lon="-2.44379">
        <ele>48</ele>
        <time>2018-06-03T08:26:19Z</time>
      </trkpt>
      <trkpt lat="48.6458" lon="-2.44372">
        <ele>46</ele>
        <time>2018-06-03T08:26:23Z</time>
      </trkpt>
      <trkpt lat="48.64572" lon="-2.44365">
        <ele>46</ele>
        <time>2018-06-03T08:26:27Z</time>
      </trkpt>
      <trkpt lat="48.64569" lon="-2.4436">
        <ele>46</ele>
        <time>2018-06-03T08:26:31Z</time>
      </trkpt>
      <trkpt lat="48.64563" lon="-2.44354">
        <ele>46</ele>
        <time>2018-06-03T08:26:35Z</time>
      </trkpt>
      <trkpt lat="48.64559" lon="-2.44345">
        <ele>46</ele>
        <time>2018-06-03T08:26:39Z</time>
      </trkpt>
      <trkpt lat="48.64552" lon="-2.44337">
        <ele>46</ele>
        <time>2018-06-03T08:26:43Z</time>
      </trkpt>
      <trkpt lat="48.64543" lon="-2.44324">
        <ele>48</ele>
        <time>2018-06-03T08:26:47Z</time>
      </trkpt>
      <trkpt lat="48.64541" lon="-2.44311">
        <ele>48</ele>
        <time>2018-06-03T08:26:51Z</time>
      </trkpt>
      <trkpt lat="48.64545" lon="-2.44304">
        <ele>48</ele>
        <time>2018-06-03T08:26:55Z</time>
      </trkpt>
      <trkpt lat="48.64549" lon="-2.4429">
        <ele>49</ele>
        <time>2018-06-03T08:26:59Z</time>
      </trkpt>
      <trkpt lat="48.64551" lon="-2.44277">
        <ele>49</ele>
        <time>2018-06-03T08:27:03Z</time>
      </trkpt>
      <trkpt lat="48.64555" lon="-2.44263">
        <ele>49</ele>
        <time>2018-06-03T08:27:07Z</time>
      </trkpt>
      <trkpt lat="48.64557" lon="-2.44247">
        <ele>50</ele>
        <time>2018-06-03T08:27:11Z</time>
      </trkpt>
      <trkpt lat="48.64563" lon="-2.44228">
        <ele>50</ele>
        <time>2018-06-03T08:27:15Z</time>
      </trkpt>
      <trkpt lat="48.64567" lon="-2.44211">
        <ele>50</ele>
        <time>2018-06-03T08:27:19Z</time>
      </trkpt>
      <trkpt lat="48.64569" lon="-2.44191">
        <ele>50</ele>
        <time>2018-06-03T08:27:23Z</time>
      </trkpt>
      <trkpt lat="48.64569" lon="-2.44165">
        <ele>51</ele>
        <time>2018-06-03T08:27:27Z</time>
      </trkpt>
      <trkpt lat="48.6457" lon="-2.44141">
        <ele>50</ele>
        <time>2018-06-03T08:27:31Z</time>
      </trkpt>
      <trkpt lat="48.64565" lon="-2.44112">
        <ele>50</ele>
        <time>2018-06-03T08:27:35Z</time>
      </trkpt>
      <trkpt lat="48.64565" lon="-2.44086">
        <ele>50</ele>
        <time>2018-06-03T08:27:39Z</time>
      </trkpt>
      <trkpt lat="48.64565" lon="-2.44059">
        <ele>50</ele>
        <time>2018-06-03T08:27:43Z</time>
      </trkpt>
      <trkpt lat="48.64565" lon="-2.44029">
        <ele>50</ele>
        <time>2018-06-03T08:27:47Z</time>
      </trkpt>
      <trkpt lat="48.64566" lon="-2.43999">
        <ele>50</ele>
        <time>2018-06-03T08:27:51Z</time>
      </trkpt>
      <trkpt lat="48.64568" lon="-2.4397">
        <ele>50</ele>
        <time>2018-06-03T08:27:55Z</time>
      </trkpt>
      <trkpt lat="48.64567" lon="-2.43935">
        <ele>49</ele>
        <time>2018-06-03T08:27:59Z</time>
      </trkpt>
      <trkpt lat="48.64564" lon="-2.439">
        <ele>48</ele>
        <time>2018-06-03T08:28:03Z</time>
      </trkpt>
      <trkpt lat="48.64553" lon="-2.43866">
        <ele>48</ele>
        <time>2018-06-03T08:28:07Z</time>
      </trkpt>
      <trkpt lat="48.64539" lon="-2.43835">
        <ele>48</ele>
        <time>2018-06-03T08:28:11Z</time>
      </trkpt>
      <trkpt lat="48.64527" lon="-2.43811">
        <ele>48</ele>
        <time>2018-06-03T08:28:15Z</time>
      </trkpt>
      <trkpt lat="48.64523" lon="-2.43786">
        <ele>48</ele>
        <time>2018-06-03T08:28:19Z</time>
      </trkpt>
      <trkpt lat="48.64538" lon="-2.43771">
        <ele>48</ele>
        <time>2018-06-03T08:28:23Z</time>
      </trkpt>
      <trkpt lat="48.64554" lon="-2.4375">
        <ele>48</ele>
        <time>2018-06-03T08:28:27Z</time>
      </trkpt>
      <trkpt lat="48.64572" lon="-2.4373">
        <ele>48</ele>
        <time>2018-06-03T08:28:31Z</time>
      </trkpt>
      <trkpt lat="48.64586" lon="-2.43715">
        <ele>47</ele>
        <time>2018-06-03T08:28:35Z</time>
      </trkpt>
      <trkpt lat="48.64599" lon="-2.43693">
        <ele>47</ele>
        <time>2018-06-03T08:28:39Z</time>
      </trkpt>
      <trkpt lat="48.64609" lon="-2.43668">
        <ele>47</ele>
        <time>2018-06-03T08:28:43Z</time>
      </trkpt>
      <trkpt lat="48.64619" lon="-2.43649">
        <ele>47</ele>
        <time>2018-06-03T08:28:47Z</time>
      </trkpt>
      <trkpt lat="48.64629" lon="-2.43633">
        <ele>46</ele>
        <time>2018-06-03T08:28:51Z</time>
      </trkpt>
      <trkpt lat="48.64621" lon="-2.43624">
        <ele>47</ele>
        <time>2018-06-03T08:28:55Z</time>
      </trkpt>
      <trkpt lat="48.64612" lon="-2.43626">
        <ele>47</ele>
        <time>2018-06-03T08:28:59Z</time>
      </trkpt>
      <trkpt lat="48.64596" lon="-2.4361">
        <ele>47</ele>
        <time>2018-06-03T08:29:03Z</time>
      </trkpt>
      <trkpt lat="48.64581" lon="-2.436">
        <ele>48</ele>
        <time>2018-06-03T08:29:07Z</time>
      </trkpt>
      <trkpt lat="48.64556" lon="-2.43586">
        <ele>48</ele>
        <time>2018-06-03T08:29:11Z</time>
      </trkpt>
      <trkpt lat="48.64539" lon="-2.43579">
        <ele>47</ele>
        <time>2018-06-03T08:29:15Z</time>
      </trkpt>
      <trkpt lat="48.64519" lon="-2.43584">
        <ele>48</ele>
        <time>2018-06-03T08:29:19Z</time>
      </trkpt>
      <trkpt lat="48.645" lon="-2.4359">
        <ele>48</ele>
        <time>2018-06-03T08:29:23Z</time>
      </trkpt>
      <trkpt lat="48.64482" lon="-2.4359">
        <ele>48</ele>
        <time>2018-06-03T08:29:27Z</time>
      </trkpt>
      <trkpt lat="48.64465" lon="-2.43582">
        <ele>48</ele>
        <time>2018-06-03T08:29:31Z</time>
      </trkpt>
      <trkpt lat="48.6445" lon="-2.43574">
        <ele>48</ele>
        <time>2018-06-03T08:29:35Z</time>
      </trkpt>
      <trkpt lat="48.64446" lon="-2.43557">
        <ele>48</ele>
        <time>2018-06-03T08:29:39Z</time>
      </trkpt>
      <trkpt lat="48.64451" lon="-2.43542">
        <ele>48</ele>
        <time>2018-06-03T08:29:43Z</time>
      </trkpt>
      <trkpt lat="48.64446" lon="-2.43535">
        <ele>48</ele>
        <time>2018-06-03T08:29:47Z</time>
      </trkpt>
      <trkpt lat="48.64444" lon="-2.43529">
        <ele>48</ele>
        <time>2018-06-03T08:29:51Z</time>
      </trkpt>
      <trkpt lat="48.64454" lon="-2.43523">
        <ele>48</ele>
        <time>2018-06-03T08:29:55Z</time>
      </trkpt>
      <trkpt lat="48.64467" lon="-2.43515">
        <ele>48</ele>
        <time>2018-06-03T08:29:59Z</time>
      </trkpt>
      <trkpt lat="48.64477" lon="-2.43505">
        <ele>48</ele>
        <time>2018-06-03T08:30:03Z</time>
      </trkpt>
      <trkpt lat="48.6449" lon="-2.43485">
        <ele>47</ele>
        <time>2018-06-03T08:30:07Z</time>
      </trkpt>
      <trkpt lat="48.64502" lon="-2.43463">
        <ele>47</ele>
        <time>2018-06-03T08:30:11Z</time>
      </trkpt>
      <trkpt lat="48.6452" lon="-2.43446">
        <ele>47</ele>
        <time>2018-06-03T08:30:15Z</time>
      </trkpt>
      <trkpt lat="48.64543" lon="-2.43442">
        <ele>47</ele>
        <time>2018-06-03T08:30:19Z</time>
      </trkpt>
      <trkpt lat="48.64568" lon="-2.43441">
        <ele>47</ele>
        <time>2018-06-03T08:30:23Z</time>
      </trkpt>
      <trkpt lat="48.64591" lon="-2.43435">
        <ele>47</ele>
        <time>2018-06-03T08:30:27Z</time>
      </trkpt>
      <trkpt lat="48.64608" lon="-2.43415">
        <ele>47</ele>
        <time>2018-06-03T08:30:31Z</time>
      </trkpt>
      <trkpt lat="48.64619" lon="-2.43384">
        <ele>47</ele>
        <time>2018-06-03T08:30:35Z</time>
      </trkpt>
      <trkpt lat="48.64627" lon="-2.43355">
        <ele>47</ele>
        <time>2018-06-03T08:30:39Z</time>
      </trkpt>
      <trkpt lat="48.64628" lon="-2.43323">
        <ele>44</ele>
        <time>2018-06-03T08:30:43Z</time>
      </trkpt>
      <trkpt lat="48.64631" lon="-2.4329">
        <ele>43</ele>
        <time>2018-06-03T08:30:47Z</time>
      </trkpt>
      <trkpt lat="48.64636" lon="-2.43275">
        <ele>43</ele>
        <time>2018-06-03T08:30:51Z</time>
      </trkpt>
      <trkpt lat="48.64647" lon="-2.43269">
        <ele>42</ele>
        <time>2018-06-03T08:30:55Z</time>
      </trkpt>
      <trkpt lat="48.64659" lon="-2.43264">
        <ele>41</ele>
        <time>2018-06-03T08:30:59Z</time>
      </trkpt>
      <trkpt lat="48.64675" lon="-2.43259">
        <ele>40</ele>
        <time>2018-06-03T08:31:03Z</time>
      </trkpt>
      <trkpt lat="48.64701" lon="-2.43241">
        <ele>37</ele>
        <time>2018-06-03T08:31:07Z</time>
      </trkpt>
      <trkpt lat="48.64724" lon="-2.43219">
        <ele>36</ele>
        <time>2018-06-03T08:31:11Z</time>
      </trkpt>
      <trkpt lat="48.64749" lon="-2.43195">
        <ele>35</ele>
        <time>2018-06-03T08:31:15Z</time>
      </trkpt>
      <trkpt lat="48.64773" lon="-2.43168">
        <ele>32</ele>
        <time>2018-06-03T08:31:19Z</time>
      </trkpt>
      <trkpt lat="48.64796" lon="-2.43149">
        <ele>27</ele>
        <time>2018-06-03T08:31:23Z</time>
      </trkpt>
      <trkpt lat="48.64815" lon="-2.43121">
        <ele>26</ele>
        <time>2018-06-03T08:31:27Z</time>
      </trkpt>
      <trkpt lat="48.64819" lon="-2.43096">
        <ele>23</ele>
        <time>2018-06-03T08:31:31Z</time>
      </trkpt>
      <trkpt lat="48.64815" lon="-2.43074">
        <ele>23</ele>
        <time>2018-06-03T08:31:35Z</time>
      </trkpt>
      <trkpt lat="48.64811" lon="-2.43049">
        <ele>25</ele>
        <time>2018-06-03T08:31:39Z</time>
      </trkpt>
      <trkpt lat="48.64813" lon="-2.43012">
        <ele>23</ele>
        <time>2018-06-03T08:31:43Z</time>
      </trkpt>
      <trkpt lat="48.64818" lon="-2.42974">
        <ele>24</ele>
        <time>2018-06-03T08:31:47Z</time>
      </trkpt>
      <trkpt lat="48.6483" lon="-2.42933">
        <ele>21</ele>
        <time>2018-06-03T08:31:51Z</time>
      </trkpt>
      <trkpt lat="48.64839" lon="-2.42891">
        <ele>13</ele>
        <time>2018-06-03T08:31:55Z</time>
      </trkpt>
      <trkpt lat="48.64846" lon="-2.42854">
        <ele>13</ele>
        <time>2018-06-03T08:31:59Z</time>
      </trkpt>
      <trkpt lat="48.64845" lon="-2.42818">
        <ele>12</ele>
        <time>2018-06-03T08:32:03Z</time>
      </trkpt>
      <trkpt lat="48.64831" lon="-2.42807">
        <ele>17</ele>
        <time>2018-06-03T08:32:07Z</time>
      </trkpt>
      <trkpt lat="48.64821" lon="-2.42806">
        <ele>17</ele>
        <time>2018-06-03T08:32:11Z</time>
      </trkpt>
      <trkpt lat="48.64817" lon="-2.42808">
        <ele>17</ele>
        <time>2018-06-03T08:32:15Z</time>
      </trkpt>
      <trkpt lat="48.64809" lon="-2.4281">
        <ele>18</ele>
        <time>2018-06-03T08:32:19Z</time>
      </trkpt>
      <trkpt lat="48.64801" lon="-2.4281">
        <ele>18</ele>
        <time>2018-06-03T08:32:23Z</time>
      </trkpt>
      <trkpt lat="48.64798" lon="-2.42812">
        <ele>19</ele>
        <time>2018-06-03T08:32:27Z</time>
      </trkpt>
      <trkpt lat="48.64794" lon="-2.42815">
        <ele>19</ele>
        <time>2018-06-03T08:32:35Z</time>
      </trkpt>
      <trkpt lat="48.64789" lon="-2.42822">
        <ele>20</ele>
        <time>2018-06-03T08:32:39Z</time>
      </trkpt>
      <trkpt lat="48.64779" lon="-2.42824">
        <ele>22</ele>
        <time>2018-06-03T08:32:43Z</time>
      </trkpt>
      <trkpt lat="48.64766" lon="-2.42823">
        <ele>24</ele>
        <time>2018-06-03T08:32:51Z</time>
      </trkpt>
      <trkpt lat="48.64755" lon="-2.42814">
        <ele>24</ele>
        <time>2018-06-03T08:32:55Z</time>
      </trkpt>
      <trkpt lat="48.64753" lon="-2.42821">
        <ele>25</ele>
        <time>2018-06-03T08:32:59Z</time>
      </trkpt>
      <trkpt lat="48.64739" lon="-2.42823">
        <ele>30</ele>
        <time>2018-06-03T08:33:07Z</time>
      </trkpt>
      <trkpt lat="48.64723" lon="-2.42818">
        <ele>30</ele>
        <time>2018-06-03T08:33:15Z</time>
      </trkpt>
      <trkpt lat="48.64718" lon="-2.42814">
        <ele>30</ele>
        <time>2018-06-03T08:33:23Z</time>
      </trkpt>
      <trkpt lat="48.64712" lon="-2.42814">
        <ele>30</ele>
        <time>2018-06-03T08:33:27Z</time>
      </trkpt>
      <trkpt lat="48.64705" lon="-2.42813">
        <ele>31</ele>
        <time>2018-06-03T08:33:31Z</time>
      </trkpt>
      <trkpt lat="48.64698" lon="-2.42811">
        <ele>31</ele>
        <time>2018-06-03T08:33:35Z</time>
      </trkpt>
      <trkpt lat="48.64689" lon="-2.42811">
        <ele>32</ele>
        <time>2018-06-03T08:33:39Z</time>
      </trkpt>
      <trkpt lat="48.64679" lon="-2.42805">
        <ele>32</ele>
        <time>2018-06-03T08:33:43Z</time>
      </trkpt>
      <trkpt lat="48.64674" lon="-2.42808">
        <ele>33</ele>
        <time>2018-06-03T08:33:51Z</time>
      </trkpt>
      <trkpt lat="48.64668" lon="-2.42806">
        <ele>32</ele>
        <time>2018-06-03T08:33:55Z</time>
      </trkpt>
      <trkpt lat="48.64658" lon="-2.42802">
        <ele>37</ele>
        <time>2018-06-03T08:33:59Z</time>
      </trkpt>
      <trkpt lat="48.64651" lon="-2.42796">
        <ele>37</ele>
        <time>2018-06-03T08:34:07Z</time>
      </trkpt>
      <trkpt lat="48.64642" lon="-2.42794">
        <ele>37</ele>
        <time>2018-06-03T08:34:11Z</time>
      </trkpt>
      <trkpt lat="48.64634" lon="-2.42789">
        <ele>37</ele>
        <time>2018-06-03T08:34:15Z</time>
      </trkpt>
      <trkpt lat="48.64622" lon="-2.42792">
        <ele>38</ele>
        <time>2018-06-03T08:34:19Z</time>
      </trkpt>
      <trkpt lat="48.64611" lon="-2.42796">
        <ele>39</ele>
        <time>2018-06-03T08:34:27Z</time>
      </trkpt>
      <trkpt lat="48.64603" lon="-2.42796">
        <ele>39</ele>
        <time>2018-06-03T08:34:35Z</time>
      </trkpt>
      <trkpt lat="48.64594" lon="-2.42792">
        <ele>39</ele>
        <time>2018-06-03T08:34:39Z</time>
      </trkpt>
      <trkpt lat="48.6459" lon="-2.42797">
        <ele>40</ele>
        <time>2018-06-03T08:34:43Z</time>
      </trkpt>
      <trkpt lat="48.64573" lon="-2.42794">
        <ele>43</ele>
        <time>2018-06-03T08:34:47Z</time>
      </trkpt>
      <trkpt lat="48.64567" lon="-2.42798">
        <ele>44</ele>
        <time>2018-06-03T08:34:55Z</time>
      </trkpt>
      <trkpt lat="48.64558" lon="-2.428">
        <ele>44</ele>
        <time>2018-06-03T08:34:59Z</time>
      </trkpt>
      <trkpt lat="48.64551" lon="-2.42805">
        <ele>44</ele>
        <time>2018-06-03T08:35:03Z</time>
      </trkpt>
      <trkpt lat="48.64539" lon="-2.42819">
        <ele>44</ele>
        <time>2018-06-03T08:35:07Z</time>
      </trkpt>
      <trkpt lat="48.64534" lon="-2.42825">
        <ele>44</ele>
        <time>2018-06-03T08:35:15Z</time>
      </trkpt>
      <trkpt lat="48.64528" lon="-2.42851">
        <ele>46</ele>
        <time>2018-06-03T08:35:19Z</time>
      </trkpt>
      <trkpt lat="48.64525" lon="-2.42866">
        <ele>46</ele>
        <time>2018-06-03T08:35:23Z</time>
      </trkpt>
      <trkpt lat="48.6452" lon="-2.42882">
        <ele>47</ele>
        <time>2018-06-03T08:35:31Z</time>
      </trkpt>
      <trkpt lat="48.64517" lon="-2.42902">
        <ele>47</ele>
        <time>2018-06-03T08:35:35Z</time>
      </trkpt>
      <trkpt lat="48.64511" lon="-2.42922">
        <ele>47</ele>
        <time>2018-06-03T08:35:39Z</time>
      </trkpt>
      <trkpt lat="48.64503" lon="-2.42939">
        <ele>47</ele>
        <time>2018-06-03T08:35:43Z</time>
      </trkpt>
      <trkpt lat="48.6447" lon="-2.42965">
        <ele>47</ele>
        <time>2018-06-03T08:35:47Z</time>
      </trkpt>
      <trkpt lat="48.64455" lon="-2.42957">
        <ele>47</ele>
        <time>2018-06-03T08:35:55Z</time>
      </trkpt>
      <trkpt lat="48.64442" lon="-2.42938">
        <ele>47</ele>
        <time>2018-06-03T08:35:59Z</time>
      </trkpt>
      <trkpt lat="48.64421" lon="-2.42919">
        <ele>48</ele>
        <time>2018-06-03T08:36:03Z</time>
      </trkpt>
      <trkpt lat="48.64396" lon="-2.42907">
        <ele>48</ele>
        <time>2018-06-03T08:36:07Z</time>
      </trkpt>
      <trkpt lat="48.64371" lon="-2.42899">
        <ele>48</ele>
        <time>2018-06-03T08:36:11Z</time>
      </trkpt>
      <trkpt lat="48.6435" lon="-2.42893">
        <ele>48</ele>
        <time>2018-06-03T08:36:15Z</time>
      </trkpt>
      <trkpt lat="48.64331" lon="-2.42885">
        <ele>48</ele>
        <time>2018-06-03T08:36:19Z</time>
      </trkpt>
      <trkpt lat="48.64309" lon="-2.42884">
        <ele>48</ele>
        <time>2018-06-03T08:36:23Z</time>
      </trkpt>
      <trkpt lat="48.64291" lon="-2.4289">
        <ele>49</ele>
        <time>2018-06-03T08:36:27Z</time>
      </trkpt>
      <trkpt lat="48.64274" lon="-2.42883">
        <ele>49</ele>
        <time>2018-06-03T08:36:31Z</time>
      </trkpt>
      <trkpt lat="48.64243" lon="-2.42825">
        <ele>49</ele>
        <time>2018-06-03T08:36:35Z</time>
      </trkpt>
      <trkpt lat="48.64227" lon="-2.42794">
        <ele>50</ele>
        <time>2018-06-03T08:36:43Z</time>
      </trkpt>
      <trkpt lat="48.64208" lon="-2.42761">
        <ele>50</ele>
        <time>2018-06-03T08:36:47Z</time>
      </trkpt>
      <trkpt lat="48.64185" lon="-2.42735">
        <ele>50</ele>
        <time>2018-06-03T08:36:51Z</time>
      </trkpt>
      <trkpt lat="48.64158" lon="-2.42717">
        <ele>51</ele>
        <time>2018-06-03T08:36:55Z</time>
      </trkpt>
      <trkpt lat="48.64135" lon="-2.42707">
        <ele>51</ele>
        <time>2018-06-03T08:36:59Z</time>
      </trkpt>
      <trkpt lat="48.64112" lon="-2.427">
        <ele>51</ele>
        <time>2018-06-03T08:37:03Z</time>
      </trkpt>
      <trkpt lat="48.64099" lon="-2.42694">
        <ele>52</ele>
        <time>2018-06-03T08:37:07Z</time>
      </trkpt>
      <trkpt lat="48.64078" lon="-2.42676">
        <ele>53</ele>
        <time>2018-06-03T08:37:11Z</time>
      </trkpt>
      <trkpt lat="48.64082" lon="-2.42616">
        <ele>52</ele>
        <time>2018-06-03T08:37:15Z</time>
      </trkpt>
      <trkpt lat="48.64093" lon="-2.42579">
        <ele>50</ele>
        <time>2018-06-03T08:37:23Z</time>
      </trkpt>
      <trkpt lat="48.64094" lon="-2.42533">
        <ele>49</ele>
        <time>2018-06-03T08:37:27Z</time>
      </trkpt>
      <trkpt lat="48.641" lon="-2.42469">
        <ele>48</ele>
        <time>2018-06-03T08:37:31Z</time>
      </trkpt>
      <trkpt lat="48.64093" lon="-2.42439">
        <ele>48</ele>
        <time>2018-06-03T08:37:39Z</time>
      </trkpt>
      <trkpt lat="48.64087" lon="-2.42393">
        <ele>47</ele>
        <time>2018-06-03T08:37:43Z</time>
      </trkpt>
      <trkpt lat="48.64093" lon="-2.42346">
        <ele>47</ele>
        <time>2018-06-03T08:37:47Z</time>
      </trkpt>
      <trkpt lat="48.64098" lon="-2.42299">
        <ele>45</ele>
        <time>2018-06-03T08:37:51Z</time>
      </trkpt>
      <trkpt lat="48.6408" lon="-2.42261">
        <ele>45</ele>
        <time>2018-06-03T08:37:55Z</time>
      </trkpt>
      <trkpt lat="48.64034" lon="-2.4223">
        <ele>39</ele>
        <time>2018-06-03T08:37:59Z</time>
      </trkpt>
      <trkpt lat="48.64012" lon="-2.42217">
        <ele>38</ele>
        <time>2018-06-03T08:38:07Z</time>
      </trkpt>
      <trkpt lat="48.63985" lon="-2.42207">
        <ele>39</ele>
        <time>2018-06-03T08:38:11Z</time>
      </trkpt>
      <trkpt lat="48.63931" lon="-2.42182">
        <ele>39</ele>
        <time>2018-06-03T08:38:15Z</time>
      </trkpt>
      <trkpt lat="48.63906" lon="-2.42162">
        <ele>36</ele>
        <time>2018-06-03T08:38:19Z</time>
      </trkpt>
      <trkpt lat="48.63884" lon="-2.42136">
        <ele>35</ele>
        <time>2018-06-03T08:38:27Z</time>
      </trkpt>
      <trkpt lat="48.63859" lon="-2.42107">
        <ele>35</ele>
        <time>2018-06-03T08:38:31Z</time>
      </trkpt>
      <trkpt lat="48.63832" lon="-2.42086">
        <ele>37</ele>
        <time>2018-06-03T08:38:35Z</time>
      </trkpt>
      <trkpt lat="48.63815" lon="-2.4205">
        <ele>38</ele>
        <time>2018-06-03T08:38:39Z</time>
      </trkpt>
      <trkpt lat="48.63815" lon="-2.41998">
        <ele>28</ele>
        <time>2018-06-03T08:38:43Z</time>
      </trkpt>
      <trkpt lat="48.63803" lon="-2.41962">
        <ele>28</ele>
        <time>2018-06-03T08:38:47Z</time>
      </trkpt>
      <trkpt lat="48.6378" lon="-2.41918">
        <ele>29</ele>
        <time>2018-06-03T08:38:51Z</time>
      </trkpt>
      <trkpt lat="48.63758" lon="-2.4189">
        <ele>23</ele>
        <time>2018-06-03T08:38:55Z</time>
      </trkpt>
      <trkpt lat="48.63746" lon="-2.41866">
        <ele>26</ele>
        <time>2018-06-03T08:38:59Z</time>
      </trkpt>
      <trkpt lat="48.6374" lon="-2.41867">
        <ele>26</ele>
        <time>2018-06-03T08:39:07Z</time>
      </trkpt>
      <trkpt lat="48.63741" lon="-2.41882">
        <ele>28</ele>
        <time>2018-06-03T08:39:19Z</time>
      </trkpt>
      <trkpt lat="48.63747" lon="-2.41894">
        <ele>29</ele>
        <time>2018-06-03T08:39:23Z</time>
      </trkpt>
      <trkpt lat="48.63756" lon="-2.41901">
        <ele>26</ele>
        <time>2018-06-03T08:39:27Z</time>
      </trkpt>
      <trkpt lat="48.63756" lon="-2.41915">
        <ele>29</ele>
        <time>2018-06-03T08:39:35Z</time>
      </trkpt>
      <trkpt lat="48.63765" lon="-2.41948">
        <ele>31</ele>
        <time>2018-06-03T08:39:51Z</time>
      </trkpt>
      <trkpt lat="48.63764" lon="-2.41957">
        <ele>32</ele>
        <time>2018-06-03T08:39:55Z</time>
      </trkpt>
      <trkpt lat="48.63777" lon="-2.41973">
        <ele>33</ele>
        <time>2018-06-03T08:39:59Z</time>
      </trkpt>
      <trkpt lat="48.63775" lon="-2.41981">
        <ele>34</ele>
        <time>2018-06-03T08:40:03Z</time>
      </trkpt>
      <trkpt lat="48.63778" lon="-2.41995">
        <ele>35</ele>
        <time>2018-06-03T08:40:07Z</time>
      </trkpt>
      <trkpt lat="48.63781" lon="-2.42003">
        <ele>40</ele>
        <time>2018-06-03T08:40:11Z</time>
      </trkpt>
      <trkpt lat="48.63786" lon="-2.42018">
        <ele>40</ele>
        <time>2018-06-03T08:40:19Z</time>
      </trkpt>
      <trkpt lat="48.6379" lon="-2.42026">
        <ele>39</ele>
        <time>2018-06-03T08:40:23Z</time>
      </trkpt>
      <trkpt lat="48.63792" lon="-2.42035">
        <ele>39</ele>
        <time>2018-06-03T08:40:27Z</time>
      </trkpt>
      <trkpt lat="48.63791" lon="-2.42043">
        <ele>40</ele>
        <time>2018-06-03T08:40:31Z</time>
      </trkpt>
      <trkpt lat="48.6379" lon="-2.42051">
        <ele>40</ele>
        <time>2018-06-03T08:40:35Z</time>
      </trkpt>
      <trkpt lat="48.63791" lon="-2.4206">
        <ele>41</ele>
        <time>2018-06-03T08:40:39Z</time>
      </trkpt>
      <trkpt lat="48.63788" lon="-2.42069">
        <ele>42</ele>
        <time>2018-06-03T08:40:47Z</time>
      </trkpt>
      <trkpt lat="48.63783" lon="-2.42081">
        <ele>43</ele>
        <time>2018-06-03T08:40:51Z</time>
      </trkpt>
      <trkpt lat="48.63777" lon="-2.42092">
        <ele>48</ele>
        <time>2018-06-03T08:40:55Z</time>
      </trkpt>
      <trkpt lat="48.63775" lon="-2.42103">
        <ele>49</ele>
        <time>2018-06-03T08:40:59Z</time>
      </trkpt>
      <trkpt lat="48.63774" lon="-2.4211">
        <ele>49</ele>
        <time>2018-06-03T08:41:03Z</time>
      </trkpt>
      <trkpt lat="48.63771" lon="-2.42121">
        <ele>49</ele>
        <time>2018-06-03T08:41:07Z</time>
      </trkpt>
      <trkpt lat="48.6377" lon="-2.42128">
        <ele>49</ele>
        <time>2018-06-03T08:41:11Z</time>
      </trkpt>
      <trkpt lat="48.63764" lon="-2.42135">
        <ele>50</ele>
        <time>2018-06-03T08:41:15Z</time>
      </trkpt>
      <trkpt lat="48.63758" lon="-2.42138">
        <ele>51</ele>
        <time>2018-06-03T08:41:23Z</time>
      </trkpt>
      <trkpt lat="48.63754" lon="-2.42144">
        <ele>51</ele>
        <time>2018-06-03T08:41:27Z</time>
      </trkpt>
      <trkpt lat="48.63747" lon="-2.42153">
        <ele>55</ele>
        <time>2018-06-03T08:41:31Z</time>
      </trkpt>
      <trkpt lat="48.63744" lon="-2.42163">
        <ele>55</ele>
        <time>2018-06-03T08:41:35Z</time>
      </trkpt>
      <trkpt lat="48.63744" lon="-2.42173">
        <ele>56</ele>
        <time>2018-06-03T08:41:39Z</time>
      </trkpt>
      <trkpt lat="48.63734" lon="-2.42177">
        <ele>57</ele>
        <time>2018-06-03T08:41:43Z</time>
      </trkpt>
      <trkpt lat="48.63733" lon="-2.42191">
        <ele>57</ele>
        <time>2018-06-03T08:41:47Z</time>
      </trkpt>
      <trkpt lat="48.63732" lon="-2.422">
        <ele>58</ele>
        <time>2018-06-03T08:41:51Z</time>
      </trkpt>
      <trkpt lat="48.63735" lon="-2.42208">
        <ele>58</ele>
        <time>2018-06-03T08:41:55Z</time>
      </trkpt>
      <trkpt lat="48.63736" lon="-2.42219">
        <ele>58</ele>
        <time>2018-06-03T08:41:59Z</time>
      </trkpt>
      <trkpt lat="48.63737" lon="-2.42232">
        <ele>58</ele>
        <time>2018-06-03T08:42:03Z</time>
      </trkpt>
      <trkpt lat="48.63741" lon="-2.4224">
        <ele>58</ele>
        <time>2018-06-03T08:42:07Z</time>
      </trkpt>
      <trkpt lat="48.63745" lon="-2.4225">
        <ele>59</ele>
        <time>2018-06-03T08:42:11Z</time>
      </trkpt>
      <trkpt lat="48.63745" lon="-2.42259">
        <ele>58</ele>
        <time>2018-06-03T08:42:15Z</time>
      </trkpt>
      <trkpt lat="48.63745" lon="-2.42268">
        <ele>58</ele>
        <time>2018-06-03T08:42:19Z</time>
      </trkpt>
      <trkpt lat="48.63745" lon="-2.42277">
        <ele>58</ele>
        <time>2018-06-03T08:42:23Z</time>
      </trkpt>
      <trkpt lat="48.63749" lon="-2.42286">
        <ele>58</ele>
        <time>2018-06-03T08:42:27Z</time>
      </trkpt>
      <trkpt lat="48.63749" lon="-2.42293">
        <ele>58</ele>
        <time>2018-06-03T08:42:31Z</time>
      </trkpt>
      <trkpt lat="48.63749" lon="-2.42305">
        <ele>58</ele>
        <time>2018-06-03T08:42:35Z</time>
      </trkpt>
      <trkpt lat="48.6375" lon="-2.42321">
        <ele>58</ele>
        <time>2018-06-03T08:42:39Z</time>
      </trkpt>
      <trkpt lat="48.63753" lon="-2.42334">
        <ele>58</ele>
        <time>2018-06-03T08:42:43Z</time>
      </trkpt>
      <trkpt lat="48.63756" lon="-2.42349">
        <ele>58</ele>
        <time>2018-06-03T08:42:47Z</time>
      </trkpt>
      <trkpt lat="48.63758" lon="-2.4236">
        <ele>58</ele>
        <time>2018-06-03T08:42:51Z</time>
      </trkpt>
      <trkpt lat="48.63762" lon="-2.42372">
        <ele>58</ele>
        <time>2018-06-03T08:42:55Z</time>
      </trkpt>
      <trkpt lat="48.63766" lon="-2.42383">
        <ele>57</ele>
        <time>2018-06-03T08:42:59Z</time>
      </trkpt>
      <trkpt lat="48.63766" lon="-2.42394">
        <ele>57</ele>
        <time>2018-06-03T08:43:03Z</time>
      </trkpt>
      <trkpt lat="48.63768" lon="-2.42402">
        <ele>57</ele>
        <time>2018-06-03T08:43:07Z</time>
      </trkpt>
      <trkpt lat="48.63768" lon="-2.42411">
        <ele>57</ele>
        <time>2018-06-03T08:43:11Z</time>
      </trkpt>
      <trkpt lat="48.6377" lon="-2.4242">
        <ele>57</ele>
        <time>2018-06-03T08:43:15Z</time>
      </trkpt>
      <trkpt lat="48.63775" lon="-2.42433">
        <ele>57</ele>
        <time>2018-06-03T08:43:19Z</time>
      </trkpt>
      <trkpt lat="48.6378" lon="-2.42445">
        <ele>57</ele>
        <time>2018-06-03T08:43:23Z</time>
      </trkpt>
      <trkpt lat="48.63784" lon="-2.42462">
        <ele>57</ele>
        <time>2018-06-03T08:43:27Z</time>
      </trkpt>
      <trkpt lat="48.63786" lon="-2.42478">
        <ele>57</ele>
        <time>2018-06-03T08:43:31Z</time>
      </trkpt>
      <trkpt lat="48.63793" lon="-2.42495">
        <ele>57</ele>
        <time>2018-06-03T08:43:35Z</time>
      </trkpt>
      <trkpt lat="48.63797" lon="-2.4251">
        <ele>56</ele>
        <time>2018-06-03T08:43:39Z</time>
      </trkpt>
      <trkpt lat="48.63803" lon="-2.42527">
        <ele>56</ele>
        <time>2018-06-03T08:43:43Z</time>
      </trkpt>
      <trkpt lat="48.63808" lon="-2.42544">
        <ele>56</ele>
        <time>2018-06-03T08:43:47Z</time>
      </trkpt>
      <trkpt lat="48.63813" lon="-2.42562">
        <ele>56</ele>
        <time>2018-06-03T08:43:51Z</time>
      </trkpt>
      <trkpt lat="48.63816" lon="-2.4258">
        <ele>56</ele>
        <time>2018-06-03T08:43:55Z</time>
      </trkpt>
      <trkpt lat="48.63817" lon="-2.42605">
        <ele>55</ele>
        <time>2018-06-03T08:43:59Z</time>
      </trkpt>
      <trkpt lat="48.6382" lon="-2.42628">
        <ele>55</ele>
        <time>2018-06-03T08:44:03Z</time>
      </trkpt>
      <trkpt lat="48.63822" lon="-2.42652">
        <ele>56</ele>
        <time>2018-06-03T08:44:07Z</time>
      </trkpt>
      <trkpt lat="48.63823" lon="-2.42675">
        <ele>56</ele>
        <time>2018-06-03T08:44:11Z</time>
      </trkpt>
      <trkpt lat="48.63818" lon="-2.42697">
        <ele>55</ele>
        <time>2018-06-03T08:44:15Z</time>
      </trkpt>
      <trkpt lat="48.63797" lon="-2.427">
        <ele>54</ele>
        <time>2018-06-03T08:44:19Z</time>
      </trkpt>
      <trkpt lat="48.63767" lon="-2.42687">
        <ele>53</ele>
        <time>2018-06-03T08:44:23Z</time>
      </trkpt>
      <trkpt lat="48.63746" lon="-2.4268">
        <ele>51</ele>
        <time>2018-06-03T08:44:27Z</time>
      </trkpt>
      <trkpt lat="48.6372" lon="-2.42699">
        <ele>50</ele>
        <time>2018-06-03T08:44:31Z</time>
      </trkpt>
      <trkpt lat="48.63697" lon="-2.42717">
        <ele>49</ele>
        <time>2018-06-03T08:44:35Z</time>
      </trkpt>
      <trkpt lat="48.63665" lon="-2.42747">
        <ele>47</ele>
        <time>2018-06-03T08:44:39Z</time>
      </trkpt>
      <trkpt lat="48.63633" lon="-2.42782">
        <ele>45</ele>
        <time>2018-06-03T08:44:43Z</time>
      </trkpt>
      <trkpt lat="48.6361" lon="-2.42789">
        <ele>45</ele>
        <time>2018-06-03T08:44:47Z</time>
      </trkpt>
      <trkpt lat="48.63584" lon="-2.42773">
        <ele>45</ele>
        <time>2018-06-03T08:44:51Z</time>
      </trkpt>
      <trkpt lat="48.63559" lon="-2.42759">
        <ele>44</ele>
        <time>2018-06-03T08:44:55Z</time>
      </trkpt>
      <trkpt lat="48.63537" lon="-2.42757">
        <ele>44</ele>
        <time>2018-06-03T08:44:59Z</time>
      </trkpt>
      <trkpt lat="48.63516" lon="-2.42774">
        <ele>45</ele>
        <time>2018-06-03T08:45:03Z</time>
      </trkpt>
      <trkpt lat="48.63498" lon="-2.42788">
        <ele>44</ele>
        <time>2018-06-03T08:45:07Z</time>
      </trkpt>
      <trkpt lat="48.63464" lon="-2.42794">
        <ele>43</ele>
        <time>2018-06-03T08:45:11Z</time>
      </trkpt>
      <trkpt lat="48.63418" lon="-2.42772">
        <ele>41</ele>
        <time>2018-06-03T08:45:15Z</time>
      </trkpt>
      <trkpt lat="48.63392" lon="-2.42777">
        <ele>40</ele>
        <time>2018-06-03T08:45:19Z</time>
      </trkpt>
      <trkpt lat="48.63374" lon="-2.42803">
        <ele>40</ele>
        <time>2018-06-03T08:45:23Z</time>
      </trkpt>
      <trkpt lat="48.6336" lon="-2.42821">
        <ele>40</ele>
        <time>2018-06-03T08:45:27Z</time>
      </trkpt>
      <trkpt lat="48.63352" lon="-2.42827">
        <ele>40</ele>
        <time>2018-06-03T08:45:35Z</time>
      </trkpt>
      <trkpt lat="48.63336" lon="-2.42823">
        <ele>40</ele>
        <time>2018-06-03T08:45:43Z</time>
      </trkpt>
      <trkpt lat="48.63334" lon="-2.42838">
        <ele>41</ele>
        <time>2018-06-03T08:45:47Z</time>
      </trkpt>
      <trkpt lat="48.63332" lon="-2.42855">
        <ele>43</ele>
        <time>2018-06-03T08:45:51Z</time>
      </trkpt>
      <trkpt lat="48.63328" lon="-2.42871">
        <ele>43</ele>
        <time>2018-06-03T08:45:55Z</time>
      </trkpt>
      <trkpt lat="48.6333" lon="-2.42887">
        <ele>44</ele>
        <time>2018-06-03T08:45:59Z</time>
      </trkpt>
      <trkpt lat="48.6333" lon="-2.42908">
        <ele>44</ele>
        <time>2018-06-03T08:46:03Z</time>
      </trkpt>
      <trkpt lat="48.63331" lon="-2.42926">
        <ele>45</ele>
        <time>2018-06-03T08:46:07Z</time>
      </trkpt>
      <trkpt lat="48.63334" lon="-2.42947">
        <ele>46</ele>
        <time>2018-06-03T08:46:11Z</time>
      </trkpt>
      <trkpt lat="48.63338" lon="-2.42964">
        <ele>46</ele>
        <time>2018-06-03T08:46:15Z</time>
      </trkpt>
      <trkpt lat="48.63338" lon="-2.42984">
        <ele>46</ele>
        <time>2018-06-03T08:46:19Z</time>
      </trkpt>
      <trkpt lat="48.6334" lon="-2.43004">
        <ele>45</ele>
        <time>2018-06-03T08:46:23Z</time>
      </trkpt>
      <trkpt lat="48.63351" lon="-2.43026">
        <ele>46</ele>
        <time>2018-06-03T08:46:27Z</time>
      </trkpt>
      <trkpt lat="48.63352" lon="-2.43052">
        <ele>46</ele>
        <time>2018-06-03T08:46:31Z</time>
      </trkpt>
      <trkpt lat="48.63348" lon="-2.43072">
        <ele>47</ele>
        <time>2018-06-03T08:46:35Z</time>
      </trkpt>
      <trkpt lat="48.63345" lon="-2.43094">
        <ele>47</ele>
        <time>2018-06-03T08:46:39Z</time>
      </trkpt>
      <trkpt lat="48.63342" lon="-2.43118">
        <ele>46</ele>
        <time>2018-06-03T08:46:43Z</time>
      </trkpt>
      <trkpt lat="48.63338" lon="-2.43139">
        <ele>46</ele>
        <time>2018-06-03T08:46:47Z</time>
      </trkpt>
      <trkpt lat="48.63334" lon="-2.43154">
        <ele>46</ele>
        <time>2018-06-03T08:46:51Z</time>
      </trkpt>
      <trkpt lat="48.63324" lon="-2.43188">
        <ele>46</ele>
        <time>2018-06-03T08:46:55Z</time>
      </trkpt>
      <trkpt lat="48.63305" lon="-2.43214">
        <ele>46</ele>
        <time>2018-06-03T08:46:59Z</time>
      </trkpt>
      <trkpt lat="48.63292" lon="-2.43234">
        <ele>46</ele>
        <time>2018-06-03T08:47:03Z</time>
      </trkpt>
      <trkpt lat="48.6328" lon="-2.43258">
        <ele>46</ele>
        <time>2018-06-03T08:47:07Z</time>
      </trkpt>
      <trkpt lat="48.63269" lon="-2.43268">
        <ele>47</ele>
        <time>2018-06-03T08:47:11Z</time>
      </trkpt>
      <trkpt lat="48.63268" lon="-2.43252">
        <ele>46</ele>
        <time>2018-06-03T08:47:15Z</time>
      </trkpt>
      <trkpt lat="48.63259" lon="-2.43228">
        <ele>46</ele>
        <time>2018-06-03T08:47:19Z</time>
      </trkpt>
      <trkpt lat="48.6326" lon="-2.4321">
        <ele>46</ele>
        <time>2018-06-03T08:47:23Z</time>
      </trkpt>
      <trkpt lat="48.63252" lon="-2.43191">
        <ele>47</ele>
        <time>2018-06-03T08:47:27Z</time>
      </trkpt>
      <trkpt lat="48.6324" lon="-2.43175">
        <ele>48</ele>
        <time>2018-06-03T08:47:31Z</time>
      </trkpt>
      <trkpt lat="48.63226" lon="-2.43162">
        <ele>49</ele>
        <time>2018-06-03T08:47:35Z</time>
      </trkpt>
      <trkpt lat="48.63213" lon="-2.43139">
        <ele>49</ele>
        <time>2018-06-03T08:47:39Z</time>
      </trkpt>
      <trkpt lat="48.63205" lon="-2.43123">
        <ele>50</ele>
        <time>2018-06-03T08:47:43Z</time>
      </trkpt>
      <trkpt lat="48.63197" lon="-2.43108">
        <ele>50</ele>
        <time>2018-06-03T08:47:47Z</time>
      </trkpt>
      <trkpt lat="48.63183" lon="-2.431">
        <ele>50</ele>
        <time>2018-06-03T08:47:51Z</time>
      </trkpt>
      <trkpt lat="48.63172" lon="-2.43084">
        <ele>51</ele>
        <time>2018-06-03T08:47:55Z</time>
      </trkpt>
      <trkpt lat="48.63158" lon="-2.43068">
        <ele>52</ele>
        <time>2018-06-03T08:47:59Z</time>
      </trkpt>
      <trkpt lat="48.63148" lon="-2.4305">
        <ele>52</ele>
        <time>2018-06-03T08:48:03Z</time>
      </trkpt>
      <trkpt lat="48.63147" lon="-2.43029">
        <ele>52</ele>
        <time>2018-06-03T08:48:07Z</time>
      </trkpt>
      <trkpt lat="48.63144" lon="-2.43006">
        <ele>52</ele>
        <time>2018-06-03T08:48:11Z</time>
      </trkpt>
      <trkpt lat="48.63133" lon="-2.42986">
        <ele>52</ele>
        <time>2018-06-03T08:48:15Z</time>
      </trkpt>
      <trkpt lat="48.63119" lon="-2.42971">
        <ele>52</ele>
        <time>2018-06-03T08:48:19Z</time>
      </trkpt>
      <trkpt lat="48.63101" lon="-2.42952">
        <ele>52</ele>
        <time>2018-06-03T08:48:23Z</time>
      </trkpt>
      <trkpt lat="48.63084" lon="-2.42937">
        <ele>53</ele>
        <time>2018-06-03T08:48:27Z</time>
      </trkpt>
      <trkpt lat="48.63069" lon="-2.42919">
        <ele>54</ele>
        <time>2018-06-03T08:48:31Z</time>
      </trkpt>
      <trkpt lat="48.63053" lon="-2.42897">
        <ele>54</ele>
        <time>2018-06-03T08:48:35Z</time>
      </trkpt>
      <trkpt lat="48.63037" lon="-2.42875">
        <ele>55</ele>
        <time>2018-06-03T08:48:39Z</time>
      </trkpt>
      <trkpt lat="48.63017" lon="-2.42855">
        <ele>55</ele>
        <time>2018-06-03T08:48:43Z</time>
      </trkpt>
      <trkpt lat="48.62999" lon="-2.42838">
        <ele>56</ele>
        <time>2018-06-03T08:48:47Z</time>
      </trkpt>
      <trkpt lat="48.62982" lon="-2.42819">
        <ele>55</ele>
        <time>2018-06-03T08:48:51Z</time>
      </trkpt>
      <trkpt lat="48.62968" lon="-2.42811">
        <ele>55</ele>
        <time>2018-06-03T08:48:55Z</time>
      </trkpt>
      <trkpt lat="48.62957" lon="-2.428">
        <ele>55</ele>
        <time>2018-06-03T08:48:59Z</time>
      </trkpt>
      <trkpt lat="48.62958" lon="-2.4279">
        <ele>55</ele>
        <time>2018-06-03T08:49:11Z</time>
      </trkpt>
      <trkpt lat="48.62956" lon="-2.42774">
        <ele>55</ele>
        <time>2018-06-03T08:49:15Z</time>
      </trkpt>
      <trkpt lat="48.62956" lon="-2.42761">
        <ele>55</ele>
        <time>2018-06-03T08:49:19Z</time>
      </trkpt>
      <trkpt lat="48.62954" lon="-2.42742">
        <ele>53</ele>
        <time>2018-06-03T08:49:23Z</time>
      </trkpt>
      <trkpt lat="48.62951" lon="-2.42721">
        <ele>52</ele>
        <time>2018-06-03T08:49:27Z</time>
      </trkpt>
      <trkpt lat="48.62947" lon="-2.42702">
        <ele>52</ele>
        <time>2018-06-03T08:49:31Z</time>
      </trkpt>
      <trkpt lat="48.62941" lon="-2.42676">
        <ele>52</ele>
        <time>2018-06-03T08:49:35Z</time>
      </trkpt>
      <trkpt lat="48.62934" lon="-2.42647">
        <ele>50</ele>
        <time>2018-06-03T08:49:39Z</time>
      </trkpt>
      <trkpt lat="48.62926" lon="-2.42615">
        <ele>50</ele>
        <time>2018-06-03T08:49:43Z</time>
      </trkpt>
      <trkpt lat="48.62915" lon="-2.4258">
        <ele>48</ele>
        <time>2018-06-03T08:49:47Z</time>
      </trkpt>
      <trkpt lat="48.62912" lon="-2.42555">
        <ele>46</ele>
        <time>2018-06-03T08:49:51Z</time>
      </trkpt>
      <trkpt lat="48.62904" lon="-2.42531">
        <ele>45</ele>
        <time>2018-06-03T08:49:55Z</time>
      </trkpt>
      <trkpt lat="48.62893" lon="-2.425">
        <ele>43</ele>
        <time>2018-06-03T08:49:59Z</time>
      </trkpt>
      <trkpt lat="48.62888" lon="-2.4248">
        <ele>42</ele>
        <time>2018-06-03T08:50:03Z</time>
      </trkpt>
      <trkpt lat="48.62883" lon="-2.42462">
        <ele>42</ele>
        <time>2018-06-03T08:50:07Z</time>
      </trkpt>
      <trkpt lat="48.62874" lon="-2.42444">
        <ele>41</ele>
        <time>2018-06-03T08:50:11Z</time>
      </trkpt>
      <trkpt lat="48.62868" lon="-2.4244">
        <ele>41</ele>
        <time>2018-06-03T08:50:15Z</time>
      </trkpt>
      <trkpt lat="48.62861" lon="-2.4244">
        <ele>41</ele>
        <time>2018-06-03T08:50:19Z</time>
      </trkpt>
      <trkpt lat="48.62852" lon="-2.42435">
        <ele>40</ele>
        <time>2018-06-03T08:50:23Z</time>
      </trkpt>
      <trkpt lat="48.62841" lon="-2.4243">
        <ele>40</ele>
        <time>2018-06-03T08:50:27Z</time>
      </trkpt>
      <trkpt lat="48.62834" lon="-2.42425">
        <ele>39</ele>
        <time>2018-06-03T08:50:31Z</time>
      </trkpt>
      <trkpt lat="48.6283" lon="-2.4242">
        <ele>38</ele>
        <time>2018-06-03T08:50:35Z</time>
      </trkpt>
      <trkpt lat="48.62818" lon="-2.42412">
        <ele>35</ele>
        <time>2018-06-03T08:50:39Z</time>
      </trkpt>
      <trkpt lat="48.62809" lon="-2.42409">
        <ele>34</ele>
        <time>2018-06-03T08:50:43Z</time>
      </trkpt>
      <trkpt lat="48.62798" lon="-2.42409">
        <ele>33</ele>
        <time>2018-06-03T08:50:47Z</time>
      </trkpt>
      <trkpt lat="48.62787" lon="-2.42405">
        <ele>32</ele>
        <time>2018-06-03T08:50:51Z</time>
      </trkpt>
      <trkpt lat="48.62772" lon="-2.42399">
        <ele>32</ele>
        <time>2018-06-03T08:50:59Z</time>
      </trkpt>
      <trkpt lat="48.62761" lon="-2.42396">
        <ele>32</ele>
        <time>2018-06-03T08:51:03Z</time>
      </trkpt>
      <trkpt lat="48.62751" lon="-2.4239">
        <ele>31</ele>
        <time>2018-06-03T08:51:07Z</time>
      </trkpt>
      <trkpt lat="48.62739" lon="-2.42388">
        <ele>29</ele>
        <time>2018-06-03T08:51:11Z</time>
      </trkpt>
      <trkpt lat="48.62728" lon="-2.42384">
        <ele>29</ele>
        <time>2018-06-03T08:51:15Z</time>
      </trkpt>
      <trkpt lat="48.62718" lon="-2.42389">
        <ele>29</ele>
        <time>2018-06-03T08:51:19Z</time>
      </trkpt>
      <trkpt lat="48.62702" lon="-2.42389">
        <ele>28</ele>
        <time>2018-06-03T08:51:23Z</time>
      </trkpt>
      <trkpt lat="48.62693" lon="-2.42396">
        <ele>29</ele>
        <time>2018-06-03T08:51:27Z</time>
      </trkpt>
      <trkpt lat="48.62685" lon="-2.4241">
        <ele>29</ele>
        <time>2018-06-03T08:51:31Z</time>
      </trkpt>
      <trkpt lat="48.62681" lon="-2.42413">
        <ele>29</ele>
        <time>2018-06-03T08:51:35Z</time>
      </trkpt>
      <trkpt lat="48.62686" lon="-2.42432">
        <ele>33</ele>
        <time>2018-06-03T08:51:39Z</time>
      </trkpt>
      <trkpt lat="48.62684" lon="-2.42442">
        <ele>33</ele>
        <time>2018-06-03T08:51:43Z</time>
      </trkpt>
      <trkpt lat="48.62684" lon="-2.42454">
        <ele>34</ele>
        <time>2018-06-03T08:51:47Z</time>
      </trkpt>
      <trkpt lat="48.62681" lon="-2.4246">
        <ele>34</ele>
        <time>2018-06-03T08:51:51Z</time>
      </trkpt>
      <trkpt lat="48.6267" lon="-2.42492">
        <ele>36</ele>
        <time>2018-06-03T08:52:23Z</time>
      </trkpt>
      <trkpt lat="48.62672" lon="-2.42497">
        <ele>36</ele>
        <time>2018-06-03T08:52:27Z</time>
      </trkpt>
      <trkpt lat="48.62674" lon="-2.42509">
        <ele>38</ele>
        <time>2018-06-03T08:52:31Z</time>
      </trkpt>
      <trkpt lat="48.62671" lon="-2.42518">
        <ele>39</ele>
        <time>2018-06-03T08:52:35Z</time>
      </trkpt>
      <trkpt lat="48.62659" lon="-2.42517">
        <ele>39</ele>
        <time>2018-06-03T08:52:39Z</time>
      </trkpt>
      <trkpt lat="48.62616" lon="-2.42467">
        <ele>36</ele>
        <time>2018-06-03T08:53:15Z</time>
      </trkpt>
      <trkpt lat="48.62605" lon="-2.42452">
        <ele>35</ele>
        <time>2018-06-03T08:53:19Z</time>
      </trkpt>
      <trkpt lat="48.62606" lon="-2.42443">
        <ele>35</ele>
        <time>2018-06-03T08:53:23Z</time>
      </trkpt>
      <trkpt lat="48.626" lon="-2.4243">
        <ele>35</ele>
        <time>2018-06-03T08:53:27Z</time>
      </trkpt>
      <trkpt lat="48.62586" lon="-2.42416">
        <ele>34</ele>
        <time>2018-06-03T08:53:31Z</time>
      </trkpt>
      <trkpt lat="48.62574" lon="-2.424">
        <ele>32</ele>
        <time>2018-06-03T08:53:35Z</time>
      </trkpt>
      <trkpt lat="48.62563" lon="-2.42406">
        <ele>32</ele>
        <time>2018-06-03T08:53:43Z</time>
      </trkpt>
      <trkpt lat="48.62549" lon="-2.42403">
        <ele>31</ele>
        <time>2018-06-03T08:53:47Z</time>
      </trkpt>
      <trkpt lat="48.62538" lon="-2.42396">
        <ele>30</ele>
        <time>2018-06-03T08:53:55Z</time>
      </trkpt>
      <trkpt lat="48.62526" lon="-2.42396">
        <ele>30</ele>
        <time>2018-06-03T08:53:59Z</time>
      </trkpt>
      <trkpt lat="48.62519" lon="-2.42406">
        <ele>30</ele>
        <time>2018-06-03T08:54:03Z</time>
      </trkpt>
      <trkpt lat="48.62509" lon="-2.42419">
        <ele>32</ele>
        <time>2018-06-03T08:54:15Z</time>
      </trkpt>
      <trkpt lat="48.625" lon="-2.42433">
        <ele>32</ele>
        <time>2018-06-03T08:54:19Z</time>
      </trkpt>
      <trkpt lat="48.62492" lon="-2.42441">
        <ele>32</ele>
        <time>2018-06-03T08:54:23Z</time>
      </trkpt>
      <trkpt lat="48.6248" lon="-2.4245">
        <ele>32</ele>
        <time>2018-06-03T08:54:31Z</time>
      </trkpt>
      <trkpt lat="48.62471" lon="-2.42457">
        <ele>32</ele>
        <time>2018-06-03T08:54:35Z</time>
      </trkpt>
      <trkpt lat="48.62447" lon="-2.42457">
        <ele>32</ele>
        <time>2018-06-03T08:54:39Z</time>
      </trkpt>
      <trkpt lat="48.62434" lon="-2.42478">
        <ele>32</ele>
        <time>2018-06-03T08:54:47Z</time>
      </trkpt>
      <trkpt lat="48.62429" lon="-2.42488">
        <ele>32</ele>
        <time>2018-06-03T08:54:51Z</time>
      </trkpt>
      <trkpt lat="48.62422" lon="-2.42484">
        <ele>32</ele>
        <time>2018-06-03T08:54:55Z</time>
      </trkpt>
      <trkpt lat="48.62415" lon="-2.4249">
        <ele>32</ele>
        <time>2018-06-03T08:54:59Z</time>
      </trkpt>
      <trkpt lat="48.62399" lon="-2.42495">
        <ele>31</ele>
        <time>2018-06-03T08:55:19Z</time>
      </trkpt>
      <trkpt lat="48.62408" lon="-2.42531">
        <ele>34</ele>
        <time>2018-06-03T08:55:39Z</time>
      </trkpt>
      <trkpt lat="48.62403" lon="-2.42538">
        <ele>34</ele>
        <time>2018-06-03T08:55:43Z</time>
      </trkpt>
      <trkpt lat="48.62391" lon="-2.42542">
        <ele>34</ele>
        <time>2018-06-03T08:55:51Z</time>
      </trkpt>
      <trkpt lat="48.62381" lon="-2.42543">
        <ele>34</ele>
        <time>2018-06-03T08:55:55Z</time>
      </trkpt>
      <trkpt lat="48.62375" lon="-2.42542">
        <ele>34</ele>
        <time>2018-06-03T08:56:03Z</time>
      </trkpt>
      <trkpt lat="48.62368" lon="-2.42554">
        <ele>34</ele>
        <time>2018-06-03T08:56:11Z</time>
      </trkpt>
      <trkpt lat="48.6235" lon="-2.42566">
        <ele>34</ele>
        <time>2018-06-03T08:56:19Z</time>
      </trkpt>
      <trkpt lat="48.62345" lon="-2.4257">
        <ele>34</ele>
        <time>2018-06-03T08:56:23Z</time>
      </trkpt>
      <trkpt lat="48.62334" lon="-2.42564">
        <ele>34</ele>
        <time>2018-06-03T08:56:43Z</time>
      </trkpt>
      <trkpt lat="48.62326" lon="-2.42554">
        <ele>35</ele>
        <time>2018-06-03T08:56:47Z</time>
      </trkpt>
      <trkpt lat="48.62326" lon="-2.42549">
        <ele>34</ele>
        <time>2018-06-03T08:56:51Z</time>
      </trkpt>
      <trkpt lat="48.62315" lon="-2.42537">
        <ele>34</ele>
        <time>2018-06-03T08:56:59Z</time>
      </trkpt>
      <trkpt lat="48.62306" lon="-2.42529">
        <ele>34</ele>
        <time>2018-06-03T08:57:03Z</time>
      </trkpt>
      <trkpt lat="48.623" lon="-2.42528">
        <ele>34</ele>
        <time>2018-06-03T08:57:07Z</time>
      </trkpt>
      <trkpt lat="48.62295" lon="-2.42544">
        <ele>35</ele>
        <time>2018-06-03T08:57:11Z</time>
      </trkpt>
      <trkpt lat="48.62289" lon="-2.42547">
        <ele>35</ele>
        <time>2018-06-03T08:57:15Z</time>
      </trkpt>
      <trkpt lat="48.62287" lon="-2.4256">
        <ele>35</ele>
        <time>2018-06-03T08:57:19Z</time>
      </trkpt>
      <trkpt lat="48.62285" lon="-2.42567">
        <ele>35</ele>
        <time>2018-06-03T08:57:23Z</time>
      </trkpt>
      <trkpt lat="48.62279" lon="-2.42576">
        <ele>36</ele>
        <time>2018-06-03T08:57:27Z</time>
      </trkpt>
      <trkpt lat="48.62273" lon="-2.42584">
        <ele>37</ele>
        <time>2018-06-03T08:57:31Z</time>
      </trkpt>
      <trkpt lat="48.62271" lon="-2.42591">
        <ele>37</ele>
        <time>2018-06-03T08:57:35Z</time>
      </trkpt>
      <trkpt lat="48.6227" lon="-2.42601">
        <ele>37</ele>
        <time>2018-06-03T08:57:39Z</time>
      </trkpt>
      <trkpt lat="48.62268" lon="-2.42613">
        <ele>36</ele>
        <time>2018-06-03T08:57:43Z</time>
      </trkpt>
      <trkpt lat="48.62265" lon="-2.42617">
        <ele>36</ele>
        <time>2018-06-03T08:57:47Z</time>
      </trkpt>
      <trkpt lat="48.62261" lon="-2.42623">
        <ele>36</ele>
        <time>2018-06-03T08:57:51Z</time>
      </trkpt>
      <trkpt lat="48.62254" lon="-2.42629">
        <ele>36</ele>
        <time>2018-06-03T08:57:55Z</time>
      </trkpt>
      <trkpt lat="48.62246" lon="-2.4264">
        <ele>37</ele>
        <time>2018-06-03T08:57:59Z</time>
      </trkpt>
      <trkpt lat="48.62247" lon="-2.42649">
        <ele>37</ele>
        <time>2018-06-03T08:58:03Z</time>
      </trkpt>
      <trkpt lat="48.62238" lon="-2.42649">
        <ele>37</ele>
        <time>2018-06-03T08:58:07Z</time>
      </trkpt>
      <trkpt lat="48.6223" lon="-2.42657">
        <ele>37</ele>
        <time>2018-06-03T08:58:11Z</time>
      </trkpt>
      <trkpt lat="48.62221" lon="-2.42657">
        <ele>38</ele>
        <time>2018-06-03T08:58:15Z</time>
      </trkpt>
      <trkpt lat="48.62219" lon="-2.42665">
        <ele>38</ele>
        <time>2018-06-03T08:58:19Z</time>
      </trkpt>
      <trkpt lat="48.62196" lon="-2.42665">
        <ele>40</ele>
        <time>2018-06-03T08:58:27Z</time>
      </trkpt>
      <trkpt lat="48.62192" lon="-2.42664">
        <ele>40</ele>
        <time>2018-06-03T08:58:31Z</time>
      </trkpt>
      <trkpt lat="48.62187" lon="-2.42662">
        <ele>40</ele>
        <time>2018-06-03T08:58:35Z</time>
      </trkpt>
      <trkpt lat="48.62181" lon="-2.4266">
        <ele>41</ele>
        <time>2018-06-03T08:58:39Z</time>
      </trkpt>
      <trkpt lat="48.62173" lon="-2.42658">
        <ele>41</ele>
        <time>2018-06-03T08:58:43Z</time>
      </trkpt>
      <trkpt lat="48.62171" lon="-2.42657">
        <ele>41</ele>
        <time>2018-06-03T08:58:47Z</time>
      </trkpt>
      <trkpt lat="48.62164" lon="-2.42656">
        <ele>43</ele>
        <time>2018-06-03T08:58:51Z</time>
      </trkpt>
      <trkpt lat="48.62157" lon="-2.4266">
        <ele>43</ele>
        <time>2018-06-03T08:58:55Z</time>
      </trkpt>
      <trkpt lat="48.62146" lon="-2.42659">
        <ele>44</ele>
        <time>2018-06-03T08:58:59Z</time>
      </trkpt>
      <trkpt lat="48.6214" lon="-2.42663">
        <ele>44</ele>
        <time>2018-06-03T08:59:07Z</time>
      </trkpt>
      <trkpt lat="48.62133" lon="-2.4266">
        <ele>45</ele>
        <time>2018-06-03T08:59:11Z</time>
      </trkpt>
      <trkpt lat="48.62129" lon="-2.42652">
        <ele>45</ele>
        <time>2018-06-03T08:59:15Z</time>
      </trkpt>
      <trkpt lat="48.62109" lon="-2.42656">
        <ele>46</ele>
        <time>2018-06-03T08:59:31Z</time>
      </trkpt>
      <trkpt lat="48.62102" lon="-2.42648">
        <ele>47</ele>
        <time>2018-06-03T08:59:35Z</time>
      </trkpt>
      <trkpt lat="48.62086" lon="-2.42646">
        <ele>47</ele>
        <time>2018-06-03T08:59:39Z</time>
      </trkpt>
      <trkpt lat="48.62077" lon="-2.42654">
        <ele>49</ele>
        <time>2018-06-03T08:59:51Z</time>
      </trkpt>
      <trkpt lat="48.6206" lon="-2.42646">
        <ele>50</ele>
        <time>2018-06-03T08:59:55Z</time>
      </trkpt>
      <trkpt lat="48.62054" lon="-2.4265">
        <ele>50</ele>
        <time>2018-06-03T08:59:59Z</time>
      </trkpt>
      <trkpt lat="48.62049" lon="-2.42655">
        <ele>50</ele>
        <time>2018-06-03T09:00:07Z</time>
      </trkpt>
      <trkpt lat="48.62041" lon="-2.42648">
        <ele>50</ele>
        <time>2018-06-03T09:00:11Z</time>
      </trkpt>
      <trkpt lat="48.62036" lon="-2.42642">
        <ele>50</ele>
        <time>2018-06-03T09:00:15Z</time>
      </trkpt>
      <trkpt lat="48.62028" lon="-2.42636">
        <ele>50</ele>
        <time>2018-06-03T09:00:19Z</time>
      </trkpt>
      <trkpt lat="48.62022" lon="-2.42629">
        <ele>50</ele>
        <time>2018-06-03T09:00:23Z</time>
      </trkpt>
      <trkpt lat="48.62014" lon="-2.42624">
        <ele>50</ele>
        <time>2018-06-03T09:00:27Z</time>
      </trkpt>
      <trkpt lat="48.62007" lon="-2.42626">
        <ele>51</ele>
        <time>2018-06-03T09:00:31Z</time>
      </trkpt>
      <trkpt lat="48.61999" lon="-2.42621">
        <ele>52</ele>
        <time>2018-06-03T09:00:35Z</time>
      </trkpt>
      <trkpt lat="48.6199" lon="-2.42615">
        <ele>52</ele>
        <time>2018-06-03T09:00:39Z</time>
      </trkpt>
      <trkpt lat="48.61987" lon="-2.42614">
        <ele>52</ele>
        <time>2018-06-03T09:00:43Z</time>
      </trkpt>
      <trkpt lat="48.6197" lon="-2.42615">
        <ele>52</ele>
        <time>2018-06-03T09:00:47Z</time>
      </trkpt>
      <trkpt lat="48.61966" lon="-2.42623">
        <ele>52</ele>
        <time>2018-06-03T09:00:55Z</time>
      </trkpt>
      <trkpt lat="48.61959" lon="-2.42622">
        <ele>52</ele>
        <time>2018-06-03T09:00:59Z</time>
      </trkpt>
      <trkpt lat="48.61936" lon="-2.42629">
        <ele>51</ele>
        <time>2018-06-03T09:01:03Z</time>
      </trkpt>
      <trkpt lat="48.61931" lon="-2.42618">
        <ele>52</ele>
        <time>2018-06-03T09:01:11Z</time>
      </trkpt>
      <trkpt lat="48.61936" lon="-2.42609">
        <ele>52</ele>
        <time>2018-06-03T09:01:15Z</time>
      </trkpt>
      <trkpt lat="48.61942" lon="-2.42592">
        <ele>52</ele>
        <time>2018-06-03T09:01:19Z</time>
      </trkpt>
      <trkpt lat="48.6194" lon="-2.42585">
        <ele>52</ele>
        <time>2018-06-03T09:01:23Z</time>
      </trkpt>
      <trkpt lat="48.61926" lon="-2.42568">
        <ele>51</ele>
        <time>2018-06-03T09:01:27Z</time>
      </trkpt>
      <trkpt lat="48.61918" lon="-2.42553">
        <ele>50</ele>
        <time>2018-06-03T09:01:31Z</time>
      </trkpt>
      <trkpt lat="48.61918" lon="-2.42534">
        <ele>50</ele>
        <time>2018-06-03T09:01:35Z</time>
      </trkpt>
      <trkpt lat="48.61913" lon="-2.42519">
        <ele>48</ele>
        <time>2018-06-03T09:01:39Z</time>
      </trkpt>
      <trkpt lat="48.61905" lon="-2.42491">
        <ele>47</ele>
        <time>2018-06-03T09:01:43Z</time>
      </trkpt>
      <trkpt lat="48.61906" lon="-2.42464">
        <ele>47</ele>
        <time>2018-06-03T09:01:47Z</time>
      </trkpt>
      <trkpt lat="48.61912" lon="-2.4244">
        <ele>46</ele>
        <time>2018-06-03T09:01:51Z</time>
      </trkpt>
      <trkpt lat="48.61918" lon="-2.42414">
        <ele>44</ele>
        <time>2018-06-03T09:01:55Z</time>
      </trkpt>
      <trkpt lat="48.6191" lon="-2.42393">
        <ele>45</ele>
        <time>2018-06-03T09:01:59Z</time>
      </trkpt>
      <trkpt lat="48.61902" lon="-2.42391">
        <ele>45</ele>
        <time>2018-06-03T09:02:51Z</time>
      </trkpt>
      <trkpt lat="48.61901" lon="-2.42378">
        <ele>45</ele>
        <time>2018-06-03T09:02:55Z</time>
      </trkpt>
      <trkpt lat="48.61897" lon="-2.4236">
        <ele>45</ele>
        <time>2018-06-03T09:02:59Z</time>
      </trkpt>
      <trkpt lat="48.61889" lon="-2.42339">
        <ele>45</ele>
        <time>2018-06-03T09:03:07Z</time>
      </trkpt>
      <trkpt lat="48.61882" lon="-2.4234">
        <ele>45</ele>
        <time>2018-06-03T09:03:15Z</time>
      </trkpt>
      <trkpt lat="48.61875" lon="-2.42337">
        <ele>45</ele>
        <time>2018-06-03T09:03:19Z</time>
      </trkpt>
      <trkpt lat="48.61869" lon="-2.42334">
        <ele>45</ele>
        <time>2018-06-03T09:03:23Z</time>
      </trkpt>
      <trkpt lat="48.6186" lon="-2.42326">
        <ele>44</ele>
        <time>2018-06-03T09:03:27Z</time>
      </trkpt>
      <trkpt lat="48.61851" lon="-2.42319">
        <ele>45</ele>
        <time>2018-06-03T09:03:31Z</time>
      </trkpt>
      <trkpt lat="48.61843" lon="-2.42326">
        <ele>45</ele>
        <time>2018-06-03T09:03:35Z</time>
      </trkpt>
      <trkpt lat="48.61834" lon="-2.42328">
        <ele>46</ele>
        <time>2018-06-03T09:03:39Z</time>
      </trkpt>
      <trkpt lat="48.61821" lon="-2.42323">
        <ele>45</ele>
        <time>2018-06-03T09:03:43Z</time>
      </trkpt>
      <trkpt lat="48.61808" lon="-2.42323">
        <ele>45</ele>
        <time>2018-06-03T09:03:47Z</time>
      </trkpt>
      <trkpt lat="48.61797" lon="-2.42332">
        <ele>45</ele>
        <time>2018-06-03T09:03:51Z</time>
      </trkpt>
      <trkpt lat="48.61797" lon="-2.42348">
        <ele>47</ele>
        <time>2018-06-03T09:03:55Z</time>
      </trkpt>
      <trkpt lat="48.61795" lon="-2.42366">
        <ele>47</ele>
        <time>2018-06-03T09:03:59Z</time>
      </trkpt>
      <trkpt lat="48.61787" lon="-2.42378">
        <ele>47</ele>
        <time>2018-06-03T09:04:03Z</time>
      </trkpt>
      <trkpt lat="48.61781" lon="-2.42386">
        <ele>47</ele>
        <time>2018-06-03T09:04:07Z</time>
      </trkpt>
      <trkpt lat="48.61769" lon="-2.42391">
        <ele>48</ele>
        <time>2018-06-03T09:04:11Z</time>
      </trkpt>
      <trkpt lat="48.61761" lon="-2.42398">
        <ele>48</ele>
        <time>2018-06-03T09:04:15Z</time>
      </trkpt>
      <trkpt lat="48.61751" lon="-2.42416">
        <ele>49</ele>
        <time>2018-06-03T09:04:19Z</time>
      </trkpt>
      <trkpt lat="48.61745" lon="-2.42427">
        <ele>48</ele>
        <time>2018-06-03T09:04:23Z</time>
      </trkpt>
      <trkpt lat="48.61738" lon="-2.42445">
        <ele>48</ele>
        <time>2018-06-03T09:04:31Z</time>
      </trkpt>
      <trkpt lat="48.61734" lon="-2.42461">
        <ele>48</ele>
        <time>2018-06-03T09:04:35Z</time>
      </trkpt>
      <trkpt lat="48.61735" lon="-2.42484">
        <ele>49</ele>
        <time>2018-06-03T09:04:39Z</time>
      </trkpt>
      <trkpt lat="48.61749" lon="-2.42499">
        <ele>50</ele>
        <time>2018-06-03T09:04:43Z</time>
      </trkpt>
      <trkpt lat="48.61754" lon="-2.4251">
        <ele>50</ele>
        <time>2018-06-03T09:04:47Z</time>
      </trkpt>
      <trkpt lat="48.61761" lon="-2.42527">
        <ele>49</ele>
        <time>2018-06-03T09:04:51Z</time>
      </trkpt>
      <trkpt lat="48.61767" lon="-2.42512">
        <ele>50</ele>
        <time>2018-06-03T09:05:15Z</time>
      </trkpt>
      <trkpt lat="48.61755" lon="-2.42499">
        <ele>50</ele>
        <time>2018-06-03T09:05:23Z</time>
      </trkpt>
      <trkpt lat="48.61744" lon="-2.42497">
        <ele>49</ele>
        <time>2018-06-03T09:05:27Z</time>
      </trkpt>
      <trkpt lat="48.61732" lon="-2.42493">
        <ele>49</ele>
        <time>2018-06-03T09:05:31Z</time>
      </trkpt>
      <trkpt lat="48.61723" lon="-2.42485">
        <ele>48</ele>
        <time>2018-06-03T09:05:35Z</time>
      </trkpt>
      <trkpt lat="48.61719" lon="-2.42473">
        <ele>48</ele>
        <time>2018-06-03T09:05:39Z</time>
      </trkpt>
      <trkpt lat="48.61717" lon="-2.42455">
        <ele>48</ele>
        <time>2018-06-03T09:05:43Z</time>
      </trkpt>
      <trkpt lat="48.61726" lon="-2.42454">
        <ele>48</ele>
        <time>2018-06-03T09:05:47Z</time>
      </trkpt>
      <trkpt lat="48.61735" lon="-2.42444">
        <ele>48</ele>
        <time>2018-06-03T09:05:51Z</time>
      </trkpt>
      <trkpt lat="48.6174" lon="-2.42438">
        <ele>48</ele>
        <time>2018-06-03T09:05:55Z</time>
      </trkpt>
      <trkpt lat="48.61745" lon="-2.42431">
        <ele>48</ele>
        <time>2018-06-03T09:05:59Z</time>
      </trkpt>
      <trkpt lat="48.61739" lon="-2.42444">
        <ele>48</ele>
        <time>2018-06-03T09:06:23Z</time>
      </trkpt>
      <trkpt lat="48.61733" lon="-2.42453">
        <ele>48</ele>
        <time>2018-06-03T09:06:27Z</time>
      </trkpt>
      <trkpt lat="48.61734" lon="-2.42495">
        <ele>49</ele>
        <time>2018-06-03T09:06:31Z</time>
      </trkpt>
      <trkpt lat="48.61739" lon="-2.42521">
        <ele>49</ele>
        <time>2018-06-03T09:06:39Z</time>
      </trkpt>
      <trkpt lat="48.61741" lon="-2.42532">
        <ele>49</ele>
        <time>2018-06-03T09:06:43Z</time>
      </trkpt>
      <trkpt lat="48.61728" lon="-2.42549">
        <ele>49</ele>
        <time>2018-06-03T09:07:03Z</time>
      </trkpt>
      <trkpt lat="48.61712" lon="-2.42543">
        <ele>48</ele>
        <time>2018-06-03T09:07:07Z</time>
      </trkpt>
      <trkpt lat="48.61704" lon="-2.42534">
        <ele>48</ele>
        <time>2018-06-03T09:07:11Z</time>
      </trkpt>
      <trkpt lat="48.61695" lon="-2.42542">
        <ele>48</ele>
        <time>2018-06-03T09:07:15Z</time>
      </trkpt>
      <trkpt lat="48.61698" lon="-2.42565">
        <ele>48</ele>
        <time>2018-06-03T09:07:19Z</time>
      </trkpt>
      <trkpt lat="48.61703" lon="-2.42583">
        <ele>48</ele>
        <time>2018-06-03T09:07:23Z</time>
      </trkpt>
      <trkpt lat="48.61707" lon="-2.42609">
        <ele>48</ele>
        <time>2018-06-03T09:07:27Z</time>
      </trkpt>
      <trkpt lat="48.61703" lon="-2.42611">
        <ele>48</ele>
        <time>2018-06-03T09:07:31Z</time>
      </trkpt>
      <trkpt lat="48.61694" lon="-2.42604">
        <ele>48</ele>
        <time>2018-06-03T09:07:35Z</time>
      </trkpt>
      <trkpt lat="48.6168" lon="-2.42614">
        <ele>48</ele>
        <time>2018-06-03T09:07:39Z</time>
      </trkpt>
      <trkpt lat="48.61678" lon="-2.42624">
        <ele>47</ele>
        <time>2018-06-03T09:07:43Z</time>
      </trkpt>
      <trkpt lat="48.61684" lon="-2.42637">
        <ele>47</ele>
        <time>2018-06-03T09:07:47Z</time>
      </trkpt>
      <trkpt lat="48.6169" lon="-2.42662">
        <ele>47</ele>
        <time>2018-06-03T09:07:51Z</time>
      </trkpt>
      <trkpt lat="48.61687" lon="-2.4268">
        <ele>46</ele>
        <time>2018-06-03T09:07:55Z</time>
      </trkpt>
      <trkpt lat="48.61676" lon="-2.42704">
        <ele>45</ele>
        <time>2018-06-03T09:07:59Z</time>
      </trkpt>
      <trkpt lat="48.61666" lon="-2.42723">
        <ele>44</ele>
        <time>2018-06-03T09:08:03Z</time>
      </trkpt>
      <trkpt lat="48.61659" lon="-2.42751">
        <ele>42</ele>
        <time>2018-06-03T09:08:07Z</time>
      </trkpt>
      <trkpt lat="48.6164" lon="-2.42778">
        <ele>42</ele>
        <time>2018-06-03T09:08:11Z</time>
      </trkpt>
      <trkpt lat="48.61627" lon="-2.42794">
        <ele>42</ele>
        <time>2018-06-03T09:08:15Z</time>
      </trkpt>
      <trkpt lat="48.61604" lon="-2.42809">
        <ele>42</ele>
        <time>2018-06-03T09:08:19Z</time>
      </trkpt>
      <trkpt lat="48.61583" lon="-2.42825">
        <ele>42</ele>
        <time>2018-06-03T09:08:23Z</time>
      </trkpt>
      <trkpt lat="48.61563" lon="-2.42839">
        <ele>42</ele>
        <time>2018-06-03T09:08:27Z</time>
      </trkpt>
      <trkpt lat="48.61541" lon="-2.42852">
        <ele>42</ele>
        <time>2018-06-03T09:08:31Z</time>
      </trkpt>
      <trkpt lat="48.61518" lon="-2.42848">
        <ele>42</ele>
        <time>2018-06-03T09:08:35Z</time>
      </trkpt>
      <trkpt lat="48.61497" lon="-2.42838">
        <ele>42</ele>
        <time>2018-06-03T09:08:39Z</time>
      </trkpt>
      <trkpt lat="48.61472" lon="-2.42825">
        <ele>44</ele>
        <time>2018-06-03T09:08:43Z</time>
      </trkpt>
      <trkpt lat="48.61449" lon="-2.4281">
        <ele>45</ele>
        <time>2018-06-03T09:08:47Z</time>
      </trkpt>
      <trkpt lat="48.61424" lon="-2.42796">
        <ele>45</ele>
        <time>2018-06-03T09:08:51Z</time>
      </trkpt>
      <trkpt lat="48.61399" lon="-2.42785">
        <ele>47</ele>
        <time>2018-06-03T09:08:55Z</time>
      </trkpt>
      <trkpt lat="48.61381" lon="-2.42779">
        <ele>47</ele>
        <time>2018-06-03T09:08:59Z</time>
      </trkpt>
      <trkpt lat="48.6135" lon="-2.42784">
        <ele>46</ele>
        <time>2018-06-03T09:09:03Z</time>
      </trkpt>
      <trkpt lat="48.61326" lon="-2.42778">
        <ele>46</ele>
        <time>2018-06-03T09:09:07Z</time>
      </trkpt>
      <trkpt lat="48.61299" lon="-2.42783">
        <ele>46</ele>
        <time>2018-06-03T09:09:11Z</time>
      </trkpt>
      <trkpt lat="48.61284" lon="-2.42809">
        <ele>47</ele>
        <time>2018-06-03T09:09:15Z</time>
      </trkpt>
      <trkpt lat="48.61276" lon="-2.42838">
        <ele>47</ele>
        <time>2018-06-03T09:09:19Z</time>
      </trkpt>
      <trkpt lat="48.61269" lon="-2.42872">
        <ele>47</ele>
        <time>2018-06-03T09:09:23Z</time>
      </trkpt>
      <trkpt lat="48.61263" lon="-2.42904">
        <ele>48</ele>
        <time>2018-06-03T09:09:27Z</time>
      </trkpt>
      <trkpt lat="48.61257" lon="-2.42939">
        <ele>47</ele>
        <time>2018-06-03T09:09:31Z</time>
      </trkpt>
      <trkpt lat="48.61251" lon="-2.42972">
        <ele>47</ele>
        <time>2018-06-03T09:09:35Z</time>
      </trkpt>
      <trkpt lat="48.61248" lon="-2.43001">
        <ele>47</ele>
        <time>2018-06-03T09:09:39Z</time>
      </trkpt>
      <trkpt lat="48.61249" lon="-2.43028">
        <ele>48</ele>
        <time>2018-06-03T09:09:43Z</time>
      </trkpt>
      <trkpt lat="48.6126" lon="-2.43055">
        <ele>47</ele>
        <time>2018-06-03T09:09:47Z</time>
      </trkpt>
      <trkpt lat="48.61283" lon="-2.43063">
        <ele>47</ele>
        <time>2018-06-03T09:09:51Z</time>
      </trkpt>
      <trkpt lat="48.61304" lon="-2.43069">
        <ele>46</ele>
        <time>2018-06-03T09:09:55Z</time>
      </trkpt>
      <trkpt lat="48.61325" lon="-2.43078">
        <ele>46</ele>
        <time>2018-06-03T09:09:59Z</time>
      </trkpt>
      <trkpt lat="48.61347" lon="-2.43093">
        <ele>45</ele>
        <time>2018-06-03T09:10:03Z</time>
      </trkpt>
      <trkpt lat="48.61356" lon="-2.43116">
        <ele>45</ele>
        <time>2018-06-03T09:10:07Z</time>
      </trkpt>
      <trkpt lat="48.61344" lon="-2.43135">
        <ele>45</ele>
        <time>2018-06-03T09:10:11Z</time>
      </trkpt>
      <trkpt lat="48.6133" lon="-2.4315">
        <ele>46</ele>
        <time>2018-06-03T09:10:15Z</time>
      </trkpt>
      <trkpt lat="48.61315" lon="-2.43169">
        <ele>46</ele>
        <time>2018-06-03T09:10:19Z</time>
      </trkpt>
      <trkpt lat="48.61301" lon="-2.43192">
        <ele>47</ele>
        <time>2018-06-03T09:10:23Z</time>
      </trkpt>
      <trkpt lat="48.61288" lon="-2.43218">
        <ele>48</ele>
        <time>2018-06-03T09:10:27Z</time>
      </trkpt>
      <trkpt lat="48.61276" lon="-2.43243">
        <ele>48</ele>
        <time>2018-06-03T09:10:31Z</time>
      </trkpt>
      <trkpt lat="48.61263" lon="-2.43263">
        <ele>49</ele>
        <time>2018-06-03T09:10:35Z</time>
      </trkpt>
      <trkpt lat="48.61248" lon="-2.43267">
        <ele>50</ele>
        <time>2018-06-03T09:10:39Z</time>
      </trkpt>
      <trkpt lat="48.61233" lon="-2.4326">
        <ele>50</ele>
        <time>2018-06-03T09:10:43Z</time>
      </trkpt>
      <trkpt lat="48.61217" lon="-2.43248">
        <ele>50</ele>
        <time>2018-06-03T09:10:47Z</time>
      </trkpt>
      <trkpt lat="48.61184" lon="-2.4324">
        <ele>51</ele>
        <time>2018-06-03T09:10:55Z</time>
      </trkpt>
      <trkpt lat="48.61172" lon="-2.43247">
        <ele>51</ele>
        <time>2018-06-03T09:10:59Z</time>
      </trkpt>
      <trkpt lat="48.61153" lon="-2.43256">
        <ele>51</ele>
        <time>2018-06-03T09:11:03Z</time>
      </trkpt>
      <trkpt lat="48.61135" lon="-2.43262">
        <ele>52</ele>
        <time>2018-06-03T09:11:07Z</time>
      </trkpt>
      <trkpt lat="48.61114" lon="-2.43264">
        <ele>52</ele>
        <time>2018-06-03T09:11:11Z</time>
      </trkpt>
      <trkpt lat="48.61095" lon="-2.43272">
        <ele>52</ele>
        <time>2018-06-03T09:11:15Z</time>
      </trkpt>
      <trkpt lat="48.6108" lon="-2.43276">
        <ele>53</ele>
        <time>2018-06-03T09:11:19Z</time>
      </trkpt>
      <trkpt lat="48.61064" lon="-2.43284">
        <ele>53</ele>
        <time>2018-06-03T09:11:23Z</time>
      </trkpt>
      <trkpt lat="48.61048" lon="-2.43295">
        <ele>53</ele>
        <time>2018-06-03T09:11:27Z</time>
      </trkpt>
      <trkpt lat="48.61033" lon="-2.43298">
        <ele>53</ele>
        <time>2018-06-03T09:11:31Z</time>
      </trkpt>
      <trkpt lat="48.61009" lon="-2.43306">
        <ele>53</ele>
        <time>2018-06-03T09:11:39Z</time>
      </trkpt>
      <trkpt lat="48.61009" lon="-2.43324">
        <ele>53</ele>
        <time>2018-06-03T09:11:43Z</time>
      </trkpt>
      <trkpt lat="48.6102" lon="-2.43342">
        <ele>53</ele>
        <time>2018-06-03T09:11:47Z</time>
      </trkpt>
      <trkpt lat="48.61032" lon="-2.43359">
        <ele>53</ele>
        <time>2018-06-03T09:11:51Z</time>
      </trkpt>
      <trkpt lat="48.61062" lon="-2.43395">
        <ele>53</ele>
        <time>2018-06-03T09:11:59Z</time>
      </trkpt>
      <trkpt lat="48.61079" lon="-2.43406">
        <ele>54</ele>
        <time>2018-06-03T09:12:03Z</time>
      </trkpt>
      <trkpt lat="48.61098" lon="-2.43407">
        <ele>54</ele>
        <time>2018-06-03T09:12:07Z</time>
      </trkpt>
      <trkpt lat="48.61116" lon="-2.43408">
        <ele>54</ele>
        <time>2018-06-03T09:12:11Z</time>
      </trkpt>
      <trkpt lat="48.61134" lon="-2.43404">
        <ele>53</ele>
        <time>2018-06-03T09:12:15Z</time>
      </trkpt>
      <trkpt lat="48.6115" lon="-2.43423">
        <ele>54</ele>
        <time>2018-06-03T09:12:19Z</time>
      </trkpt>
      <trkpt lat="48.61151" lon="-2.43452">
        <ele>53</ele>
        <time>2018-06-03T09:12:23Z</time>
      </trkpt>
      <trkpt lat="48.6115" lon="-2.43487">
        <ele>53</ele>
        <time>2018-06-03T09:12:27Z</time>
      </trkpt>
      <trkpt lat="48.61149" lon="-2.43523">
        <ele>52</ele>
        <time>2018-06-03T09:12:31Z</time>
      </trkpt>
      <trkpt lat="48.61149" lon="-2.43563">
        <ele>51</ele>
        <time>2018-06-03T09:12:35Z</time>
      </trkpt>
      <trkpt lat="48.61146" lon="-2.43602">
        <ele>50</ele>
        <time>2018-06-03T09:12:39Z</time>
      </trkpt>
      <trkpt lat="48.61147" lon="-2.43645">
        <ele>49</ele>
        <time>2018-06-03T09:12:43Z</time>
      </trkpt>
      <trkpt lat="48.6115" lon="-2.4369">
        <ele>48</ele>
        <time>2018-06-03T09:12:47Z</time>
      </trkpt>
      <trkpt lat="48.61153" lon="-2.43733">
        <ele>48</ele>
        <time>2018-06-03T09:12:51Z</time>
      </trkpt>
      <trkpt lat="48.61161" lon="-2.43773">
        <ele>48</ele>
        <time>2018-06-03T09:12:55Z</time>
      </trkpt>
      <trkpt lat="48.61179" lon="-2.43806">
        <ele>47</ele>
        <time>2018-06-03T09:12:59Z</time>
      </trkpt>
      <trkpt lat="48.61187" lon="-2.4384">
        <ele>47</ele>
        <time>2018-06-03T09:13:03Z</time>
      </trkpt>
      <trkpt lat="48.61178" lon="-2.4385">
        <ele>47</ele>
        <time>2018-06-03T09:13:07Z</time>
      </trkpt>
      <trkpt lat="48.61164" lon="-2.43842">
        <ele>47</ele>
        <time>2018-06-03T09:13:11Z</time>
      </trkpt>
      <trkpt lat="48.61148" lon="-2.43827">
        <ele>47</ele>
        <time>2018-06-03T09:13:15Z</time>
      </trkpt>
      <trkpt lat="48.61133" lon="-2.43816">
        <ele>47</ele>
        <time>2018-06-03T09:13:19Z</time>
      </trkpt>
      <trkpt lat="48.61124" lon="-2.43803">
        <ele>47</ele>
        <time>2018-06-03T09:13:23Z</time>
      </trkpt>
      <trkpt lat="48.61108" lon="-2.43808">
        <ele>47</ele>
        <time>2018-06-03T09:13:27Z</time>
      </trkpt>
      <trkpt lat="48.61101" lon="-2.43822">
        <ele>47</ele>
        <time>2018-06-03T09:13:31Z</time>
      </trkpt>
      <trkpt lat="48.6109" lon="-2.43811">
        <ele>47</ele>
        <time>2018-06-03T09:13:35Z</time>
      </trkpt>
      <trkpt lat="48.61074" lon="-2.43811">
        <ele>47</ele>
        <time>2018-06-03T09:13:39Z</time>
      </trkpt>
      <trkpt lat="48.61058" lon="-2.43817">
        <ele>46</ele>
        <time>2018-06-03T09:13:43Z</time>
      </trkpt>
      <trkpt lat="48.61024" lon="-2.43831">
        <ele>46</ele>
        <time>2018-06-03T09:13:51Z</time>
      </trkpt>
      <trkpt lat="48.61006" lon="-2.43837">
        <ele>45</ele>
        <time>2018-06-03T09:13:55Z</time>
      </trkpt>
      <trkpt lat="48.60991" lon="-2.43841">
        <ele>45</ele>
        <time>2018-06-03T09:13:59Z</time>
      </trkpt>
      <trkpt lat="48.60975" lon="-2.43842">
        <ele>45</ele>
        <time>2018-06-03T09:14:03Z</time>
      </trkpt>
      <trkpt lat="48.60959" lon="-2.43843">
        <ele>45</ele>
        <time>2018-06-03T09:14:07Z</time>
      </trkpt>
      <trkpt lat="48.60947" lon="-2.43842">
        <ele>45</ele>
        <time>2018-06-03T09:14:11Z</time>
      </trkpt>
      <trkpt lat="48.60937" lon="-2.43841">
        <ele>45</ele>
        <time>2018-06-03T09:14:15Z</time>
      </trkpt>
      <trkpt lat="48.6093" lon="-2.4384">
        <ele>45</ele>
        <time>2018-06-03T09:14:19Z</time>
      </trkpt>
      <trkpt lat="48.60925" lon="-2.43845">
        <ele>45</ele>
        <time>2018-06-03T09:16:15Z</time>
      </trkpt>
      <trkpt lat="48.60925" lon="-2.43843">
        <ele>45</ele>
        <time>2018-06-03T09:16:59Z</time>
      </trkpt>
      <trkpt lat="48.60922" lon="-2.43832">
        <ele>45</ele>
        <time>2018-06-03T09:17:07Z</time>
      </trkpt>
      <trkpt lat="48.60914" lon="-2.43819">
        <ele>45</ele>
        <time>2018-06-03T09:17:11Z</time>
      </trkpt>
      <trkpt lat="48.60911" lon="-2.43808">
        <ele>45</ele>
        <time>2018-06-03T09:17:15Z</time>
      </trkpt>
      <trkpt lat="48.60907" lon="-2.43792">
        <ele>45</ele>
        <time>2018-06-03T09:17:19Z</time>
      </trkpt>
      <trkpt lat="48.60904" lon="-2.43775">
        <ele>45</ele>
        <time>2018-06-03T09:17:23Z</time>
      </trkpt>
      <trkpt lat="48.60899" lon="-2.43758">
        <ele>45</ele>
        <time>2018-06-03T09:17:27Z</time>
      </trkpt>
      <trkpt lat="48.60889" lon="-2.43735">
        <ele>46</ele>
        <time>2018-06-03T09:17:31Z</time>
      </trkpt>
      <trkpt lat="48.60888" lon="-2.43715">
        <ele>46</ele>
        <time>2018-06-03T09:17:35Z</time>
      </trkpt>
      <trkpt lat="48.60886" lon="-2.43698">
        <ele>46</ele>
        <time>2018-06-03T09:17:39Z</time>
      </trkpt>
      <trkpt lat="48.6088" lon="-2.43676">
        <ele>47</ele>
        <time>2018-06-03T09:17:43Z</time>
      </trkpt>
      <trkpt lat="48.60876" lon="-2.43655">
        <ele>48</ele>
        <time>2018-06-03T09:17:47Z</time>
      </trkpt>
      <trkpt lat="48.60871" lon="-2.43633">
        <ele>48</ele>
        <time>2018-06-03T09:17:51Z</time>
      </trkpt>
      <trkpt lat="48.60871" lon="-2.43609">
        <ele>49</ele>
        <time>2018-06-03T09:17:55Z</time>
      </trkpt>
      <trkpt lat="48.60871" lon="-2.43582">
        <ele>50</ele>
        <time>2018-06-03T09:17:59Z</time>
      </trkpt>
      <trkpt lat="48.60871" lon="-2.43557">
        <ele>50</ele>
        <time>2018-06-03T09:18:03Z</time>
      </trkpt>
      <trkpt lat="48.60869" lon="-2.43538">
        <ele>51</ele>
        <time>2018-06-03T09:18:07Z</time>
      </trkpt>
      <trkpt lat="48.60867" lon="-2.43513">
        <ele>51</ele>
        <time>2018-06-03T09:18:11Z</time>
      </trkpt>
      <trkpt lat="48.60863" lon="-2.4349">
        <ele>52</ele>
        <time>2018-06-03T09:18:15Z</time>
      </trkpt>
      <trkpt lat="48.60865" lon="-2.43465">
        <ele>52</ele>
        <time>2018-06-03T09:18:19Z</time>
      </trkpt>
      <trkpt lat="48.6086" lon="-2.43443">
        <ele>52</ele>
        <time>2018-06-03T09:18:23Z</time>
      </trkpt>
      <trkpt lat="48.60857" lon="-2.4342">
        <ele>52</ele>
        <time>2018-06-03T09:18:27Z</time>
      </trkpt>
      <trkpt lat="48.60855" lon="-2.43395">
        <ele>53</ele>
        <time>2018-06-03T09:18:31Z</time>
      </trkpt>
      <trkpt lat="48.60852" lon="-2.43371">
        <ele>53</ele>
        <time>2018-06-03T09:18:35Z</time>
      </trkpt>
      <trkpt lat="48.6085" lon="-2.43348">
        <ele>53</ele>
        <time>2018-06-03T09:18:39Z</time>
      </trkpt>
      <trkpt lat="48.60836" lon="-2.43337">
        <ele>53</ele>
        <time>2018-06-03T09:18:43Z</time>
      </trkpt>
      <trkpt lat="48.60817" lon="-2.43333">
        <ele>54</ele>
        <time>2018-06-03T09:18:47Z</time>
      </trkpt>
      <trkpt lat="48.60801" lon="-2.4333">
        <ele>54</ele>
        <time>2018-06-03T09:18:51Z</time>
      </trkpt>
      <trkpt lat="48.60782" lon="-2.43324">
        <ele>55</ele>
        <time>2018-06-03T09:18:55Z</time>
      </trkpt>
      <trkpt lat="48.60765" lon="-2.43323">
        <ele>55</ele>
        <time>2018-06-03T09:18:59Z</time>
      </trkpt>
      <trkpt lat="48.60748" lon="-2.43326">
        <ele>55</ele>
        <time>2018-06-03T09:19:03Z</time>
      </trkpt>
      <trkpt lat="48.6073" lon="-2.43335">
        <ele>56</ele>
        <time>2018-06-03T09:19:07Z</time>
      </trkpt>
      <trkpt lat="48.60714" lon="-2.43347">
        <ele>56</ele>
        <time>2018-06-03T09:19:11Z</time>
      </trkpt>
      <trkpt lat="48.60701" lon="-2.43347">
        <ele>56</ele>
        <time>2018-06-03T09:19:15Z</time>
      </trkpt>
      <trkpt lat="48.6069" lon="-2.43321">
        <ele>57</ele>
        <time>2018-06-03T09:19:19Z</time>
      </trkpt>
      <trkpt lat="48.60685" lon="-2.43297">
        <ele>57</ele>
        <time>2018-06-03T09:19:23Z</time>
      </trkpt>
      <trkpt lat="48.60681" lon="-2.43272">
        <ele>57</ele>
        <time>2018-06-03T09:19:27Z</time>
      </trkpt>
      <trkpt lat="48.60674" lon="-2.43247">
        <ele>58</ele>
        <time>2018-06-03T09:19:31Z</time>
      </trkpt>
      <trkpt lat="48.60666" lon="-2.43221">
        <ele>58</ele>
        <time>2018-06-03T09:19:35Z</time>
      </trkpt>
      <trkpt lat="48.60659" lon="-2.43197">
        <ele>58</ele>
        <time>2018-06-03T09:19:39Z</time>
      </trkpt>
      <trkpt lat="48.60647" lon="-2.43168">
        <ele>58</ele>
        <time>2018-06-03T09:19:43Z</time>
      </trkpt>
      <trkpt lat="48.6063" lon="-2.43159">
        <ele>57</ele>
        <time>2018-06-03T09:19:47Z</time>
      </trkpt>
      <trkpt lat="48.6061" lon="-2.43155">
        <ele>58</ele>
        <time>2018-06-03T09:19:51Z</time>
      </trkpt>
      <trkpt lat="48.60591" lon="-2.43147">
        <ele>58</ele>
        <time>2018-06-03T09:19:55Z</time>
      </trkpt>
      <trkpt lat="48.60578" lon="-2.43128">
        <ele>58</ele>
        <time>2018-06-03T09:19:59Z</time>
      </trkpt>
      <trkpt lat="48.60558" lon="-2.43109">
        <ele>57</ele>
        <time>2018-06-03T09:20:03Z</time>
      </trkpt>
      <trkpt lat="48.60536" lon="-2.43101">
        <ele>57</ele>
        <time>2018-06-03T09:20:07Z</time>
      </trkpt>
      <trkpt lat="48.60519" lon="-2.43077">
        <ele>57</ele>
        <time>2018-06-03T09:20:11Z</time>
      </trkpt>
      <trkpt lat="48.60516" lon="-2.43043">
        <ele>56</ele>
        <time>2018-06-03T09:20:15Z</time>
      </trkpt>
      <trkpt lat="48.60518" lon="-2.43006">
        <ele>56</ele>
        <time>2018-06-03T09:20:19Z</time>
      </trkpt>
      <trkpt lat="48.60521" lon="-2.42969">
        <ele>56</ele>
        <time>2018-06-03T09:20:23Z</time>
      </trkpt>
      <trkpt lat="48.60521" lon="-2.42933">
        <ele>56</ele>
        <time>2018-06-03T09:20:27Z</time>
      </trkpt>
      <trkpt lat="48.60509" lon="-2.42902">
        <ele>56</ele>
        <time>2018-06-03T09:20:31Z</time>
      </trkpt>
      <trkpt lat="48.60486" lon="-2.42892">
        <ele>57</ele>
        <time>2018-06-03T09:20:35Z</time>
      </trkpt>
      <trkpt lat="48.60466" lon="-2.4291">
        <ele>57</ele>
        <time>2018-06-03T09:20:39Z</time>
      </trkpt>
      <trkpt lat="48.6044" lon="-2.42925">
        <ele>57</ele>
        <time>2018-06-03T09:20:43Z</time>
      </trkpt>
      <trkpt lat="48.60412" lon="-2.42938">
        <ele>58</ele>
        <time>2018-06-03T09:20:47Z</time>
      </trkpt>
      <trkpt lat="48.60383" lon="-2.42949">
        <ele>58</ele>
        <time>2018-06-03T09:20:51Z</time>
      </trkpt>
      <trkpt lat="48.60357" lon="-2.42959">
        <ele>59</ele>
        <time>2018-06-03T09:20:55Z</time>
      </trkpt>
      <trkpt lat="48.60334" lon="-2.42966">
        <ele>59</ele>
        <time>2018-06-03T09:20:59Z</time>
      </trkpt>
      <trkpt lat="48.6031" lon="-2.4298">
        <ele>60</ele>
        <time>2018-06-03T09:21:03Z</time>
      </trkpt>
      <trkpt lat="48.60287" lon="-2.43008">
        <ele>60</ele>
        <time>2018-06-03T09:21:07Z</time>
      </trkpt>
      <trkpt lat="48.60262" lon="-2.43011">
        <ele>59</ele>
        <time>2018-06-03T09:21:11Z</time>
      </trkpt>
      <trkpt lat="48.60234" lon="-2.43004">
        <ele>59</ele>
        <time>2018-06-03T09:21:15Z</time>
      </trkpt>
      <trkpt lat="48.60207" lon="-2.42996">
        <ele>60</ele>
        <time>2018-06-03T09:21:19Z</time>
      </trkpt>
      <trkpt lat="48.60182" lon="-2.42993">
        <ele>60</ele>
        <time>2018-06-03T09:21:23Z</time>
      </trkpt>
      <trkpt lat="48.60155" lon="-2.42998">
        <ele>60</ele>
        <time>2018-06-03T09:21:27Z</time>
      </trkpt>
      <trkpt lat="48.6013" lon="-2.43004">
        <ele>61</ele>
        <time>2018-06-03T09:21:31Z</time>
      </trkpt>
      <trkpt lat="48.60107" lon="-2.43011">
        <ele>61</ele>
        <time>2018-06-03T09:21:35Z</time>
      </trkpt>
      <trkpt lat="48.60085" lon="-2.43019">
        <ele>62</ele>
        <time>2018-06-03T09:21:39Z</time>
      </trkpt>
      <trkpt lat="48.60063" lon="-2.43026">
        <ele>63</ele>
        <time>2018-06-03T09:21:43Z</time>
      </trkpt>
      <trkpt lat="48.6004" lon="-2.43029">
        <ele>63</ele>
        <time>2018-06-03T09:21:47Z</time>
      </trkpt>
      <trkpt lat="48.6002" lon="-2.43032">
        <ele>63</ele>
        <time>2018-06-03T09:21:51Z</time>
      </trkpt>
      <trkpt lat="48.60007" lon="-2.43033">
        <ele>63</ele>
        <time>2018-06-03T09:21:55Z</time>
      </trkpt>
      <trkpt lat="48.59998" lon="-2.43032">
        <ele>64</ele>
        <time>2018-06-03T09:21:59Z</time>
      </trkpt>
      <trkpt lat="48.5998" lon="-2.43036">
        <ele>64</ele>
        <time>2018-06-03T09:22:03Z</time>
      </trkpt>
      <trkpt lat="48.59964" lon="-2.43038">
        <ele>64</ele>
        <time>2018-06-03T09:22:07Z</time>
      </trkpt>
      <trkpt lat="48.59958" lon="-2.4304">
        <ele>65</ele>
        <time>2018-06-03T09:22:11Z</time>
      </trkpt>
      <trkpt lat="48.59946" lon="-2.43036">
        <ele>65</ele>
        <time>2018-06-03T09:22:15Z</time>
      </trkpt>
      <trkpt lat="48.59931" lon="-2.43037">
        <ele>65</ele>
        <time>2018-06-03T09:22:19Z</time>
      </trkpt>
      <trkpt lat="48.59917" lon="-2.43038">
        <ele>65</ele>
        <time>2018-06-03T09:22:23Z</time>
      </trkpt>
      <trkpt lat="48.59903" lon="-2.43039">
        <ele>65</ele>
        <time>2018-06-03T09:22:27Z</time>
      </trkpt>
      <trkpt lat="48.59888" lon="-2.43035">
        <ele>65</ele>
        <time>2018-06-03T09:22:31Z</time>
      </trkpt>
      <trkpt lat="48.59874" lon="-2.43031">
        <ele>66</ele>
        <time>2018-06-03T09:22:35Z</time>
      </trkpt>
      <trkpt lat="48.59865" lon="-2.43026">
        <ele>66</ele>
        <time>2018-06-03T09:22:39Z</time>
      </trkpt>
      <trkpt lat="48.59854" lon="-2.43024">
        <ele>66</ele>
        <time>2018-06-03T09:22:51Z</time>
      </trkpt>
      <trkpt lat="48.59844" lon="-2.43019">
        <ele>66</ele>
        <time>2018-06-03T09:23:07Z</time>
      </trkpt>
      <trkpt lat="48.59825" lon="-2.43025">
        <ele>66</ele>
        <time>2018-06-03T09:23:43Z</time>
      </trkpt>
      <trkpt lat="48.59816" lon="-2.43028">
        <ele>66</ele>
        <time>2018-06-03T09:23:47Z</time>
      </trkpt>
      <trkpt lat="48.59809" lon="-2.43029">
        <ele>66</ele>
        <time>2018-06-03T09:23:51Z</time>
      </trkpt>
      <trkpt lat="48.598" lon="-2.43027">
        <ele>66</ele>
        <time>2018-06-03T09:23:55Z</time>
      </trkpt>
      <trkpt lat="48.59791" lon="-2.43025">
        <ele>67</ele>
        <time>2018-06-03T09:23:59Z</time>
      </trkpt>
      <trkpt lat="48.59778" lon="-2.43023">
        <ele>67</ele>
        <time>2018-06-03T09:24:03Z</time>
      </trkpt>
      <trkpt lat="48.59767" lon="-2.43022">
        <ele>67</ele>
        <time>2018-06-03T09:24:07Z</time>
      </trkpt>
      <trkpt lat="48.5976" lon="-2.43024">
        <ele>67</ele>
        <time>2018-06-03T09:24:11Z</time>
      </trkpt>
      <trkpt lat="48.59749" lon="-2.43025">
        <ele>68</ele>
        <time>2018-06-03T09:24:15Z</time>
      </trkpt>
      <trkpt lat="48.59739" lon="-2.43026">
        <ele>68</ele>
        <time>2018-06-03T09:24:19Z</time>
      </trkpt>
      <trkpt lat="48.59731" lon="-2.43031">
        <ele>68</ele>
        <time>2018-06-03T09:24:23Z</time>
      </trkpt>
      <trkpt lat="48.5972" lon="-2.43039">
        <ele>68</ele>
        <time>2018-06-03T09:24:27Z</time>
      </trkpt>
      <trkpt lat="48.59705" lon="-2.43049">
        <ele>68</ele>
        <time>2018-06-03T09:24:31Z</time>
      </trkpt>
      <trkpt lat="48.59688" lon="-2.43056">
        <ele>69</ele>
        <time>2018-06-03T09:24:35Z</time>
      </trkpt>
      <trkpt lat="48.59676" lon="-2.43064">
        <ele>69</ele>
        <time>2018-06-03T09:24:39Z</time>
      </trkpt>
      <trkpt lat="48.59661" lon="-2.43069">
        <ele>70</ele>
        <time>2018-06-03T09:24:43Z</time>
      </trkpt>
      <trkpt lat="48.5965" lon="-2.43075">
        <ele>70</ele>
        <time>2018-06-03T09:24:47Z</time>
      </trkpt>
      <trkpt lat="48.59637" lon="-2.43081">
        <ele>70</ele>
        <time>2018-06-03T09:24:51Z</time>
      </trkpt>
      <trkpt lat="48.59619" lon="-2.43081">
        <ele>70</ele>
        <time>2018-06-03T09:24:55Z</time>
      </trkpt>
      <trkpt lat="48.59604" lon="-2.43085">
        <ele>71</ele>
        <time>2018-06-03T09:24:59Z</time>
      </trkpt>
      <trkpt lat="48.59591" lon="-2.43086">
        <ele>71</ele>
        <time>2018-06-03T09:25:03Z</time>
      </trkpt>
      <trkpt lat="48.59574" lon="-2.4309">
        <ele>71</ele>
        <time>2018-06-03T09:25:07Z</time>
      </trkpt>
      <trkpt lat="48.59562" lon="-2.43095">
        <ele>71</ele>
        <time>2018-06-03T09:25:11Z</time>
      </trkpt>
      <trkpt lat="48.59547" lon="-2.43098">
        <ele>71</ele>
        <time>2018-06-03T09:25:15Z</time>
      </trkpt>
      <trkpt lat="48.59533" lon="-2.43101">
        <ele>71</ele>
        <time>2018-06-03T09:25:19Z</time>
      </trkpt>
      <trkpt lat="48.59519" lon="-2.43103">
        <ele>71</ele>
        <time>2018-06-03T09:25:23Z</time>
      </trkpt>
      <trkpt lat="48.595" lon="-2.43106">
        <ele>71</ele>
        <time>2018-06-03T09:25:27Z</time>
      </trkpt>
      <trkpt lat="48.59486" lon="-2.4311">
        <ele>71</ele>
        <time>2018-06-03T09:25:31Z</time>
      </trkpt>
      <trkpt lat="48.59456" lon="-2.43114">
        <ele>71</ele>
        <time>2018-06-03T09:25:35Z</time>
      </trkpt>
      <trkpt lat="48.59446" lon="-2.43116">
        <ele>71</ele>
        <time>2018-06-03T09:25:39Z</time>
      </trkpt>
      <trkpt lat="48.59432" lon="-2.43116">
        <ele>71</ele>
        <time>2018-06-03T09:25:43Z</time>
      </trkpt>
      <trkpt lat="48.59419" lon="-2.43114">
        <ele>71</ele>
        <time>2018-06-03T09:25:47Z</time>
      </trkpt>
      <trkpt lat="48.59405" lon="-2.43113">
        <ele>71</ele>
        <time>2018-06-03T09:25:51Z</time>
      </trkpt>
      <trkpt lat="48.59387" lon="-2.4311">
        <ele>72</ele>
        <time>2018-06-03T09:25:55Z</time>
      </trkpt>
      <trkpt lat="48.59374" lon="-2.43109">
        <ele>72</ele>
        <time>2018-06-03T09:25:59Z</time>
      </trkpt>
      <trkpt lat="48.59356" lon="-2.43113">
        <ele>72</ele>
        <time>2018-06-03T09:26:03Z</time>
      </trkpt>
      <trkpt lat="48.59343" lon="-2.43119">
        <ele>72</ele>
        <time>2018-06-03T09:26:07Z</time>
      </trkpt>
      <trkpt lat="48.5933" lon="-2.43117">
        <ele>72</ele>
        <time>2018-06-03T09:26:11Z</time>
      </trkpt>
      <trkpt lat="48.59317" lon="-2.4311">
        <ele>72</ele>
        <time>2018-06-03T09:26:15Z</time>
      </trkpt>
      <trkpt lat="48.59302" lon="-2.4311">
        <ele>72</ele>
        <time>2018-06-03T09:26:19Z</time>
      </trkpt>
      <trkpt lat="48.59286" lon="-2.43108">
        <ele>72</ele>
        <time>2018-06-03T09:26:23Z</time>
      </trkpt>
      <trkpt lat="48.59279" lon="-2.43113">
        <ele>72</ele>
        <time>2018-06-03T09:26:27Z</time>
      </trkpt>
      <trkpt lat="48.59277" lon="-2.43124">
        <ele>72</ele>
        <time>2018-06-03T09:26:31Z</time>
      </trkpt>
      <trkpt lat="48.59279" lon="-2.43141">
        <ele>72</ele>
        <time>2018-06-03T09:26:35Z</time>
      </trkpt>
      <trkpt lat="48.59281" lon="-2.43163">
        <ele>72</ele>
        <time>2018-06-03T09:26:39Z</time>
      </trkpt>
      <trkpt lat="48.59286" lon="-2.43186">
        <ele>73</ele>
        <time>2018-06-03T09:26:43Z</time>
      </trkpt>
      <trkpt lat="48.59285" lon="-2.43208">
        <ele>73</ele>
        <time>2018-06-03T09:26:47Z</time>
      </trkpt>
      <trkpt lat="48.59287" lon="-2.43232">
        <ele>73</ele>
        <time>2018-06-03T09:26:51Z</time>
      </trkpt>
      <trkpt lat="48.59289" lon="-2.43253">
        <ele>74</ele>
        <time>2018-06-03T09:26:55Z</time>
      </trkpt>
      <trkpt lat="48.59291" lon="-2.43279">
        <ele>75</ele>
        <time>2018-06-03T09:26:59Z</time>
      </trkpt>
      <trkpt lat="48.59283" lon="-2.43297">
        <ele>75</ele>
        <time>2018-06-03T09:27:03Z</time>
      </trkpt>
      <trkpt lat="48.59269" lon="-2.43294">
        <ele>75</ele>
        <time>2018-06-03T09:27:07Z</time>
      </trkpt>
      <trkpt lat="48.59255" lon="-2.43285">
        <ele>75</ele>
        <time>2018-06-03T09:27:11Z</time>
      </trkpt>
      <trkpt lat="48.5924" lon="-2.43276">
        <ele>75</ele>
        <time>2018-06-03T09:27:15Z</time>
      </trkpt>
      <trkpt lat="48.59222" lon="-2.43268">
        <ele>75</ele>
        <time>2018-06-03T09:27:19Z</time>
      </trkpt>
      <trkpt lat="48.59204" lon="-2.43258">
        <ele>74</ele>
        <time>2018-06-03T09:27:23Z</time>
      </trkpt>
      <trkpt lat="48.59188" lon="-2.43244">
        <ele>74</ele>
        <time>2018-06-03T09:27:27Z</time>
      </trkpt>
      <trkpt lat="48.59174" lon="-2.43225">
        <ele>74</ele>
        <time>2018-06-03T09:27:31Z</time>
      </trkpt>
      <trkpt lat="48.59161" lon="-2.43202">
        <ele>73</ele>
        <time>2018-06-03T09:27:35Z</time>
      </trkpt>
      <trkpt lat="48.59149" lon="-2.43182">
        <ele>73</ele>
        <time>2018-06-03T09:27:39Z</time>
      </trkpt>
      <trkpt lat="48.59131" lon="-2.43162">
        <ele>72</ele>
        <time>2018-06-03T09:27:43Z</time>
      </trkpt>
      <trkpt lat="48.59113" lon="-2.43148">
        <ele>72</ele>
        <time>2018-06-03T09:27:47Z</time>
      </trkpt>
      <trkpt lat="48.59094" lon="-2.43132">
        <ele>72</ele>
        <time>2018-06-03T09:27:51Z</time>
      </trkpt>
      <trkpt lat="48.59076" lon="-2.43128">
        <ele>71</ele>
        <time>2018-06-03T09:27:55Z</time>
      </trkpt>
      <trkpt lat="48.59069" lon="-2.43114">
        <ele>71</ele>
        <time>2018-06-03T09:27:59Z</time>
      </trkpt>
      <trkpt lat="48.59062" lon="-2.43094">
        <ele>71</ele>
        <time>2018-06-03T09:28:03Z</time>
      </trkpt>
      <trkpt lat="48.59045" lon="-2.43076">
        <ele>70</ele>
        <time>2018-06-03T09:28:07Z</time>
      </trkpt>
      <trkpt lat="48.59026" lon="-2.4307">
        <ele>70</ele>
        <time>2018-06-03T09:28:11Z</time>
      </trkpt>
      <trkpt lat="48.59006" lon="-2.43065">
        <ele>70</ele>
        <time>2018-06-03T09:28:15Z</time>
      </trkpt>
      <trkpt lat="48.58986" lon="-2.43062">
        <ele>70</ele>
        <time>2018-06-03T09:28:19Z</time>
      </trkpt>
      <trkpt lat="48.58963" lon="-2.43067">
        <ele>69</ele>
        <time>2018-06-03T09:28:23Z</time>
      </trkpt>
      <trkpt lat="48.58941" lon="-2.43068">
        <ele>69</ele>
        <time>2018-06-03T09:28:27Z</time>
      </trkpt>
      <trkpt lat="48.58924" lon="-2.43069">
        <ele>70</ele>
        <time>2018-06-03T09:28:31Z</time>
      </trkpt>
      <trkpt lat="48.58911" lon="-2.43067">
        <ele>70</ele>
        <time>2018-06-03T09:28:35Z</time>
      </trkpt>
      <trkpt lat="48.58908" lon="-2.43054">
        <ele>69</ele>
        <time>2018-06-03T09:28:39Z</time>
      </trkpt>
      <trkpt lat="48.58908" lon="-2.43036">
        <ele>69</ele>
        <time>2018-06-03T09:28:43Z</time>
      </trkpt>
      <trkpt lat="48.58911" lon="-2.43027">
        <ele>69</ele>
        <time>2018-06-03T09:28:47Z</time>
      </trkpt>
      <trkpt lat="48.58907" lon="-2.43007">
        <ele>68</ele>
        <time>2018-06-03T09:28:51Z</time>
      </trkpt>
      <trkpt lat="48.58901" lon="-2.42987">
        <ele>68</ele>
        <time>2018-06-03T09:28:55Z</time>
      </trkpt>
      <trkpt lat="48.58897" lon="-2.42959">
        <ele>68</ele>
        <time>2018-06-03T09:28:59Z</time>
      </trkpt>
      <trkpt lat="48.58896" lon="-2.42934">
        <ele>67</ele>
        <time>2018-06-03T09:29:03Z</time>
      </trkpt>
      <trkpt lat="48.58901" lon="-2.42916">
        <ele>67</ele>
        <time>2018-06-03T09:29:07Z</time>
      </trkpt>
      <trkpt lat="48.58896" lon="-2.42894">
        <ele>66</ele>
        <time>2018-06-03T09:29:11Z</time>
      </trkpt>
      <trkpt lat="48.58906" lon="-2.42884">
        <ele>66</ele>
        <time>2018-06-03T09:29:15Z</time>
      </trkpt>
      <trkpt lat="48.58918" lon="-2.42879">
        <ele>67</ele>
        <time>2018-06-03T09:29:19Z</time>
      </trkpt>
      <trkpt lat="48.58933" lon="-2.42871">
        <ele>66</ele>
        <time>2018-06-03T09:29:23Z</time>
      </trkpt>
      <trkpt lat="48.58954" lon="-2.4286">
        <ele>66</ele>
        <time>2018-06-03T09:29:27Z</time>
      </trkpt>
      <trkpt lat="48.58971" lon="-2.42853">
        <ele>66</ele>
        <time>2018-06-03T09:29:31Z</time>
      </trkpt>
      <trkpt lat="48.58985" lon="-2.4285">
        <ele>66</ele>
        <time>2018-06-03T09:29:35Z</time>
      </trkpt>
      <trkpt lat="48.58994" lon="-2.42847">
        <ele>66</ele>
        <time>2018-06-03T09:29:39Z</time>
      </trkpt>
      <trkpt lat="48.59001" lon="-2.42843">
        <ele>66</ele>
        <time>2018-06-03T09:29:43Z</time>
      </trkpt>
      <trkpt lat="48.59007" lon="-2.4284">
        <ele>66</ele>
        <time>2018-06-03T09:29:47Z</time>
      </trkpt>
      <trkpt lat="48.59016" lon="-2.42836">
        <ele>66</ele>
        <time>2018-06-03T09:29:51Z</time>
      </trkpt>
      <trkpt lat="48.59025" lon="-2.42835">
        <ele>66</ele>
        <time>2018-06-03T09:29:55Z</time>
      </trkpt>
      <trkpt lat="48.59043" lon="-2.42826">
        <ele>66</ele>
        <time>2018-06-03T09:29:59Z</time>
      </trkpt>
      <trkpt lat="48.59058" lon="-2.42812">
        <ele>65</ele>
        <time>2018-06-03T09:30:03Z</time>
      </trkpt>
      <trkpt lat="48.59074" lon="-2.42798">
        <ele>65</ele>
        <time>2018-06-03T09:30:07Z</time>
      </trkpt>
      <trkpt lat="48.59089" lon="-2.42782">
        <ele>65</ele>
        <time>2018-06-03T09:30:11Z</time>
      </trkpt>
      <trkpt lat="48.59104" lon="-2.42765">
        <ele>65</ele>
        <time>2018-06-03T09:30:15Z</time>
      </trkpt>
      <trkpt lat="48.59101" lon="-2.42739">
        <ele>64</ele>
        <time>2018-06-03T09:30:19Z</time>
      </trkpt>
      <trkpt lat="48.59093" lon="-2.42714">
        <ele>63</ele>
        <time>2018-06-03T09:30:23Z</time>
      </trkpt>
      <trkpt lat="48.59085" lon="-2.42686">
        <ele>63</ele>
        <time>2018-06-03T09:30:27Z</time>
      </trkpt>
      <trkpt lat="48.59076" lon="-2.42656">
        <ele>63</ele>
        <time>2018-06-03T09:30:31Z</time>
      </trkpt>
      <trkpt lat="48.59068" lon="-2.4263">
        <ele>63</ele>
        <time>2018-06-03T09:30:35Z</time>
      </trkpt>
      <trkpt lat="48.59068" lon="-2.42611">
        <ele>63</ele>
        <time>2018-06-03T09:30:39Z</time>
      </trkpt>
      <trkpt lat="48.59082" lon="-2.42602">
        <ele>63</ele>
        <time>2018-06-03T09:30:43Z</time>
      </trkpt>
      <trkpt lat="48.5909" lon="-2.42583">
        <ele>62</ele>
        <time>2018-06-03T09:30:47Z</time>
      </trkpt>
      <trkpt lat="48.59084" lon="-2.42561">
        <ele>62</ele>
        <time>2018-06-03T09:30:51Z</time>
      </trkpt>
      <trkpt lat="48.59083" lon="-2.42543">
        <ele>64</ele>
        <time>2018-06-03T09:30:55Z</time>
      </trkpt>
      <trkpt lat="48.59093" lon="-2.42528">
        <ele>63</ele>
        <time>2018-06-03T09:30:59Z</time>
      </trkpt>
      <trkpt lat="48.59103" lon="-2.42507">
        <ele>64</ele>
        <time>2018-06-03T09:31:03Z</time>
      </trkpt>
      <trkpt lat="48.59115" lon="-2.42486">
        <ele>64</ele>
        <time>2018-06-03T09:31:07Z</time>
      </trkpt>
      <trkpt lat="48.59125" lon="-2.42464">
        <ele>64</ele>
        <time>2018-06-03T09:31:11Z</time>
      </trkpt>
      <trkpt lat="48.59134" lon="-2.42443">
        <ele>64</ele>
        <time>2018-06-03T09:31:15Z</time>
      </trkpt>
      <trkpt lat="48.59144" lon="-2.42426">
        <ele>64</ele>
        <time>2018-06-03T09:31:19Z</time>
      </trkpt>
      <trkpt lat="48.59154" lon="-2.42408">
        <ele>64</ele>
        <time>2018-06-03T09:31:23Z</time>
      </trkpt>
      <trkpt lat="48.59163" lon="-2.42391">
        <ele>65</ele>
        <time>2018-06-03T09:31:27Z</time>
      </trkpt>
      <trkpt lat="48.59175" lon="-2.42376">
        <ele>64</ele>
        <time>2018-06-03T09:31:31Z</time>
      </trkpt>
      <trkpt lat="48.59189" lon="-2.4236">
        <ele>64</ele>
        <time>2018-06-03T09:31:35Z</time>
      </trkpt>
      <trkpt lat="48.59198" lon="-2.42341">
        <ele>64</ele>
        <time>2018-06-03T09:31:39Z</time>
      </trkpt>
      <trkpt lat="48.59207" lon="-2.42327">
        <ele>64</ele>
        <time>2018-06-03T09:31:43Z</time>
      </trkpt>
      <trkpt lat="48.59217" lon="-2.42323">
        <ele>64</ele>
        <time>2018-06-03T09:31:47Z</time>
      </trkpt>
      <trkpt lat="48.59224" lon="-2.42317">
        <ele>64</ele>
        <time>2018-06-03T09:31:51Z</time>
      </trkpt>
      <trkpt lat="48.59225" lon="-2.42306">
        <ele>64</ele>
        <time>2018-06-03T09:31:55Z</time>
      </trkpt>
      <trkpt lat="48.59221" lon="-2.42285">
        <ele>64</ele>
        <time>2018-06-03T09:31:59Z</time>
      </trkpt>
      <trkpt lat="48.5922" lon="-2.42269">
        <ele>64</ele>
        <time>2018-06-03T09:32:03Z</time>
      </trkpt>
      <trkpt lat="48.59223" lon="-2.42252">
        <ele>64</ele>
        <time>2018-06-03T09:32:07Z</time>
      </trkpt>
      <trkpt lat="48.59221" lon="-2.42229">
        <ele>64</ele>
        <time>2018-06-03T09:32:11Z</time>
      </trkpt>
      <trkpt lat="48.59216" lon="-2.422">
        <ele>64</ele>
        <time>2018-06-03T09:32:15Z</time>
      </trkpt>
      <trkpt lat="48.59209" lon="-2.42169">
        <ele>64</ele>
        <time>2018-06-03T09:32:19Z</time>
      </trkpt>
      <trkpt lat="48.59207" lon="-2.42136">
        <ele>64</ele>
        <time>2018-06-03T09:32:23Z</time>
      </trkpt>
      <trkpt lat="48.59204" lon="-2.42103">
        <ele>64</ele>
        <time>2018-06-03T09:32:27Z</time>
      </trkpt>
      <trkpt lat="48.592" lon="-2.4207">
        <ele>65</ele>
        <time>2018-06-03T09:32:31Z</time>
      </trkpt>
      <trkpt lat="48.59196" lon="-2.42044">
        <ele>65</ele>
        <time>2018-06-03T09:32:35Z</time>
      </trkpt>
      <trkpt lat="48.59179" lon="-2.42034">
        <ele>65</ele>
        <time>2018-06-03T09:32:39Z</time>
      </trkpt>
      <trkpt lat="48.59161" lon="-2.42025">
        <ele>67</ele>
        <time>2018-06-03T09:32:43Z</time>
      </trkpt>
      <trkpt lat="48.59146" lon="-2.42019">
        <ele>67</ele>
        <time>2018-06-03T09:32:47Z</time>
      </trkpt>
      <trkpt lat="48.59126" lon="-2.42016">
        <ele>67</ele>
        <time>2018-06-03T09:32:51Z</time>
      </trkpt>
      <trkpt lat="48.59106" lon="-2.42011">
        <ele>67</ele>
        <time>2018-06-03T09:32:55Z</time>
      </trkpt>
      <trkpt lat="48.59088" lon="-2.42005">
        <ele>68</ele>
        <time>2018-06-03T09:32:59Z</time>
      </trkpt>
      <trkpt lat="48.59067" lon="-2.42001">
        <ele>68</ele>
        <time>2018-06-03T09:33:03Z</time>
      </trkpt>
      <trkpt lat="48.5905" lon="-2.42">
        <ele>68</ele>
        <time>2018-06-03T09:33:07Z</time>
      </trkpt>
      <trkpt lat="48.59026" lon="-2.41999">
        <ele>69</ele>
        <time>2018-06-03T09:33:11Z</time>
      </trkpt>
      <trkpt lat="48.59003" lon="-2.41999">
        <ele>69</ele>
        <time>2018-06-03T09:33:15Z</time>
      </trkpt>
      <trkpt lat="48.58982" lon="-2.42003">
        <ele>69</ele>
        <time>2018-06-03T09:33:19Z</time>
      </trkpt>
      <trkpt lat="48.58962" lon="-2.42006">
        <ele>69</ele>
        <time>2018-06-03T09:33:23Z</time>
      </trkpt>
      <trkpt lat="48.5894" lon="-2.42015">
        <ele>69</ele>
        <time>2018-06-03T09:33:27Z</time>
      </trkpt>
      <trkpt lat="48.58922" lon="-2.42024">
        <ele>69</ele>
        <time>2018-06-03T09:33:31Z</time>
      </trkpt>
      <trkpt lat="48.58897" lon="-2.42036">
        <ele>69</ele>
        <time>2018-06-03T09:33:35Z</time>
      </trkpt>
      <trkpt lat="48.58878" lon="-2.42054">
        <ele>69</ele>
        <time>2018-06-03T09:33:39Z</time>
      </trkpt>
      <trkpt lat="48.58848" lon="-2.42076">
        <ele>69</ele>
        <time>2018-06-03T09:33:43Z</time>
      </trkpt>
      <trkpt lat="48.58821" lon="-2.42093">
        <ele>69</ele>
        <time>2018-06-03T09:33:47Z</time>
      </trkpt>
      <trkpt lat="48.58791" lon="-2.42107">
        <ele>69</ele>
        <time>2018-06-03T09:33:51Z</time>
      </trkpt>
      <trkpt lat="48.58763" lon="-2.4212">
        <ele>69</ele>
        <time>2018-06-03T09:33:55Z</time>
      </trkpt>
      <trkpt lat="48.58743" lon="-2.42134">
        <ele>69</ele>
        <time>2018-06-03T09:33:59Z</time>
      </trkpt>
      <trkpt lat="48.58718" lon="-2.42149">
        <ele>70</ele>
        <time>2018-06-03T09:34:03Z</time>
      </trkpt>
      <trkpt lat="48.58697" lon="-2.42176">
        <ele>69</ele>
        <time>2018-06-03T09:34:07Z</time>
      </trkpt>
      <trkpt lat="48.58679" lon="-2.42207">
        <ele>68</ele>
        <time>2018-06-03T09:34:11Z</time>
      </trkpt>
      <trkpt lat="48.58663" lon="-2.423">
        <ele>67.3</ele>
      </trkpt>
      <trkpt lat="48.58643" lon="-2.42386">
        <ele>66</ele>
      </trkpt>
      <trkpt lat="48.58663" lon="-2.42549">
        <ele>64</ele>
      </trkpt>
      <trkpt lat="48.58598" lon="-2.42628">
        <ele>65</ele>
      </trkpt>
      <trkpt lat="48.58491" lon="-2.4297">
        <ele>70</ele>
      </trkpt>
      <trkpt lat="48.58429" lon="-2.43064">
        <ele>72</ele>
      </trkpt>
      <trkpt lat="48.58504" lon="-2.43242">
        <ele>71.6</ele>
      </trkpt>
      <trkpt lat="48.58413" lon="-2.43379">
        <ele>73</ele>
      </trkpt>
      <trkpt lat="48.58312" lon="-2.43615">
        <ele>77</ele>
      </trkpt>
      <trkpt lat="48.58217" lon="-2.43757">
        <ele>79.3</ele>
        <time>2018-06-03T06:36:34Z</time>
      </trkpt>
    </trkseg>
  </trk>
</gpx>